Wetterdaten: Dienstag, 07.05.2019
Datum Zeit Temp. A. Pool Temp. Temp. 5cm Feuchte A. Luftdruck Regen Wind Richtung Richtung Sonnenschein ET UV Solar Taupunkt Windchill Windben Empfang
07.05.2019 00:00 5,9 C 11,7 C 5,6 C 78 % 1019,5 hPa 0,0 l/m 13,8 km/h (3 Bft) W-SW 240 0 min 0,000 mm 0,0 UV-I 0 W/m 2,4 C 0,8 C 19,3 km/h (3 Bft) 100,00 %
07.05.2019 00:02 5,9 C 12,2 C 5,6 C 78 % 1019,6 hPa 0,0 l/m 14,3 km/h (3 Bft) SW 232 0 min 0,000 mm 0,0 UV-I 0 W/m 2,4 C 0,5 C 24,1 km/h (4 Bft) 9,09 %
07.05.2019 00:04 5,9 C 11,7 C 5,6 C 78 % 1019,6 hPa 0,0 l/m 12,6 km/h (3 Bft) W-SW 248 0 min 0,000 mm 0,0 UV-I 0 W/m 2,4 C 1,4 C 19,3 km/h (3 Bft) 100,00 %
07.05.2019 00:06 5,9 C 11,7 C 5,6 C 78 % 1019,6 hPa 0,0 l/m 15,2 km/h (3 Bft) W-SW 237 0 min 0,000 mm 0,0 UV-I 0 W/m 2,4 C 0,1 C 24,1 km/h (4 Bft) 97,56 %
07.05.2019 00:08 5,9 C 11,7 C 5,6 C 78 % 1019,6 hPa 0,0 l/m 15,7 km/h (3 Bft) W-SW 239 0 min 0,000 mm 0,0 UV-I 0 W/m 2,4 C -0,2 C 22,5 km/h (4 Bft) 96,00 %
07.05.2019 00:10 5,9 C 11,7 C 5,6 C 78 % 1019,6 hPa 0,0 l/m 13,9 km/h (3 Bft) W-SW 242 0 min 0,000 mm 0,0 UV-I 0 W/m 2,4 C 0,7 C 20,9 km/h (4 Bft) 97,56 %
07.05.2019 00:12 5,9 C 11,7 C 5,6 C 78 % 1019,6 hPa 0,0 l/m 13,7 km/h (3 Bft) W-SW 248 0 min 0,000 mm 0,0 UV-I 0 W/m 2,4 C 0,8 C 19,3 km/h (3 Bft) 94,64 %
07.05.2019 00:14 5,9 C 11,7 C 5,0 C 78 % 1019,5 hPa 0,0 l/m 15,7 km/h (3 Bft) W-SW 241 0 min 0,000 mm 0,0 UV-I 0 W/m 2,4 C -0,2 C 20,9 km/h (4 Bft) 97,56 %
07.05.2019 00:16 5,9 C 11,7 C 5,6 C 78 % 1019,6 hPa 0,0 l/m 15,9 km/h (3 Bft) SW 232 0 min 0,000 mm 0,0 UV-I 0 W/m 2,4 C -0,3 C 20,9 km/h (4 Bft) 100,00 %
07.05.2019 00:18 5,9 C 11,7 C 5,0 C 78 % 1019,5 hPa 0,0 l/m 13,8 km/h (3 Bft) SW 232 0 min 0,000 mm 0,0 UV-I 0 W/m 2,4 C 0,8 C 22,5 km/h (4 Bft) 96,00 %
07.05.2019 00:20 5,9 C 11,7 C 5,0 C 78 % 1019,5 hPa 0,0 l/m 15,9 km/h (3 Bft) W-SW 251 0 min 0,000 mm 0,0 UV-I 0 W/m 2,4 C -0,3 C 22,5 km/h (4 Bft) 95,74 %
07.05.2019 00:22 5,9 C 11,7 C 5,6 C 78 % 1019,5 hPa 0,0 l/m 12,3 km/h (3 Bft) W 263 0 min 0,000 mm 0,0 UV-I 0 W/m 2,4 C 1,6 C 20,9 km/h (4 Bft) 97,37 %
07.05.2019 00:24 5,9 C 11,7 C 5,6 C 78 % 1019,5 hPa 0,0 l/m 14,3 km/h (3 Bft) SW 228 0 min 0,000 mm 0,0 UV-I 0 W/m 2,4 C 0,5 C 19,3 km/h (3 Bft) 96,23 %
07.05.2019 00:26 5,9 C 11,7 C 5,6 C 78 % 1019,5 hPa 0,0 l/m 15,9 km/h (3 Bft) W-SW 244 0 min 0,000 mm 0,0 UV-I 0 W/m 2,4 C -0,3 C 22,5 km/h (4 Bft) 97,56 %
07.05.2019 00:28 5,9 C 11,7 C 5,6 C 78 % 1019,5 hPa 0,0 l/m 14,2 km/h (3 Bft) W-SW 247 0 min 0,000 mm 0,0 UV-I 0 W/m 2,4 C 0,6 C 19,3 km/h (3 Bft) 98,00 %
07.05.2019 00:30 5,9 C 11,7 C 5,6 C 78 % 1019,4 hPa 0,0 l/m 13,6 km/h (3 Bft) W-SW 244 0 min 0,000 mm 0,0 UV-I 0 W/m 2,4 C 0,9 C 17,7 km/h (3 Bft) 100,00 %
07.05.2019 00:32 5,9 C 11,7 C 5,6 C 78 % 1019,5 hPa 0,0 l/m 13,8 km/h (3 Bft) W-SW 246 0 min 0,000 mm 0,0 UV-I 0 W/m 2,4 C 0,8 C 20,9 km/h (4 Bft) 100,00 %
07.05.2019 00:34 5,9 C 11,7 C 5,6 C 78 % 1019,5 hPa 0,0 l/m 13,0 km/h (3 Bft) W-SW 252 0 min 0,000 mm 0,0 UV-I 0 W/m 2,4 C 1,2 C 20,9 km/h (4 Bft) 100,00 %
07.05.2019 00:36 5,9 C 11,7 C 5,6 C 78 % 1019,4 hPa 0,0 l/m 12,4 km/h (3 Bft) W 261 0 min 0,000 mm 0,0 UV-I 0 W/m 2,4 C 1,6 C 19,3 km/h (3 Bft) 100,00 %
07.05.2019 00:38 5,9 C 11,7 C 5,6 C 78 % 1019,4 hPa 0,0 l/m 12,5 km/h (3 Bft) W-SW 244 0 min 0,000 mm 0,0 UV-I 0 W/m 2,4 C 1,5 C 20,9 km/h (4 Bft) 100,00 %
07.05.2019 00:40 5,9 C 11,7 C 5,6 C 78 % 1019,4 hPa 0,0 l/m 13,1 km/h (3 Bft) W-SW 248 0 min 0,000 mm 0,0 UV-I 0 W/m 2,4 C 1,2 C 17,7 km/h (3 Bft) 96,23 %
07.05.2019 00:42 5,9 C 11,7 C 5,6 C 78 % 1019,4 hPa 0,0 l/m 13,6 km/h (3 Bft) SW 233 0 min 0,000 mm 0,0 UV-I 0 W/m 2,4 C 0,9 C 17,7 km/h (3 Bft) 100,00 %
07.05.2019 00:44 5,9 C 11,7 C 5,6 C 78 % 1019,4 hPa 0,0 l/m 13,6 km/h (3 Bft) W 265 0 min 0,000 mm 0,0 UV-I 0 W/m 2,4 C 0,9 C 19,3 km/h (3 Bft) 98,00 %
07.05.2019 00:46 5,9 C 11,7 C 5,6 C 78 % 1019,4 hPa 0,0 l/m 13,4 km/h (3 Bft) SW 234 0 min 0,000 mm 0,0 UV-I 0 W/m 2,4 C 1,0 C 19,3 km/h (3 Bft) 97,87 %
07.05.2019 00:48 5,9 C 11,7 C 5,6 C 78 % 1019,3 hPa 0,0 l/m 14,1 km/h (3 Bft) W-SW 240 0 min 0,000 mm 0,0 UV-I 0 W/m 2,4 C 0,6 C 20,9 km/h (4 Bft) 100,00 %
07.05.2019 00:50 5,9 C 11,7 C 5,6 C 78 % 1019,4 hPa 0,0 l/m 16,5 km/h (3 Bft) SW 234 0 min 0,000 mm 0,0 UV-I 0 W/m 2,4 C -0,5 C 22,5 km/h (4 Bft) 97,87 %
07.05.2019 00:52 5,9 C 11,7 C 5,6 C 78 % 1019,4 hPa 0,0 l/m 15,4 km/h (3 Bft) W-SW 244 0 min 0,000 mm 0,0 UV-I 0 W/m 2,4 C -0,0 C 22,5 km/h (4 Bft) 97,37 %
07.05.2019 00:54 5,9 C 11,7 C 5,6 C 78 % 1019,3 hPa 0,0 l/m 15,8 km/h (3 Bft) W-SW 240 0 min 0,000 mm 0,0 UV-I 0 W/m 2,4 C -0,2 C 20,9 km/h (4 Bft) 100,00 %
07.05.2019 00:56 5,9 C 11,7 C 5,6 C 78 % 1019,3 hPa 0,0 l/m 14,3 km/h (3 Bft) W-SW 257 0 min 0,000 mm 0,0 UV-I 0 W/m 2,4 C 0,5 C 17,7 km/h (3 Bft) 98,11 %
07.05.2019 00:58 5,9 C 11,7 C 5,6 C 78 % 1019,3 hPa 0,0 l/m 14,8 km/h (3 Bft) W-SW 245 0 min 0,000 mm 0,0 UV-I 0 W/m 2,4 C 0,3 C 19,3 km/h (3 Bft) 100,00 %
07.05.2019 01:00 5,9 C 11,7 C 5,6 C 78 % 1019,3 hPa 0,0 l/m 15,7 km/h (3 Bft) W-SW 247 0 min 0,025 mm 0,0 UV-I 0 W/m 2,4 C -0,2 C 20,9 km/h (4 Bft) 100,00 %
07.05.2019 01:02 5,9 C 11,7 C 5,6 C 78 % 1019,3 hPa 0,0 l/m 14,4 km/h (3 Bft) W-SW 248 0 min 0,000 mm 0,0 UV-I 0 W/m 2,4 C 0,5 C 19,3 km/h (3 Bft) 98,11 %
07.05.2019 01:04 5,8 C 11,7 C 5,6 C 79 % 1019,4 hPa 0,0 l/m 16,0 km/h (3 Bft) SW 229 0 min 0,000 mm 0,0 UV-I 0 W/m 2,4 C -0,4 C 24,1 km/h (4 Bft) 94,34 %
07.05.2019 01:06 5,9 C 11,7 C 5,6 C 78 % 1019,3 hPa 0,0 l/m 16,2 km/h (3 Bft) W-SW 251 0 min 0,000 mm 0,0 UV-I 0 W/m 2,4 C -0,4 C 24,1 km/h (4 Bft) 95,74 %
07.05.2019 01:08 5,9 C 11,7 C 5,6 C 79 % 1019,4 hPa 0,0 l/m 16,5 km/h (3 Bft) W-SW 246 0 min 0,000 mm 0,0 UV-I 0 W/m 2,5 C -0,5 C 20,9 km/h (4 Bft) 97,56 %
07.05.2019 01:10 5,9 C 11,7 C 5,6 C 78 % 1019,3 hPa 0,0 l/m 12,7 km/h (3 Bft) SW 236 0 min 0,000 mm 0,0 UV-I 0 W/m 2,4 C 1,4 C 19,3 km/h (3 Bft) 100,00 %
07.05.2019 01:12 5,9 C 11,7 C 5,6 C 78 % 1019,3 hPa 0,0 l/m 14,9 km/h (3 Bft) SW 236 0 min 0,000 mm 0,0 UV-I 0 W/m 2,4 C 0,2 C 20,9 km/h (4 Bft) 96,77 %
07.05.2019 01:14 5,9 C 11,7 C 5,6 C 78 % 1019,3 hPa 0,0 l/m 14,5 km/h (3 Bft) W-SW 248 0 min 0,000 mm 0,0 UV-I 0 W/m 2,4 C 0,4 C 20,9 km/h (4 Bft) 98,18 %
07.05.2019 01:16 5,9 C 11,7 C 5,6 C 79 % 1019,4 hPa 0,0 l/m 14,3 km/h (3 Bft) W-SW 244 0 min 0,000 mm 0,0 UV-I 0 W/m 2,5 C 0,5 C 20,9 km/h (4 Bft) 95,24 %
07.05.2019 01:18 5,8 C 11,7 C 5,6 C 79 % 1019,4 hPa 0,0 l/m 13,5 km/h (3 Bft) W-SW 256 0 min 0,000 mm 0,0 UV-I 0 W/m 2,4 C 0,8 C 19,3 km/h (3 Bft) 96,00 %
07.05.2019 01:20 5,9 C 11,7 C 5,6 C 78 % 1019,4 hPa 0,0 l/m 11,0 km/h (2 Bft) W 259 0 min 0,000 mm 0,0 UV-I 0 W/m 2,4 C 2,4 C 19,3 km/h (3 Bft) 95,74 %
07.05.2019 01:22 5,9 C 11,7 C 5,6 C 78 % 1019,4 hPa 0,0 l/m 11,6 km/h (2 Bft) W-SW 244 0 min 0,000 mm 0,0 UV-I 0 W/m 2,4 C 2,0 C 17,7 km/h (3 Bft) 93,62 %
07.05.2019 01:24 5,9 C 11,7 C 5,6 C 78 % 1019,3 hPa 0,0 l/m 14,8 km/h (3 Bft) W-SW 257 0 min 0,000 mm 0,0 UV-I 0 W/m 2,4 C 0,3 C 22,5 km/h (4 Bft) 95,12 %
07.05.2019 01:26 5,9 C 11,7 C 5,6 C 78 % 1019,4 hPa 0,0 l/m 14,5 km/h (3 Bft) S-SW 213 0 min 0,000 mm 0,0 UV-I 0 W/m 2,4 C 0,4 C 22,5 km/h (4 Bft) 95,45 %
07.05.2019 01:28 5,9 C 11,7 C 5,6 C 78 % 1019,4 hPa 0,0 l/m 11,9 km/h (2 Bft) W-SW 247 0 min 0,000 mm 0,0 UV-I 0 W/m 2,4 C 1,9 C 16,1 km/h (3 Bft) 96,23 %
07.05.2019 01:30 5,9 C 11,7 C 5,6 C 78 % 1019,4 hPa 0,0 l/m 13,2 km/h (3 Bft) SW 236 0 min 0,000 mm 0,0 UV-I 0 W/m 2,4 C 1,1 C 19,3 km/h (3 Bft) 95,12 %
07.05.2019 01:32 5,9 C 11,7 C 5,6 C 78 % 1019,4 hPa 0,0 l/m 12,7 km/h (3 Bft) SW 215 0 min 0,000 mm 0,0 UV-I 0 W/m 2,4 C 1,4 C 19,3 km/h (3 Bft) 96,43 %
07.05.2019 01:34 5,9 C 11,7 C 5,6 C 78 % 1019,4 hPa 0,0 l/m 12,4 km/h (3 Bft) SW 231 0 min 0,000 mm 0,0 UV-I 0 W/m 2,4 C 1,6 C 17,7 km/h (3 Bft) 93,18 %
07.05.2019 01:36 5,9 C 11,7 C 5,6 C 78 % 1019,4 hPa 0,0 l/m 13,7 km/h (3 Bft) W-SW 242 0 min 0,000 mm 0,0 UV-I 0 W/m 2,4 C 0,8 C 19,3 km/h (3 Bft) 93,62 %
07.05.2019 01:38 5,9 C 11,7 C 5,6 C 78 % 1019,4 hPa 0,0 l/m 15,3 km/h (3 Bft) W-SW 255 0 min 0,000 mm 0,0 UV-I 0 W/m 2,4 C 0,0 C 19,3 km/h (3 Bft) 96,23 %
07.05.2019 01:40 5,9 C 11,7 C 5,6 C 78 % 1019,3 hPa 0,0 l/m 12,9 km/h (3 Bft) W-SW 237 0 min 0,000 mm 0,0 UV-I 0 W/m 2,4 C 1,3 C 20,9 km/h (4 Bft) 95,74 %
07.05.2019 01:42 5,9 C 11,7 C 5,6 C 78 % 1019,3 hPa 0,0 l/m 12,1 km/h (2 Bft) SW 234 0 min 0,000 mm 0,0 UV-I 0 W/m 2,4 C 1,7 C 19,3 km/h (3 Bft) 100,00 %
07.05.2019 01:44 5,9 C 11,7 C 5,6 C 78 % 1019,4 hPa 0,0 l/m 13,2 km/h (3 Bft) W-SW 240 0 min 0,000 mm 0,0 UV-I 0 W/m 2,4 C 1,1 C 19,3 km/h (3 Bft) 94,34 %
07.05.2019 01:46 5,8 C 11,7 C 5,6 C 78 % 1019,3 hPa 0,0 l/m 12,0 km/h (2 Bft) W-SW 239 0 min 0,000 mm 0,0 UV-I 0 W/m 2,3 C 1,7 C 17,7 km/h (3 Bft) 97,56 %
07.05.2019 01:48 5,8 C 11,7 C 5,6 C 78 % 1019,3 hPa 0,0 l/m 14,5 km/h (3 Bft) W-SW 239 0 min 0,000 mm 0,0 UV-I 0 W/m 2,3 C 0,3 C 19,3 km/h (3 Bft) 100,00 %
07.05.2019 01:50 5,8 C 11,7 C 5,6 C 78 % 1019,4 hPa 0,0 l/m 14,9 km/h (3 Bft) SW 236 0 min 0,000 mm 0,0 UV-I 0 W/m 2,3 C 0,1 C 19,3 km/h (3 Bft) 95,12 %
07.05.2019 01:52 5,8 C 11,7 C 5,6 C 78 % 1019,3 hPa 0,0 l/m 14,7 km/h (3 Bft) W-SW 240 0 min 0,000 mm 0,0 UV-I 0 W/m 2,3 C 0,2 C 19,3 km/h (3 Bft) 100,00 %
07.05.2019 01:54 5,8 C 11,7 C 5,6 C 78 % 1019,3 hPa 0,0 l/m 15,1 km/h (3 Bft) W-SW 248 0 min 0,000 mm 0,0 UV-I 0 W/m 2,3 C -0,0 C 20,9 km/h (4 Bft) 100,00 %
07.05.2019 01:56 5,8 C 11,7 C 5,6 C 78 % 1019,3 hPa 0,0 l/m 11,2 km/h (2 Bft) SW 231 0 min 0,000 mm 0,0 UV-I 0 W/m 2,3 C 2,2 C 19,3 km/h (3 Bft) 100,00 %
07.05.2019 01:58 5,8 C 11,7 C 5,6 C 78 % 1019,3 hPa 0,0 l/m 13,9 km/h (3 Bft) SW 225 0 min 0,000 mm 0,0 UV-I 0 W/m 2,3 C 0,6 C 17,7 km/h (3 Bft) 100,00 %
07.05.2019 02:00 5,8 C 11,7 C 5,6 C 78 % 1019,3 hPa 0,0 l/m 14,1 km/h (3 Bft) W-SW 247 0 min 0,000 mm 0,0 UV-I 0 W/m 2,3 C 0,5 C 19,3 km/h (3 Bft) 98,21 %
07.05.2019 02:02 5,8 C 11,7 C 5,6 C 78 % 1019,2 hPa 0,0 l/m 15,4 km/h (3 Bft) W-SW 244 0 min 0,026 mm 0,0 UV-I 0 W/m 2,3 C -0,2 C 22,5 km/h (4 Bft) 100,00 %
07.05.2019 02:04 5,8 C 11,7 C 5,6 C 78 % 1019,2 hPa 0,0 l/m 12,6 km/h (3 Bft) W-SW 247 0 min 0,000 mm 0,0 UV-I 0 W/m 2,3 C 1,3 C 17,7 km/h (3 Bft) 97,56 %
07.05.2019 02:06 5,8 C 11,7 C 5,6 C 78 % 1019,2 hPa 0,0 l/m 11,9 km/h (2 Bft) SW 231 0 min 0,000 mm 0,0 UV-I 0 W/m 2,3 C 1,7 C 19,3 km/h (3 Bft) 98,21 %
07.05.2019 02:08 5,8 C 11,7 C 5,6 C 78 % 1019,2 hPa 0,0 l/m 12,9 km/h (3 Bft) W-SW 245 0 min 0,000 mm 0,0 UV-I 0 W/m 2,3 C 1,2 C 17,7 km/h (3 Bft) 100,00 %
07.05.2019 02:10 5,8 C 11,7 C 5,6 C 78 % 1019,2 hPa 0,0 l/m 14,3 km/h (3 Bft) SW 219 0 min 0,000 mm 0,0 UV-I 0 W/m 2,3 C 0,4 C 20,9 km/h (4 Bft) 100,00 %
07.05.2019 02:12 5,8 C 11,7 C 5,6 C 78 % 1019,2 hPa 0,0 l/m 12,7 km/h (3 Bft) SW 233 0 min 0,000 mm 0,0 UV-I 0 W/m 2,3 C 1,3 C 17,7 km/h (3 Bft) 100,00 %
07.05.2019 02:14 5,8 C 11,7 C 5,6 C 78 % 1019,2 hPa 0,0 l/m 12,6 km/h (3 Bft) SW 236 0 min 0,000 mm 0,0 UV-I 0 W/m 2,3 C 1,3 C 16,1 km/h (3 Bft) 100,00 %
07.05.2019 02:16 5,8 C 11,7 C 5,6 C 78 % 1019,2 hPa 0,0 l/m 15,4 km/h (3 Bft) SW 226 0 min 0,000 mm 0,0 UV-I 0 W/m 2,3 C -0,2 C 22,5 km/h (4 Bft) 100,00 %
07.05.2019 02:18 5,8 C 11,7 C 5,6 C 78 % 1019,2 hPa 0,0 l/m 12,2 km/h (2 Bft) W-SW 238 0 min 0,000 mm 0,0 UV-I 0 W/m 2,3 C 1,6 C 17,7 km/h (3 Bft) 100,00 %
07.05.2019 02:20 5,7 C 11,7 C 5,6 C 78 % 1019,2 hPa 0,0 l/m 11,6 km/h (2 Bft) SW 234 0 min 0,000 mm 0,0 UV-I 0 W/m 2,2 C 1,8 C 16,1 km/h (3 Bft) 98,11 %
07.05.2019 02:22 5,7 C 11,7 C 5,6 C 78 % 1019,2 hPa 0,0 l/m 10,9 km/h (2 Bft) W-SW 252 0 min 0,000 mm 0,0 UV-I 0 W/m 2,2 C 2,2 C 14,5 km/h (3 Bft) 100,00 %
07.05.2019 02:24 5,7 C 11,7 C 5,6 C 78 % 1019,2 hPa 0,0 l/m 11,6 km/h (2 Bft) W-SW 246 0 min 0,000 mm 0,0 UV-I 0 W/m 2,2 C 1,8 C 17,7 km/h (3 Bft) 98,11 %
07.05.2019 02:26 5,7 C 11,7 C 5,6 C 78 % 1019,2 hPa 0,0 l/m 12,7 km/h (3 Bft) SW 218 0 min 0,000 mm 0,0 UV-I 0 W/m 2,2 C 1,2 C 17,7 km/h (3 Bft) 100,00 %
07.05.2019 02:28 5,7 C 11,7 C 5,6 C 78 % 1019,2 hPa 0,0 l/m 12,8 km/h (3 Bft) W-SW 253 0 min 0,000 mm 0,0 UV-I 0 W/m 2,2 C 1,1 C 16,1 km/h (3 Bft) 100,00 %
07.05.2019 02:30 5,7 C 11,7 C 5,0 C 78 % 1019,2 hPa 0,0 l/m 11,2 km/h (2 Bft) W-SW 246 0 min 0,000 mm 0,0 UV-I 0 W/m 2,2 C 2,1 C 16,1 km/h (3 Bft) 100,00 %
07.05.2019 02:32 5,7 C 11,7 C 5,0 C 78 % 1019,2 hPa 0,0 l/m 11,0 km/h (2 Bft) W-SW 240 0 min 0,000 mm 0,0 UV-I 0 W/m 2,2 C 2,2 C 14,5 km/h (3 Bft) 100,00 %
07.05.2019 02:34 5,6 C 11,7 C 5,0 C 79 % 1019,2 hPa 0,0 l/m 10,3 km/h (2 Bft) S-SW 206 0 min 0,000 mm 0,0 UV-I 0 W/m 2,3 C 2,5 C 16,1 km/h (3 Bft) 96,00 %
07.05.2019 02:36 5,6 C 11,7 C 5,0 C 79 % 1019,2 hPa 0,0 l/m 12,9 km/h (3 Bft) W-SW 255 0 min 0,000 mm 0,0 UV-I 0 W/m 2,3 C 0,9 C 19,3 km/h (3 Bft) 98,00 %
07.05.2019 02:38 5,6 C 11,7 C 5,0 C 79 % 1019,1 hPa 0,0 l/m 13,0 km/h (3 Bft) W 265 0 min 0,000 mm 0,0 UV-I 0 W/m 2,3 C 0,9 C 19,3 km/h (3 Bft) 97,37 %
07.05.2019 02:40 5,6 C 11,7 C 5,0 C 79 % 1019,2 hPa 0,0 l/m 10,6 km/h (2 Bft) SW 231 0 min 0,000 mm 0,0 UV-I 0 W/m 2,3 C 2,3 C 17,7 km/h (3 Bft) 98,00 %
07.05.2019 02:42 5,6 C 11,7 C 5,0 C 79 % 1019,1 hPa 0,0 l/m 12,3 km/h (3 Bft) W-SW 239 0 min 0,000 mm 0,0 UV-I 0 W/m 2,3 C 1,3 C 16,1 km/h (3 Bft) 92,00 %
07.05.2019 02:44 5,6 C 11,7 C 5,0 C 79 % 1019,1 hPa 0,0 l/m 9,6 km/h (2 Bft) W-SW 238 0 min 0,000 mm 0,0 UV-I 0 W/m 2,3 C 3,0 C 12,9 km/h (3 Bft) 97,37 %
07.05.2019 02:46 5,6 C 11,7 C 5,0 C 79 % 1019,2 hPa 0,0 l/m 11,1 km/h (2 Bft) W-SW 238 0 min 0,000 mm 0,0 UV-I 0 W/m 2,3 C 2,0 C 19,3 km/h (3 Bft) 94,00 %
07.05.2019 02:48 5,6 C 11,7 C 5,0 C 79 % 1019,2 hPa 0,0 l/m 9,4 km/h (2 Bft) W-SW 240 0 min 0,000 mm 0,0 UV-I 0 W/m 2,3 C 3,2 C 14,5 km/h (3 Bft) 94,00 %
07.05.2019 02:50 5,6 C 11,7 C 5,0 C 79 % 1019,2 hPa 0,0 l/m 12,4 km/h (3 Bft) SW 235 0 min 0,000 mm 0,0 UV-I 0 W/m 2,3 C 1,2 C 19,3 km/h (3 Bft) 96,00 %
07.05.2019 02:52 5,6 C 11,7 C 5,0 C 79 % 1019,2 hPa 0,0 l/m 8,9 km/h (2 Bft) W-SW 243 0 min 0,000 mm 0,0 UV-I 0 W/m 2,3 C 3,5 C 16,1 km/h (3 Bft) 92,11 %
07.05.2019 02:54 5,6 C 11,7 C 5,0 C 79 % 1019,2 hPa 0,0 l/m 8,8 km/h (2 Bft) W 267 0 min 0,000 mm 0,0 UV-I 0 W/m 2,3 C 3,6 C 14,5 km/h (3 Bft) 96,23 %
07.05.2019 02:56 5,6 C 11,7 C 5,0 C 79 % 1019,1 hPa 0,0 l/m 8,9 km/h (2 Bft) W-SW 253 0 min 0,000 mm 0,0 UV-I 0 W/m 2,3 C 3,5 C 14,5 km/h (3 Bft) 95,83 %
07.05.2019 02:58 5,6 C 11,7 C 5,0 C 79 % 1019,2 hPa 0,0 l/m 7,6 km/h (2 Bft) W-SW 254 0 min 0,000 mm 0,0 UV-I 0 W/m 2,3 C 4,6 C 12,9 km/h (3 Bft) 93,62 %
07.05.2019 03:00 5,5 C 11,7 C 5,0 C 79 % 1019,1 hPa 0,0 l/m 11,7 km/h (2 Bft) W-SW 248 0 min 0,025 mm 0,0 UV-I 0 W/m 2,2 C 1,5 C 19,3 km/h (3 Bft) 95,12 %
07.05.2019 03:02 5,6 C 11,7 C 5,0 C 79 % 1019,2 hPa 0,0 l/m 12,9 km/h (3 Bft) W 259 0 min 0,000 mm 0,0 UV-I 0 W/m 2,3 C 0,9 C 19,3 km/h (3 Bft) 95,74 %
07.05.2019 03:04 5,6 C 11,7 C 5,0 C 78 % 1019,2 hPa 0,0 l/m 11,1 km/h (2 Bft) SW 234 0 min 0,000 mm 0,0 UV-I 0 W/m 2,1 C 2,0 C 16,1 km/h (3 Bft) 92,45 %
07.05.2019 03:06 5,6 C 11,7 C 5,0 C 79 % 1019,2 hPa 0,0 l/m 9,0 km/h (2 Bft) W 264 0 min 0,000 mm 0,0 UV-I 0 W/m 2,3 C 3,5 C 14,5 km/h (3 Bft) 100,00 %
07.05.2019 03:08 5,6 C 11,7 C 5,0 C 78 % 1019,2 hPa 0,0 l/m 11,1 km/h (2 Bft) W 265 0 min 0,000 mm 0,0 UV-I 0 W/m 2,1 C 2,0 C 16,1 km/h (3 Bft) 96,23 %
07.05.2019 03:10 5,6 C 11,7 C 5,6 C 78 % 1019,2 hPa 0,0 l/m 10,2 km/h (2 Bft) W-SW 244 0 min 0,000 mm 0,0 UV-I 0 W/m 2,1 C 2,6 C 16,1 km/h (3 Bft) 97,44 %
07.05.2019 03:12 5,6 C 11,7 C 5,6 C 78 % 1019,2 hPa 0,0 l/m 9,4 km/h (2 Bft) W-SW 245 0 min 0,000 mm 0,0 UV-I 0 W/m 2,1 C 3,2 C 17,7 km/h (3 Bft) 96,00 %
07.05.2019 03:14 5,6 C 11,7 C 5,6 C 78 % 1019,1 hPa 0,0 l/m 10,1 km/h (2 Bft) W-SW 253 0 min 0,000 mm 0,0 UV-I 0 W/m 2,1 C 2,7 C 14,5 km/h (3 Bft) 94,34 %
07.05.2019 03:16 5,6 C 11,7 C 5,6 C 78 % 1019,1 hPa 0,0 l/m 8,5 km/h (2 Bft) W 259 0 min 0,000 mm 0,0 UV-I 0 W/m 2,1 C 3,8 C 14,5 km/h (3 Bft) 93,62 %
07.05.2019 03:18 5,6 C 11,7 C 5,6 C 78 % 1019,1 hPa 0,0 l/m 10,2 km/h (2 Bft) W-SW 247 0 min 0,000 mm 0,0 UV-I 0 W/m 2,1 C 2,6 C 16,1 km/h (3 Bft) 94,87 %
07.05.2019 03:20 5,6 C 11,7 C 5,6 C 78 % 1019,2 hPa 0,0 l/m 9,4 km/h (2 Bft) W-SW 256 0 min 0,000 mm 0,0 UV-I 0 W/m 2,1 C 3,2 C 12,9 km/h (3 Bft) 96,00 %
07.05.2019 03:22 5,6 C 11,7 C 5,0 C 78 % 1019,1 hPa 0,0 l/m 8,8 km/h (2 Bft) W-SW 245 0 min 0,000 mm 0,0 UV-I 0 W/m 2,1 C 3,6 C 14,5 km/h (3 Bft) 95,45 %
07.05.2019 03:25 5,6 C 11,7 C 5,0 C 78 % 1019,1 hPa 0,0 l/m 8,7 km/h (2 Bft) W-SW 243 0 min 0,000 mm 0,0 UV-I 0 W/m 2,1 C 3,7 C 14,5 km/h (3 Bft) 94,74 %
07.05.2019 03:26 5,6 C 11,7 C 5,0 C 79 % 1019,1 hPa 0,0 l/m 9,0 km/h (2 Bft) W-SW 244 0 min 0,000 mm 0,0 UV-I 0 W/m 2,3 C 3,5 C 14,5 km/h (3 Bft) 93,33 %
07.05.2019 03:28 5,6 C 11,7 C 5,0 C 79 % 1019,1 hPa 0,0 l/m 11,0 km/h (2 Bft) W 266 0 min 0,000 mm 0,0 UV-I 0 W/m 2,3 C 2,1 C 17,7 km/h (3 Bft) 96,00 %
07.05.2019 03:30 5,6 C 11,7 C 5,0 C 79 % 1019,1 hPa 0,0 l/m 9,9 km/h (2 Bft) SW 215 0 min 0,000 mm 0,0 UV-I 0 W/m 2,3 C 2,8 C 14,5 km/h (3 Bft) 93,62 %
07.05.2019 03:32 5,6 C 11,7 C 5,0 C 79 % 1019,2 hPa 0,0 l/m 10,1 km/h (2 Bft) W-SW 240 0 min 0,000 mm 0,0 UV-I 0 W/m 2,3 C 2,7 C 16,1 km/h (3 Bft) 96,23 %
07.05.2019 03:35 5,6 C 11,7 C 5,0 C 79 % 1019,2 hPa 0,0 l/m 8,5 km/h (2 Bft) SW 226 0 min 0,000 mm 0,0 UV-I 0 W/m 2,3 C 3,8 C 16,1 km/h (3 Bft) 95,77 %
07.05.2019 03:36 5,6 C 11,7 C 5,0 C 78 % 1019,2 hPa 0,0 l/m 12,9 km/h (3 Bft) W-SW 248 0 min 0,000 mm 0,0 UV-I 0 W/m 2,1 C 0,9 C 14,5 km/h (3 Bft) 95,24 %
07.05.2019 03:38 5,6 C 11,7 C 5,0 C 78 % 1019,2 hPa 0,0 l/m 12,6 km/h (3 Bft) W-SW 254 0 min 0,000 mm 0,0 UV-I 0 W/m 2,1 C 1,1 C 17,7 km/h (3 Bft) 92,11 %
07.05.2019 03:40 5,6 C 11,7 C 5,0 C 78 % 1019,2 hPa 0,0 l/m 8,4 km/h (2 Bft) W-SW 244 0 min 0,000 mm 0,0 UV-I 0 W/m 2,1 C 3,9 C 11,3 km/h (2 Bft) 94,64 %
07.05.2019 03:42 5,6 C 11,7 C 5,0 C 79 % 1019,2 hPa 0,0 l/m 9,6 km/h (2 Bft) W-SW 248 0 min 0,000 mm 0,0 UV-I 0 W/m 2,3 C 3,0 C 14,5 km/h (3 Bft) 97,56 %
07.05.2019 03:44 5,6 C 11,7 C 5,0 C 78 % 1019,2 hPa 0,0 l/m 10,6 km/h (2 Bft) W 266 0 min 0,000 mm 0,0 UV-I 0 W/m 2,1 C 2,3 C 16,1 km/h (3 Bft) 98,11 %
07.05.2019 03:46 5,6 C 11,7 C 5,0 C 78 % 1019,2 hPa 0,0 l/m 8,3 km/h (2 Bft) W-SW 238 0 min 0,000 mm 0,0 UV-I 0 W/m 2,1 C 4,0 C 14,5 km/h (3 Bft) 97,44 %
07.05.2019 03:48 5,6 C 11,7 C 5,0 C 78 % 1019,2 hPa 0,0 l/m 10,2 km/h (2 Bft) W-SW 254 0 min 0,000 mm 0,0 UV-I 0 W/m 2,1 C 2,6 C 16,1 km/h (3 Bft) 98,08 %
07.05.2019 03:50 5,6 C 11,7 C 5,0 C 78 % 1019,2 hPa 0,0 l/m 9,4 km/h (2 Bft) W-SW 248 0 min 0,000 mm 0,0 UV-I 0 W/m 2,1 C 3,2 C 17,7 km/h (3 Bft) 100,00 %
07.05.2019 03:52 5,6 C 11,7 C 5,0 C 78 % 1019,2 hPa 0,0 l/m 9,8 km/h (2 Bft) W 260 0 min 0,000 mm 0,0 UV-I 0 W/m 2,1 C 2,9 C 17,7 km/h (3 Bft) 100,00 %
07.05.2019 03:54 5,6 C 11,7 C 5,0 C 78 % 1019,2 hPa 0,0 l/m 7,2 km/h (2 Bft) W 267 0 min 0,000 mm 0,0 UV-I 0 W/m 2,1 C 4,9 C 12,9 km/h (3 Bft) 100,00 %
07.05.2019 03:56 5,6 C 11,7 C 5,0 C 78 % 1019,2 hPa 0,0 l/m 10,7 km/h (2 Bft) W-SW 238 0 min 0,000 mm 0,0 UV-I 0 W/m 2,1 C 2,3 C 17,7 km/h (3 Bft) 97,37 %
07.05.2019 03:58 5,6 C 11,7 C 5,0 C 78 % 1019,2 hPa 0,0 l/m 6,4 km/h (2 Bft) W 261 0 min 0,000 mm 0,0 UV-I 0 W/m 2,1 C 5,6 C 9,7 km/h (2 Bft) 100,00 %
07.05.2019 04:00 5,6 C 11,7 C 5,0 C 79 % 1019,2 hPa 0,0 l/m 9,1 km/h (2 Bft) W-SW 245 0 min 0,000 mm 0,0 UV-I 0 W/m 2,3 C 3,4 C 14,5 km/h (3 Bft) 97,87 %
07.05.2019 04:02 5,5 C 11,7 C 5,0 C 79 % 1019,2 hPa 0,0 l/m 9,2 km/h (2 Bft) W-SW 255 0 min 0,026 mm 0,0 UV-I 0 W/m 2,2 C 3,2 C 12,9 km/h (3 Bft) 88,89 %
07.05.2019 04:04 5,5 C 11,7 C 5,0 C 78 % 1019,2 hPa 0,0 l/m 8,9 km/h (2 Bft) W-SW 257 0 min 0,000 mm 0,0 UV-I 0 W/m 2,0 C 3,4 C 14,5 km/h (3 Bft) 96,23 %
07.05.2019 04:06 5,5 C 11,7 C 5,0 C 78 % 1019,2 hPa 0,0 l/m 8,9 km/h (2 Bft) W-SW 258 0 min 0,000 mm 0,0 UV-I 0 W/m 2,0 C 3,4 C 12,9 km/h (3 Bft) 98,11 %
07.05.2019 04:08 5,5 C 11,7 C 5,0 C 78 % 1019,2 hPa 0,0 l/m 8,1 km/h (2 Bft) SW 236 0 min 0,000 mm 0,0 UV-I 0 W/m 2,0 C 4,0 C 16,1 km/h (3 Bft) 96,55 %
07.05.2019 04:10 5,5 C 11,7 C 5,0 C 78 % 1019,2 hPa 0,0 l/m 9,4 km/h (2 Bft) W-SW 240 0 min 0,000 mm 0,0 UV-I 0 W/m 2,0 C 3,1 C 12,9 km/h (3 Bft) 98,11 %
07.05.2019 04:12 5,5 C 11,7 C 5,0 C 78 % 1019,2 hPa 0,0 l/m 7,8 km/h (2 Bft) SW 232 0 min 0,000 mm 0,0 UV-I 0 W/m 2,0 C 4,3 C 12,9 km/h (3 Bft) 98,11 %
07.05.2019 04:14 5,5 C 11,7 C 5,0 C 78 % 1019,2 hPa 0,0 l/m 8,3 km/h (2 Bft) W-SW 240 0 min 0,000 mm 0,0 UV-I 0 W/m 2,0 C 3,9 C 12,9 km/h (3 Bft) 98,00 %
07.05.2019 04:16 5,4 C 11,7 C 5,0 C 78 % 1019,2 hPa 0,0 l/m 8,7 km/h (2 Bft) SW 225 0 min 0,000 mm 0,0 UV-I 0 W/m 1,9 C 3,5 C 14,5 km/h (3 Bft) 97,87 %
07.05.2019 04:18 5,4 C 11,7 C 5,0 C 78 % 1019,2 hPa 0,0 l/m 9,9 km/h (2 Bft) W 261 0 min 0,000 mm 0,0 UV-I 0 W/m 1,9 C 2,6 C 14,5 km/h (3 Bft) 98,00 %
07.05.2019 04:20 5,5 C 11,7 C 5,0 C 78 % 1019,2 hPa 0,0 l/m 8,6 km/h (2 Bft) W-SW 242 0 min 0,000 mm 0,0 UV-I 0 W/m 2,0 C 3,7 C 12,9 km/h (3 Bft) 97,37 %
07.05.2019 04:22 5,4 C 11,7 C 5,0 C 78 % 1019,2 hPa 0,0 l/m 7,7 km/h (2 Bft) W-SW 250 0 min 0,000 mm 0,0 UV-I 0 W/m 1,9 C 4,3 C 11,3 km/h (2 Bft) 96,23 %
07.05.2019 04:24 5,4 C 11,7 C 5,0 C 78 % 1019,2 hPa 0,0 l/m 6,7 km/h (2 Bft) W-SW 247 0 min 0,000 mm 0,0 UV-I 0 W/m 1,9 C 5,2 C 9,7 km/h (2 Bft) 97,62 %
07.05.2019 04:26 5,4 C 11,7 C 5,0 C 78 % 1019,2 hPa 0,0 l/m 9,7 km/h (2 Bft) W 276 0 min 0,000 mm 0,0 UV-I 0 W/m 1,9 C 2,7 C 14,5 km/h (3 Bft) 100,00 %
07.05.2019 04:28 5,4 C 11,7 C 5,0 C 78 % 1019,2 hPa 0,0 l/m 8,4 km/h (2 Bft) W 266 0 min 0,000 mm 0,0 UV-I 0 W/m 1,9 C 3,7 C 14,5 km/h (3 Bft) 97,22 %
07.05.2019 04:30 5,4 C 11,7 C 5,0 C 78 % 1019,2 hPa 0,0 l/m 7,4 km/h (2 Bft) W 261 0 min 0,000 mm 0,0 UV-I 0 W/m 1,9 C 4,5 C 12,9 km/h (3 Bft) 100,00 %
07.05.2019 04:32 5,4 C 11,7 C 4,4 C 78 % 1019,2 hPa 0,0 l/m 7,1 km/h (2 Bft) W 265 0 min 0,000 mm 0,0 UV-I 0 W/m 1,9 C 4,8 C 11,3 km/h (2 Bft) 100,00 %
07.05.2019 04:34 5,4 C 11,7 C 4,4 C 78 % 1019,2 hPa 0,0 l/m 8,1 km/h (2 Bft) W 263 0 min 0,000 mm 0,0 UV-I 0 W/m 1,9 C 3,9 C 11,3 km/h (2 Bft) 100,00 %
07.05.2019 04:36 5,3 C 11,7 C 4,4 C 78 % 1019,2 hPa 0,0 l/m 8,0 km/h (2 Bft) W 277 0 min 0,000 mm 0,0 UV-I 0 W/m 1,8 C 3,9 C 12,9 km/h (3 Bft) 100,00 %
07.05.2019 04:38 5,3 C 11,7 C 4,4 C 78 % 1019,2 hPa 0,0 l/m 7,3 km/h (2 Bft) W 263 0 min 0,000 mm 0,0 UV-I 0 W/m 1,8 C 4,5 C 12,9 km/h (3 Bft) 98,00 %
07.05.2019 04:40 5,3 C 11,7 C 3,9 C 79 % 1019,2 hPa 0,0 l/m 7,2 km/h (2 Bft) W-NW 294 0 min 0,000 mm 0,0 UV-I 0 W/m 2,0 C 4,6 C 11,3 km/h (2 Bft) 97,87 %
07.05.2019 04:42 5,2 C 11,7 C 3,9 C 79 % 1019,3 hPa 0,0 l/m 8,8 km/h (2 Bft) W-SW 248 0 min 0,000 mm 0,0 UV-I 0 W/m 1,9 C 3,2 C 11,3 km/h (2 Bft) 98,00 %
07.05.2019 04:44 5,2 C 11,7 C 3,9 C 79 % 1019,2 hPa 0,0 l/m 6,6 km/h (2 Bft) W 261 0 min 0,000 mm 0,0 UV-I 0 W/m 1,9 C 5,0 C 11,3 km/h (2 Bft) 100,00 %
07.05.2019 04:46 5,1 C 11,7 C 3,3 C 79 % 1019,2 hPa 0,0 l/m 6,8 km/h (2 Bft) W-SW 253 0 min 0,000 mm 0,0 UV-I 0 W/m 1,8 C 4,8 C 11,3 km/h (2 Bft) 100,00 %
07.05.2019 04:48 4,9 C 11,7 C 3,3 C 80 % 1019,2 hPa 0,0 l/m 6,4 km/h (2 Bft) W-SW 254 0 min 0,000 mm 0,0 UV-I 0 W/m 1,7 C 4,9 C 11,3 km/h (2 Bft) 100,00 %
07.05.2019 04:50 4,9 C 11,7 C 3,3 C 80 % 1019,2 hPa 0,0 l/m 6,2 km/h (2 Bft) W 265 0 min 0,000 mm 0,0 UV-I 0 W/m 1,7 C 4,9 C 11,3 km/h (2 Bft) 98,00 %
07.05.2019 04:52 4,9 C 11,7 C 3,3 C 80 % 1019,2 hPa 0,0 l/m 7,3 km/h (2 Bft) W-SW 254 0 min 0,000 mm 0,0 UV-I 0 W/m 1,7 C 4,1 C 11,3 km/h (2 Bft) 100,00 %
07.05.2019 04:54 4,9 C 11,7 C 3,3 C 80 % 1019,2 hPa 0,0 l/m 6,2 km/h (2 Bft) W 262 0 min 0,000 mm 0,0 UV-I 0 W/m 1,7 C 4,9 C 9,7 km/h (2 Bft) 98,00 %
07.05.2019 04:56 4,8 C 11,7 C 2,8 C 80 % 1019,2 hPa 0,0 l/m 6,1 km/h (2 Bft) W 269 0 min 0,000 mm 0,0 UV-I 0 W/m 1,6 C 4,8 C 11,3 km/h (2 Bft) 97,56 %
07.05.2019 04:58 4,8 C 11,7 C 3,3 C 80 % 1019,2 hPa 0,0 l/m 7,8 km/h (2 Bft) W 267 0 min 0,000 mm 0,0 UV-I 0 W/m 1,6 C 3,6 C 11,3 km/h (2 Bft) 100,00 %
07.05.2019 05:01 4,8 C 11,7 C 3,3 C 80 % 1019,2 hPa 0,0 l/m 7,9 km/h (2 Bft) W 275 0 min 0,025 mm 0,0 UV-I 0 W/m 1,6 C 3,5 C 12,9 km/h (3 Bft) 98,53 %
07.05.2019 05:02 4,9 C 11,7 C 3,3 C 80 % 1019,2 hPa 0,0 l/m 8,4 km/h (2 Bft) W-SW 254 0 min 0,000 mm 0,0 UV-I 0 W/m 1,7 C 3,2 C 9,7 km/h (2 Bft) 95,83 %
07.05.2019 05:04 4,9 C 11,7 C 3,3 C 80 % 1019,2 hPa 0,0 l/m 7,9 km/h (2 Bft) W 273 0 min 0,000 mm 0,0 UV-I 0 W/m 1,7 C 3,6 C 11,3 km/h (2 Bft) 100,00 %
07.05.2019 05:06 4,9 C 11,7 C 3,9 C 80 % 1019,2 hPa 0,0 l/m 8,0 km/h (2 Bft) W 269 0 min 0,000 mm 0,0 UV-I 0 W/m 1,7 C 3,5 C 11,3 km/h (2 Bft) 100,00 %
07.05.2019 05:08 4,9 C 11,7 C 3,9 C 80 % 1019,1 hPa 0,0 l/m 5,9 km/h (2 Bft) W 259 0 min 0,000 mm 0,0 UV-I 0 W/m 1,7 C 4,9 C 11,3 km/h (2 Bft) 100,00 %
07.05.2019 05:10 4,9 C 11,7 C 3,9 C 80 % 1019,1 hPa 0,0 l/m 5,6 km/h (1 Bft) W 262 0 min 0,000 mm 0,0 UV-I 0 W/m 1,7 C 4,9 C 9,7 km/h (2 Bft) 97,37 %
07.05.2019 05:12 4,9 C 11,7 C 3,9 C 80 % 1019,1 hPa 0,0 l/m 6,0 km/h (2 Bft) W 266 0 min 0,000 mm 0,0 UV-I 0 W/m 1,7 C 4,9 C 9,7 km/h (2 Bft) 100,00 %
07.05.2019 05:14 4,9 C 11,7 C 4,4 C 80 % 1019,1 hPa 0,0 l/m 5,8 km/h (2 Bft) W-SW 252 0 min 0,000 mm 0,0 UV-I 0 W/m 1,7 C 4,9 C 9,7 km/h (2 Bft) 100,00 %
07.05.2019 05:16 4,9 C 11,7 C 4,4 C 80 % 1019,1 hPa 0,0 l/m 5,8 km/h (2 Bft) W-SW 242 0 min 0,000 mm 0,0 UV-I 0 W/m 1,7 C 4,9 C 9,7 km/h (2 Bft) 94,34 %
07.05.2019 05:18 4,9 C 11,7 C 4,4 C 81 % 1019,1 hPa 0,0 l/m 5,4 km/h (1 Bft) W-SW 250 0 min 0,000 mm 0,0 UV-I 0 W/m 1,9 C 4,9 C 8,0 km/h (2 Bft) 98,00 %
07.05.2019 05:20 4,9 C 11,7 C 4,4 C 81 % 1019,1 hPa 0,0 l/m 5,3 km/h (1 Bft) SW 227 0 min 0,000 mm 0,0 UV-I 0 W/m 1,9 C 4,9 C 9,7 km/h (2 Bft) 91,49 %
07.05.2019 05:22 4,9 C 11,7 C 4,4 C 81 % 1019,1 hPa 0,0 l/m 4,3 km/h (1 Bft) W-SW 249 0 min 0,000 mm 0,0 UV-I 0 W/m 1,9 C 4,9 C 6,4 km/h (2 Bft) 95,12 %
07.05.2019 05:25 4,8 C 11,7 C 3,9 C 81 % 1019,1 hPa 0,0 l/m 4,6 km/h (1 Bft) W-SW 242 0 min 0,000 mm 0,0 UV-I 1 W/m 1,8 C 4,8 C 6,4 km/h (2 Bft) 96,10 %
07.05.2019 05:26 4,8 C 11,7 C 3,9 C 81 % 1019,1 hPa 0,0 l/m 4,5 km/h (1 Bft) W-SW 242 0 min 0,000 mm 0,0 UV-I 5 W/m 1,8 C 4,8 C 4,8 km/h (1 Bft) 78,57 %
07.05.2019 05:30 4,7 C 11,7 C 3,3 C 82 % 1019,1 hPa 0,0 l/m 5,1 km/h (1 Bft) W-SW 240 0 min 0,000 mm 0,0 UV-I 5 W/m 1,9 C 4,7 C 8,0 km/h (2 Bft) 92,86 %
07.05.2019 05:33 4,6 C 11,7 C 3,3 C 82 % 1019,1 hPa 0,0 l/m 6,1 km/h (2 Bft) W-SW 239 0 min 0,000 mm 0,0 UV-I 6 W/m 1,8 C 4,6 C 9,7 km/h (2 Bft) 93,90 %
07.05.2019 05:34 4,6 C 11,7 C 3,3 C 82 % 1019,1 hPa 0,0 l/m 4,8 km/h (1 Bft) W-SW 248 0 min 0,000 mm 0,0 UV-I 7 W/m 1,8 C 4,6 C 8,0 km/h (2 Bft) 100,00 %
07.05.2019 05:35 4,6 C 11,7 C 3,3 C 82 % 1019,1 hPa 0,0 l/m 6,4 km/h (2 Bft) W-SW 247 0 min 0,000 mm 0,0 UV-I 7 W/m 1,8 C 4,6 C 9,7 km/h (2 Bft) 100,00 %
07.05.2019 05:40 4,4 C 11,7 C 2,8 C 83 % 1019,1 hPa 0,0 l/m 4,8 km/h (1 Bft) SW 225 0 min 0,000 mm 0,0 UV-I 8 W/m 1,8 C 4,4 C 8,0 km/h (2 Bft) 100,00 %
07.05.2019 05:45 4,4 C 11,7 C 2,2 C 83 % 1019,1 hPa 0,0 l/m 4,8 km/h (1 Bft) SW 225 0 min 0,000 mm 0,0 UV-I 12 W/m 1,8 C 4,4 C 8,0 km/h (2 Bft) 99,12 %
07.05.2019 05:50 4,3 C 11,7 C 2,2 C 83 % 1019,1 hPa 0,0 l/m 4,8 km/h (1 Bft) SW 225 5 min 0,000 mm 0,0 UV-I 19 W/m 1,7 C 4,3 C 8,0 km/h (2 Bft) 100,00 %
07.05.2019 05:55 4,3 C 11,7 C 2,8 C 83 % 1019,1 hPa 0,0 l/m 6,4 km/h (2 Bft) SW 225 5 min 0,000 mm 0,0 UV-I 27 W/m 1,7 C 4,3 C 9,7 km/h (2 Bft) 97,37 %
07.05.2019 06:00 4,3 C 11,7 C 3,3 C 83 % 1019,1 hPa 0,0 l/m 6,4 km/h (2 Bft) SW 225 5 min 0,025 mm 0,0 UV-I 35 W/m 1,7 C 4,3 C 8,0 km/h (2 Bft) 97,37 %
07.05.2019 06:05 4,3 C 11,7 C 3,3 C 83 % 1019,1 hPa 0,0 l/m 4,8 km/h (1 Bft) SW 225 5 min 0,000 mm 0,0 UV-I 42 W/m 1,7 C 4,3 C 8,0 km/h (2 Bft) 98,25 %
07.05.2019 06:10 4,3 C 11,7 C 3,3 C 84 % 1019,1 hPa 0,0 l/m 6,4 km/h (2 Bft) SW 225 5 min 0,000 mm 0,0 UV-I 45 W/m 1,8 C 4,3 C 9,7 km/h (2 Bft) 95,61 %
07.05.2019 06:16 4,2 C 11,7 C 2,8 C 84 % 1019,1 hPa 0,0 l/m 5,3 km/h (1 Bft) SW 228 6 min 0,000 mm 0,0 UV-I 52 W/m 1,7 C 4,2 C 8,0 km/h (2 Bft) 98,49 %
07.05.2019 06:18 4,2 C 11,7 C 2,8 C 84 % 1019,1 hPa 0,0 l/m 6,5 km/h (2 Bft) SW 227 0 min 0,000 mm 0,0 UV-I 45 W/m 1,7 C 4,1 C 9,7 km/h (2 Bft) 100,00 %
07.05.2019 06:19 4,2 C 11,7 C 2,8 C 84 % 1019,2 hPa 0,0 l/m 6,5 km/h (2 Bft) SW 227 0 min 0,000 mm 0,0 UV-I 48 W/m 1,7 C 4,1 C 9,7 km/h (2 Bft) 95,65 %
07.05.2019 06:20 4,2 C 11,7 C 2,8 C 84 % 1019,2 hPa 0,0 l/m 6,4 km/h (2 Bft) SW 225 0 min 0,000 mm 0,0 UV-I 50 W/m 1,7 C 4,2 C 9,7 km/h (2 Bft) 94,74 %
07.05.2019 06:22 4,2 C 11,7 C 2,8 C 84 % 1019,2 hPa 0,0 l/m 6,4 km/h (2 Bft) SW 220 2 min 0,000 mm 0,0 UV-I 62 W/m 1,7 C 4,2 C 6,4 km/h (2 Bft) 94,44 %
07.05.2019 06:24 4,2 C 11,7 C 2,8 C 84 % 1019,2 hPa 0,0 l/m 6,2 km/h (2 Bft) SW 230 2 min 0,000 mm 0,0 UV-I 64 W/m 1,7 C 4,2 C 9,7 km/h (2 Bft) 97,44 %
07.05.2019 06:26 4,2 C 11,7 C 2,8 C 84 % 1019,2 hPa 0,0 l/m 6,5 km/h (2 Bft) S-SW 213 0 min 0,000 mm 0,0 UV-I 63 W/m 1,7 C 4,1 C 9,7 km/h (2 Bft) 98,00 %
07.05.2019 06:28 4,2 C 11,7 C 2,8 C 84 % 1019,2 hPa 0,0 l/m 5,4 km/h (1 Bft) W-SW 242 2 min 0,000 mm 0,0 UV-I 75 W/m 1,7 C 4,2 C 9,7 km/h (2 Bft) 98,00 %
07.05.2019 06:30 4,2 C 11,7 C 3,3 C 84 % 1019,3 hPa 0,0 l/m 5,7 km/h (1 Bft) SW 214 2 min 0,000 mm 0,0 UV-I 82 W/m 1,7 C 4,2 C 8,0 km/h (2 Bft) 98,00 %
07.05.2019 06:32 4,2 C 11,7 C 3,3 C 83 % 1019,4 hPa 0,0 l/m 6,6 km/h (2 Bft) SW 234 2 min 0,000 mm 0,0 UV-I 86 W/m 1,6 C 4,0 C 9,7 km/h (2 Bft) 97,37 %
07.05.2019 06:34 4,2 C 11,7 C 3,3 C 84 % 1019,3 hPa 0,0 l/m 4,8 km/h (1 Bft) SW 236 2 min 0,000 mm 0,0 UV-I 92 W/m 1,7 C 4,2 C 8,0 km/h (2 Bft) 98,21 %
07.05.2019 06:36 4,2 C 11,7 C 3,3 C 84 % 1019,3 hPa 0,0 l/m 5,8 km/h (2 Bft) W-SW 242 2 min 0,000 mm 0,0 UV-I 101 W/m 1,7 C 4,2 C 8,0 km/h (2 Bft) 94,29 %
07.05.2019 06:38 4,2 C 11,7 C 3,3 C 84 % 1019,4 hPa 0,0 l/m 7,0 km/h (2 Bft) W-SW 239 2 min 0,000 mm 0,0 UV-I 108 W/m 1,7 C 3,7 C 11,3 km/h (2 Bft) 98,11 %
07.05.2019 06:40 4,2 C 11,7 C 3,3 C 84 % 1019,4 hPa 0,0 l/m 6,5 km/h (2 Bft) W-SW 244 2 min 0,000 mm 0,0 UV-I 113 W/m 1,7 C 4,1 C 11,3 km/h (2 Bft) 93,62 %
07.05.2019 06:42 4,2 C 11,7 C 3,3 C 84 % 1019,4 hPa 0,0 l/m 5,7 km/h (1 Bft) W-SW 251 2 min 0,000 mm 0,0 UV-I 117 W/m 1,7 C 4,2 C 9,7 km/h (2 Bft) 92,00 %
07.05.2019 06:44 4,3 C 11,7 C 3,3 C 83 % 1019,4 hPa 0,0 l/m 5,3 km/h (1 Bft) SW 234 2 min 0,000 mm 0,0 UV-I 120 W/m 1,7 C 4,3 C 8,0 km/h (2 Bft) 95,12 %
07.05.2019 06:46 4,3 C 11,7 C 3,3 C 83 % 1019,4 hPa 0,0 l/m 6,5 km/h (2 Bft) SW 223 2 min 0,000 mm 0,0 UV-I 127 W/m 1,7 C 4,2 C 11,3 km/h (2 Bft) 96,23 %
07.05.2019 06:48 4,3 C 11,7 C 3,3 C 83 % 1019,4 hPa 0,0 l/m 6,6 km/h (2 Bft) W-SW 241 2 min 0,000 mm 0,0 UV-I 130 W/m 1,7 C 4,1 C 11,3 km/h (2 Bft) 95,74 %
07.05.2019 06:50 4,3 C 11,7 C 3,3 C 83 % 1019,4 hPa 0,0 l/m 8,0 km/h (2 Bft) W-SW 240 2 min 0,000 mm 0,0 UV-I 133 W/m 1,7 C 2,9 C 12,9 km/h (3 Bft) 95,12 %
07.05.2019 06:52 4,4 C 11,7 C 3,3 C 83 % 1019,4 hPa 0,0 l/m 5,3 km/h (1 Bft) SW 220 2 min 0,000 mm 0,0 UV-I 135 W/m 1,8 C 4,4 C 11,3 km/h (2 Bft) 95,74 %
07.05.2019 06:54 4,4 C 11,7 C 3,9 C 83 % 1019,4 hPa 0,0 l/m 6,7 km/h (2 Bft) S-SW 210 2 min 0,000 mm 0,0 UV-I 143 W/m 1,8 C 4,1 C 9,7 km/h (2 Bft) 95,74 %
07.05.2019 06:56 4,5 C 11,7 C 3,9 C 83 % 1019,5 hPa 0,0 l/m 7,6 km/h (2 Bft) W-SW 238 2 min 0,000 mm 0,0 UV-I 149 W/m 1,9 C 3,4 C 11,3 km/h (2 Bft) 97,73 %
07.05.2019 06:58 4,6 C 11,7 C 3,9 C 82 % 1019,4 hPa 0,0 l/m 6,0 km/h (2 Bft) SW 224 2 min 0,000 mm 0,0 UV-I 156 W/m 1,8 C 4,6 C 9,7 km/h (2 Bft) 96,00 %
07.05.2019 07:00 4,7 C 11,7 C 3,9 C 82 % 1019,4 hPa 0,0 l/m 6,6 km/h (2 Bft) SW 215 2 min 0,051 mm 0,0 UV-I 163 W/m 1,9 C 4,5 C 12,9 km/h (3 Bft) 98,00 %
07.05.2019 07:02 4,7 C 11,7 C 3,9 C 82 % 1019,4 hPa 0,0 l/m 5,4 km/h (1 Bft) W-SW 244 2 min 0,000 mm 0,0 UV-I 169 W/m 1,9 C 4,7 C 8,0 km/h (2 Bft) 95,74 %
07.05.2019 07:04 4,8 C 11,7 C 4,4 C 81 % 1019,4 hPa 0,0 l/m 6,4 km/h (2 Bft) W-SW 245 2 min 0,000 mm 0,0 UV-I 173 W/m 1,8 C 4,8 C 12,9 km/h (3 Bft) 97,78 %
07.05.2019 07:06 4,9 C 11,7 C 4,4 C 81 % 1019,5 hPa 0,0 l/m 5,2 km/h (1 Bft) W-SW 244 2 min 0,000 mm 0,0 UV-I 178 W/m 1,9 C 4,9 C 8,0 km/h (2 Bft) 100,00 %
07.05.2019 07:08 4,9 C 11,7 C 4,4 C 81 % 1019,5 hPa 0,0 l/m 5,9 km/h (2 Bft) W-SW 241 2 min 0,000 mm 0,0 UV-I 182 W/m 1,9 C 4,9 C 9,7 km/h (2 Bft) 97,87 %
07.05.2019 07:10 5,1 C 11,7 C 4,4 C 81 % 1019,4 hPa 0,0 l/m 8,0 km/h (2 Bft) W-SW 246 2 min 0,000 mm 0,0 UV-I 187 W/m 2,1 C 3,7 C 12,9 km/h (3 Bft) 100,00 %
07.05.2019 07:12 5,1 C 11,7 C 4,4 C 81 % 1019,4 hPa 0,0 l/m 6,9 km/h (2 Bft) W-SW 240 2 min 0,000 mm 0,0 UV-I 193 W/m 2,1 C 4,7 C 9,7 km/h (2 Bft) 100,00 %
07.05.2019 07:14 5,2 C 11,7 C 4,4 C 80 % 1019,4 hPa 0,0 l/m 8,5 km/h (2 Bft) W-SW 256 2 min 0,000 mm 0,0 UV-I 198 W/m 2,0 C 3,4 C 12,9 km/h (3 Bft) 100,00 %
07.05.2019 07:16 5,3 C 11,7 C 4,4 C 80 % 1019,4 hPa 0,0 l/m 10,9 km/h (2 Bft) W-SW 254 2 min 0,000 mm 0,0 UV-I 205 W/m 2,1 C 1,8 C 14,5 km/h (3 Bft) 100,00 %
07.05.2019 07:18 5,3 C 11,7 C 4,4 C 80 % 1019,4 hPa 0,0 l/m 9,1 km/h (2 Bft) W-SW 252 2 min 0,000 mm 0,0 UV-I 212 W/m 2,1 C 3,1 C 14,5 km/h (3 Bft) 97,14 %
07.05.2019 07:20 5,3 C 11,7 C 5,0 C 80 % 1019,4 hPa 0,0 l/m 9,2 km/h (2 Bft) W-SW 237 2 min 0,000 mm 0,0 UV-I 216 W/m 2,1 C 3,0 C 14,5 km/h (3 Bft) 100,00 %
07.05.2019 07:22 5,4 C 11,7 C 5,0 C 80 % 1019,4 hPa 0,0 l/m 10,9 km/h (2 Bft) W 263 2 min 0,000 mm 0,0 UV-I 221 W/m 2,2 C 1,9 C 16,1 km/h (3 Bft) 100,00 %
07.05.2019 07:24 5,5 C 11,7 C 5,0 C 79 % 1019,5 hPa 0,0 l/m 7,3 km/h (2 Bft) W-SW 237 2 min 0,000 mm 0,0 UV-I 228 W/m 2,2 C 4,7 C 11,3 km/h (2 Bft) 100,00 %
07.05.2019 07:26 5,7 C 11,7 C 5,0 C 79 % 1019,4 hPa 0,0 l/m 7,8 km/h (2 Bft) W-SW 237 2 min 0,000 mm 0,0 UV-I 232 W/m 2,3 C 4,5 C 12,9 km/h (3 Bft) 100,00 %
07.05.2019 07:28 5,7 C 11,7 C 5,6 C 79 % 1019,4 hPa 0,0 l/m 7,6 km/h (2 Bft) SW 216 2 min 0,000 mm 0,0 UV-I 236 W/m 2,3 C 4,7 C 11,3 km/h (2 Bft) 100,00 %
07.05.2019 07:30 5,8 C 11,7 C 5,6 C 79 % 1019,5 hPa 0,0 l/m 8,6 km/h (2 Bft) W-SW 257 2 min 0,000 mm 0,0 UV-I 234 W/m 2,4 C 4,0 C 14,5 km/h (3 Bft) 100,00 %
07.05.2019 07:32 5,9 C 11,7 C 5,6 C 79 % 1019,5 hPa 0,0 l/m 10,7 km/h (2 Bft) W 269 2 min 0,000 mm 0,0 UV-I 239 W/m 2,5 C 2,6 C 12,9 km/h (3 Bft) 100,00 %
07.05.2019 07:34 6,1 C 11,7 C 5,6 C 78 % 1019,5 hPa 0,0 l/m 6,9 km/h (2 Bft) W 280 2 min 0,000 mm 0,0 UV-I 247 W/m 2,6 C 5,7 C 11,3 km/h (2 Bft) 100,00 %
07.05.2019 07:36 6,1 C 11,7 C 5,6 C 77 % 1019,5 hPa 0,0 l/m 9,4 km/h (2 Bft) W 265 2 min 0,000 mm 0,0 UV-I 258 W/m 2,4 C 3,7 C 14,5 km/h (3 Bft) 97,87 %
07.05.2019 07:38 6,2 C 11,7 C 6,1 C 77 % 1019,5 hPa 0,0 l/m 10,7 km/h (2 Bft) SW 228 2 min 0,000 mm 0,0 UV-I 264 W/m 2,5 C 2,9 C 16,1 km/h (3 Bft) 97,44 %
07.05.2019 07:40 6,2 C 11,7 C 6,1 C 76 % 1019,5 hPa 0,0 l/m 9,8 km/h (2 Bft) W 261 2 min 0,000 mm 0,0 UV-I 260 W/m 2,3 C 3,5 C 14,5 km/h (3 Bft) 97,37 %
07.05.2019 07:42 6,2 C 11,7 C 6,1 C 76 % 1019,5 hPa 0,0 l/m 7,9 km/h (2 Bft) W 280 2 min 0,000 mm 0,0 UV-I 258 W/m 2,3 C 4,9 C 14,5 km/h (3 Bft) 96,77 %
07.05.2019 07:44 6,3 C 11,7 C 6,1 C 75 % 1019,5 hPa 0,0 l/m 10,5 km/h (2 Bft) W 277 2 min 0,000 mm 0,0 UV-I 269 W/m 2,2 C 3,2 C 14,5 km/h (3 Bft) 95,12 %
07.05.2019 07:46 6,3 C 11,7 C 6,1 C 76 % 1019,5 hPa 0,0 l/m 9,3 km/h (2 Bft) W 259 2 min 0,000 mm 0,4 UV-I 289 W/m 2,4 C 4,0 C 14,5 km/h (3 Bft) 95,74 %
07.05.2019 07:48 6,4 C 11,7 C 6,1 C 75 % 1019,5 hPa 0,0 l/m 8,3 km/h (2 Bft) W 261 2 min 0,000 mm 0,5 UV-I 295 W/m 2,3 C 4,8 C 11,3 km/h (2 Bft) 96,43 %
07.05.2019 07:50 6,5 C 11,7 C 6,7 C 75 % 1019,5 hPa 0,0 l/m 5,9 km/h (2 Bft) W 271 2 min 0,000 mm 0,5 UV-I 304 W/m 2,4 C 6,5 C 12,9 km/h (3 Bft) 94,29 %
07.05.2019 07:52 6,6 C 11,7 C 6,7 C 75 % 1019,5 hPa 0,0 l/m 5,6 km/h (1 Bft) SW 229 2 min 0,000 mm 0,5 UV-I 311 W/m 2,5 C 6,6 C 11,3 km/h (2 Bft) 95,45 %
07.05.2019 07:54 6,7 C 11,7 C 6,7 C 74 % 1019,5 hPa 0,0 l/m 7,4 km/h (2 Bft) W-SW 256 2 min 0,000 mm 0,5 UV-I 315 W/m 2,4 C 5,9 C 12,9 km/h (3 Bft) 94,34 %
07.05.2019 07:56 6,8 C 11,7 C 6,7 C 75 % 1019,5 hPa 0,0 l/m 5,6 km/h (1 Bft) W-SW 241 2 min 0,000 mm 0,5 UV-I 309 W/m 2,7 C 6,8 C 9,7 km/h (2 Bft) 96,00 %
07.05.2019 07:58 6,8 C 11,7 C 6,7 C 74 % 1019,5 hPa 0,0 l/m 10,7 km/h (2 Bft) W-SW 256 2 min 0,000 mm 0,5 UV-I 322 W/m 2,5 C 3,6 C 14,5 km/h (3 Bft) 97,56 %
07.05.2019 08:00 6,9 C 11,7 C 7,2 C 74 % 1019,5 hPa 0,0 l/m 9,9 km/h (2 Bft) W 269 2 min 0,127 mm 0,6 UV-I 306 W/m 2,6 C 4,2 C 12,9 km/h (3 Bft) 96,00 %
07.05.2019 08:02 6,9 C 11,7 C 7,2 C 73 % 1019,6 hPa 0,0 l/m 7,3 km/h (2 Bft) SW 227 2 min 0,000 mm 0,6 UV-I 306 W/m 2,4 C 6,2 C 11,3 km/h (2 Bft) 93,62 %
07.05.2019 08:04 6,9 C 11,7 C 7,2 C 74 % 1019,6 hPa 0,0 l/m 4,7 km/h (1 Bft) W-NW 298 2 min 0,000 mm 0,6 UV-I 344 W/m 2,6 C 6,9 C 8,0 km/h (2 Bft) 94,00 %
07.05.2019 08:06 7,1 C 11,7 C 7,2 C 74 % 1019,5 hPa 0,0 l/m 3,9 km/h (1 Bft) SW 236 2 min 0,000 mm 0,6 UV-I 351 W/m 2,8 C 7,1 C 8,0 km/h (2 Bft) 96,00 %
07.05.2019 08:08 7,2 C 11,7 C 7,2 C 73 % 1019,6 hPa 0,0 l/m 6,5 km/h (2 Bft) W-SW 247 2 min 0,000 mm 0,6 UV-I 364 W/m 2,7 C 7,1 C 11,3 km/h (2 Bft) 100,00 %
07.05.2019 08:10 7,3 C 11,7 C 7,2 C 72 % 1019,6 hPa 0,0 l/m 11,3 km/h (2 Bft) W-SW 257 2 min 0,000 mm 0,7 UV-I 366 W/m 2,6 C 3,8 C 17,7 km/h (3 Bft) 100,00 %
07.05.2019 08:12 7,2 C 11,7 C 7,2 C 71 % 1019,6 hPa 0,0 l/m 6,7 km/h (2 Bft) W 275 2 min 0,000 mm 0,7 UV-I 358 W/m 2,3 C 7,0 C 12,9 km/h (3 Bft) 100,00 %
07.05.2019 08:14 7,2 C 11,7 C 7,2 C 72 % 1019,6 hPa 0,0 l/m 7,8 km/h (2 Bft) W-NW 282 2 min 0,000 mm 0,7 UV-I 362 W/m 2,5 C 6,1 C 14,5 km/h (3 Bft) 98,00 %
07.05.2019 08:16 7,2 C 11,7 C 7,2 C 72 % 1019,6 hPa 0,0 l/m 8,5 km/h (2 Bft) SW 223 2 min 0,000 mm 0,7 UV-I 376 W/m 2,5 C 5,5 C 12,9 km/h (3 Bft) 97,44 %
07.05.2019 08:18 7,3 C 11,7 C 7,2 C 72 % 1019,6 hPa 0,0 l/m 8,6 km/h (2 Bft) W 263 2 min 0,000 mm 0,7 UV-I 380 W/m 2,6 C 5,6 C 14,5 km/h (3 Bft) 100,00 %
07.05.2019 08:20 7,3 C 11,7 C 7,8 C 73 % 1019,6 hPa 0,0 l/m 7,5 km/h (2 Bft) W-SW 252 2 min 0,000 mm 0,7 UV-I 392 W/m 2,8 C 6,4 C 14,5 km/h (3 Bft) 100,00 %
07.05.2019 08:22 7,3 C 11,7 C 7,8 C 71 % 1019,6 hPa 0,0 l/m 11,1 km/h (2 Bft) W-SW 250 2 min 0,000 mm 0,8 UV-I 396 W/m 2,4 C 3,9 C 16,1 km/h (3 Bft) 100,00 %
07.05.2019 08:24 7,3 C 11,7 C 7,8 C 72 % 1019,6 hPa 0,0 l/m 10,9 km/h (2 Bft) W-NW 284 2 min 0,000 mm 0,8 UV-I 404 W/m 2,6 C 4,0 C 16,1 km/h (3 Bft) 100,00 %
07.05.2019 08:26 7,2 C 11,7 C 7,8 C 72 % 1019,6 hPa 0,0 l/m 6,3 km/h (2 Bft) W-SW 240 2 min 0,000 mm 0,8 UV-I 411 W/m 2,5 C 7,2 C 12,9 km/h (3 Bft) 100,00 %
07.05.2019 08:28 7,4 C 11,7 C 7,8 C 72 % 1019,6 hPa 0,0 l/m 4,4 km/h (1 Bft) W 267 2 min 0,000 mm 0,8 UV-I 412 W/m 2,7 C 7,4 C 9,7 km/h (2 Bft) 100,00 %
07.05.2019 08:30 7,4 C 11,7 C 7,8 C 72 % 1019,7 hPa 0,0 l/m 5,5 km/h (1 Bft) W 271 2 min 0,000 mm 0,9 UV-I 420 W/m 2,7 C 7,4 C 9,7 km/h (2 Bft) 100,00 %
07.05.2019 08:32 7,5 C 11,7 C 7,8 C 72 % 1019,6 hPa 0,0 l/m 4,6 km/h (1 Bft) NW 306 2 min 0,000 mm 0,9 UV-I 426 W/m 2,8 C 7,5 C 8,0 km/h (2 Bft) 100,00 %
07.05.2019 08:34 7,7 C 11,7 C 8,3 C 73 % 1019,6 hPa 0,0 l/m 4,7 km/h (1 Bft) W 280 2 min 0,000 mm 0,9 UV-I 426 W/m 3,2 C 7,7 C 6,4 km/h (2 Bft) 100,00 %
07.05.2019 08:36 7,7 C 11,7 C 8,3 C 72 % 1019,6 hPa 0,0 l/m 5,0 km/h (1 Bft) NW 304 2 min 0,000 mm 0,9 UV-I 406 W/m 3,0 C 7,7 C 11,3 km/h (2 Bft) 100,00 %
07.05.2019 08:38 7,8 C 11,7 C 8,3 C 72 % 1019,7 hPa 0,0 l/m 2,7 km/h (1 Bft) W-NW 294 2 min 0,000 mm 0,9 UV-I 440 W/m 3,1 C 7,8 C 9,7 km/h (2 Bft) 100,00 %
07.05.2019 08:40 7,9 C 11,7 C 8,9 C 72 % 1019,5 hPa 0,0 l/m 5,1 km/h (1 Bft) SW 236 2 min 0,000 mm 1,0 UV-I 453 W/m 3,2 C 7,9 C 11,3 km/h (2 Bft) 100,00 %
07.05.2019 08:42 7,9 C 11,7 C 9,4 C 70 % 1019,6 hPa 0,0 l/m 11,7 km/h (2 Bft) W 281 2 min 0,000 mm 1,0 UV-I 463 W/m 2,8 C 4,3 C 19,3 km/h (3 Bft) 97,87 %
07.05.2019 08:44 7,8 C 11,7 C 10,0 C 71 % 1019,6 hPa 0,0 l/m 7,5 km/h (2 Bft) SW 218 2 min 0,000 mm 1,0 UV-I 462 W/m 2,9 C 6,9 C 14,5 km/h (3 Bft) 96,00 %
07.05.2019 08:46 7,9 C 11,7 C 11,1 C 71 % 1019,6 hPa 0,0 l/m 6,7 km/h (2 Bft) SW 236 2 min 0,000 mm 1,0 UV-I 443 W/m 3,0 C 7,7 C 12,9 km/h (3 Bft) 97,73 %
07.05.2019 08:48 7,9 C 11,7 C 12,2 C 70 % 1019,6 hPa 0,0 l/m 6,6 km/h (2 Bft) N-NW 327 2 min 0,000 mm 1,1 UV-I 479 W/m 2,8 C 7,8 C 12,9 km/h (3 Bft) 98,21 %
07.05.2019 08:50 8,1 C 11,7 C 14,4 C 71 % 1019,6 hPa 0,0 l/m 7,1 km/h (2 Bft) W 279 2 min 0,000 mm 1,1 UV-I 510 W/m 3,2 C 7,6 C 12,9 km/h (3 Bft) 97,37 %
07.05.2019 08:52 8,1 C 11,7 C 15,6 C 69 % 1019,6 hPa 0,0 l/m 7,7 km/h (2 Bft) W 274 2 min 0,000 mm 1,1 UV-I 516 W/m 2,8 C 7,1 C 12,9 km/h (3 Bft) 97,83 %
07.05.2019 08:54 8,0 C 11,7 C 15,6 C 69 % 1019,6 hPa 0,0 l/m 6,3 km/h (2 Bft) W 271 2 min 0,000 mm 1,1 UV-I 482 W/m 2,7 C 8,0 C 11,3 km/h (2 Bft) 97,87 %
07.05.2019 08:56 8,0 C 11,7 C 15,6 C 70 % 1019,6 hPa 0,0 l/m 9,8 km/h (2 Bft) W-NW 294 2 min 0,000 mm 1,1 UV-I 431 W/m 2,9 C 5,5 C 16,1 km/h (3 Bft) 97,92 %
07.05.2019 08:58 8,0 C 11,7 C 15,0 C 70 % 1019,6 hPa 0,0 l/m 12,8 km/h (3 Bft) W 259 2 min 0,000 mm 1,1 UV-I 396 W/m 2,9 C 3,8 C 16,1 km/h (3 Bft) 97,56 %
07.05.2019 09:00 8,0 C 11,7 C 14,4 C 69 % 1019,6 hPa 0,0 l/m 12,8 km/h (3 Bft) W 277 2 min 0,203 mm 1,0 UV-I 397 W/m 2,7 C 3,8 C 17,7 km/h (3 Bft) 96,43 %
07.05.2019 09:02 8,1 C 11,7 C 13,9 C 69 % 1019,6 hPa 0,0 l/m 7,7 km/h (2 Bft) W 275 2 min 0,000 mm 1,0 UV-I 378 W/m 2,8 C 7,1 C 12,9 km/h (3 Bft) 95,45 %
07.05.2019 09:04 8,2 C 11,7 C 13,9 C 69 % 1019,6 hPa 0,0 l/m 8,7 km/h (2 Bft) W 267 2 min 0,000 mm 1,0 UV-I 322 W/m 2,9 C 6,5 C 14,5 km/h (3 Bft) 96,00 %
07.05.2019 09:06 8,2 C 11,7 C 13,3 C 69 % 1019,5 hPa 0,0 l/m 9,5 km/h (2 Bft) W 268 2 min 0,000 mm 1,0 UV-I 311 W/m 2,9 C 5,9 C 14,5 km/h (3 Bft) 95,12 %
07.05.2019 09:08 8,2 C 11,7 C 13,3 C 70 % 1019,6 hPa 0,0 l/m 8,1 km/h (2 Bft) W 263 2 min 0,000 mm 1,0 UV-I 320 W/m 3,1 C 6,9 C 12,9 km/h (3 Bft) 93,62 %
07.05.2019 09:10 8,2 C 11,7 C 13,3 C 67 % 1019,6 hPa 0,0 l/m 8,4 km/h (2 Bft) W-NW 296 2 min 0,000 mm 1,1 UV-I 338 W/m 2,4 C 6,7 C 14,5 km/h (3 Bft) 95,74 %
07.05.2019 09:12 8,2 C 11,7 C 13,9 C 66 % 1019,5 hPa 0,0 l/m 9,3 km/h (2 Bft) N-NW 345 2 min 0,000 mm 1,1 UV-I 347 W/m 2,2 C 6,1 C 14,5 km/h (3 Bft) 96,00 %
07.05.2019 09:14 8,3 C 11,7 C 13,9 C 67 % 1019,5 hPa 0,0 l/m 8,3 km/h (2 Bft) W 265 2 min 0,000 mm 1,1 UV-I 380 W/m 2,5 C 6,9 C 14,5 km/h (3 Bft) 95,12 %
07.05.2019 09:16 8,3 C 11,7 C 14,4 C 67 % 1019,5 hPa 0,0 l/m 9,7 km/h (2 Bft) W-SW 253 2 min 0,000 mm 1,2 UV-I 396 W/m 2,5 C 5,9 C 16,1 km/h (3 Bft) 98,04 %
07.05.2019 09:18 8,4 C 11,7 C 15,6 C 66 % 1019,5 hPa 0,0 l/m 10,6 km/h (2 Bft) W-NW 288 2 min 0,000 mm 1,3 UV-I 440 W/m 2,4 C 5,5 C 14,5 km/h (3 Bft) 98,00 %
07.05.2019 09:20 8,6 C 11,7 C 16,7 C 67 % 1019,5 hPa 0,0 l/m 4,8 km/h (1 Bft) W-SW 254 2 min 0,000 mm 1,5 UV-I 515 W/m 2,8 C 8,6 C 11,3 km/h (2 Bft) 95,45 %
07.05.2019 09:22 8,8 C 11,7 C 17,2 C 66 % 1019,5 hPa 0,0 l/m 8,0 km/h (2 Bft) W-NW 282 2 min 0,000 mm 1,3 UV-I 503 W/m 2,8 C 7,6 C 14,5 km/h (3 Bft) 97,56 %
07.05.2019 09:24 8,8 C 11,7 C 17,8 C 65 % 1019,5 hPa 0,0 l/m 6,6 km/h (2 Bft) W 275 2 min 0,000 mm 1,4 UV-I 499 W/m 2,6 C 8,7 C 12,9 km/h (3 Bft) 98,21 %
07.05.2019 09:26 8,7 C 11,7 C 16,7 C 65 % 1019,5 hPa 0,0 l/m 4,1 km/h (1 Bft) N-NW 334 2 min 0,000 mm 1,3 UV-I 446 W/m 2,5 C 8,7 C 11,3 km/h (2 Bft) 95,12 %
07.05.2019 09:28 8,8 C 11,7 C 16,7 C 66 % 1019,5 hPa 0,0 l/m 6,6 km/h (2 Bft) N-NW 338 2 min 0,000 mm 1,3 UV-I 390 W/m 2,8 C 8,7 C 12,9 km/h (3 Bft) 97,87 %
07.05.2019 09:30 8,9 C 11,7 C 16,1 C 65 % 1019,5 hPa 0,0 l/m 5,3 km/h (1 Bft) NW 311 2 min 0,000 mm 1,3 UV-I 371 W/m 2,7 C 8,9 C 12,9 km/h (3 Bft) 97,96 %
07.05.2019 09:32 8,9 C 11,7 C 15,6 C 65 % 1019,5 hPa 0,0 l/m 11,1 km/h (2 Bft) W 259 2 min 0,000 mm 1,3 UV-I 365 W/m 2,7 C 5,7 C 19,3 km/h (3 Bft) 98,11 %
07.05.2019 09:34 8,8 C 11,7 C 14,4 C 64 % 1019,5 hPa 0,0 l/m 10,9 km/h (2 Bft) W-SW 257 2 min 0,000 mm 1,3 UV-I 339 W/m 2,4 C 5,7 C 16,1 km/h (3 Bft) 97,62 %
07.05.2019 09:36 8,7 C 11,7 C 13,9 C 64 % 1019,5 hPa 0,0 l/m 7,0 km/h (2 Bft) W 280 0 min 0,000 mm 1,3 UV-I 329 W/m 2,3 C 8,2 C 12,9 km/h (3 Bft) 96,00 %
07.05.2019 09:38 8,6 C 11,7 C 14,4 C 66 % 1019,5 hPa 0,0 l/m 5,2 km/h (1 Bft) W-SW 255 2 min 0,000 mm 1,3 UV-I 353 W/m 2,6 C 8,6 C 14,5 km/h (3 Bft) 96,00 %
07.05.2019 09:40 8,6 C 11,7 C 15,0 C 65 % 1019,4 hPa 0,0 l/m 9,0 km/h (2 Bft) NW 312 2 min 0,000 mm 1,5 UV-I 375 W/m 2,4 C 6,7 C 12,9 km/h (3 Bft) 94,29 %
07.05.2019 09:42 8,6 C 11,7 C 16,1 C 66 % 1019,5 hPa 0,0 l/m 7,8 km/h (2 Bft) NW 314 2 min 0,000 mm 1,7 UV-I 488 W/m 2,6 C 7,5 C 12,9 km/h (3 Bft) 98,00 %
07.05.2019 09:44 8,7 C 11,7 C 18,3 C 65 % 1019,5 hPa 0,0 l/m 5,0 km/h (1 Bft) W 270 2 min 0,000 mm 1,7 UV-I 585 W/m 2,5 C 8,7 C 8,0 km/h (2 Bft) 97,87 %
07.05.2019 09:46 8,9 C 11,7 C 19,4 C 65 % 1019,5 hPa 0,0 l/m 6,8 km/h (2 Bft) W-NW 299 2 min 0,000 mm 1,8 UV-I 585 W/m 2,7 C 8,6 C 12,9 km/h (3 Bft) 95,74 %
07.05.2019 09:48 9,1 C 11,7 C 20,6 C 63 % 1019,5 hPa 0,0 l/m 10,5 km/h (2 Bft) W-SW 245 2 min 0,000 mm 1,9 UV-I 671 W/m 2,4 C 6,3 C 17,7 km/h (3 Bft) 98,11 %
07.05.2019 09:50 9,1 C 11,7 C 20,6 C 63 % 1019,5 hPa 0,0 l/m 6,6 km/h (2 Bft) W-NW 289 2 min 0,000 mm 1,9 UV-I 672 W/m 2,4 C 9,0 C 11,3 km/h (2 Bft) 95,74 %
07.05.2019 09:52 9,2 C 11,7 C 21,1 C 63 % 1019,5 hPa 0,0 l/m 13,6 km/h (3 Bft) W-NW 300 2 min 0,000 mm 2,0 UV-I 656 W/m 2,5 C 4,8 C 16,1 km/h (3 Bft) 98,00 %
07.05.2019 09:54 9,2 C 11,7 C 21,7 C 63 % 1019,4 hPa 0,0 l/m 7,4 km/h (2 Bft) W 277 2 min 0,000 mm 2,0 UV-I 664 W/m 2,5 C 8,4 C 14,5 km/h (3 Bft) 97,14 %
07.05.2019 09:56 9,4 C 11,7 C 22,2 C 63 % 1019,5 hPa 0,0 l/m 12,1 km/h (2 Bft) W 265 2 min 0,000 mm 2,1 UV-I 669 W/m 2,7 C 5,8 C 17,7 km/h (3 Bft) 95,74 %
07.05.2019 09:58 9,4 C 11,7 C 22,8 C 62 % 1019,4 hPa 0,0 l/m 9,9 km/h (2 Bft) W-SW 248 2 min 0,000 mm 2,1 UV-I 677 W/m 2,5 C 7,0 C 14,5 km/h (3 Bft) 98,11 %
07.05.2019 10:00 9,3 C 11,7 C 22,2 C 61 % 1019,4 hPa 0,0 l/m 14,5 km/h (3 Bft) W 269 2 min 0,229 mm 2,1 UV-I 687 W/m 2,2 C 4,5 C 17,7 km/h (3 Bft) 97,37 %
07.05.2019 10:02 9,4 C 11,7 C 22,2 C 61 % 1019,4 hPa 0,0 l/m 12,8 km/h (3 Bft) W 261 2 min 0,000 mm 2,1 UV-I 681 W/m 2,3 C 5,4 C 17,7 km/h (3 Bft) 96,43 %
07.05.2019 10:04 9,4 C 11,7 C 22,2 C 62 % 1019,4 hPa 0,0 l/m 8,1 km/h (2 Bft) W-SW 252 2 min 0,000 mm 2,2 UV-I 685 W/m 2,5 C 8,2 C 12,9 km/h (3 Bft) 100,00 %
07.05.2019 10:06 9,5 C 11,7 C 22,2 C 60 % 1019,4 hPa 0,0 l/m 6,2 km/h (2 Bft) W-NW 293 2 min 0,000 mm 2,2 UV-I 709 W/m 2,1 C 9,5 C 11,3 km/h (2 Bft) 98,00 %
07.05.2019 10:08 9,8 C 11,7 C 23,3 C 61 % 1019,4 hPa 0,0 l/m 8,1 km/h (2 Bft) W-SW 249 2 min 0,000 mm 2,2 UV-I 716 W/m 2,6 C 8,6 C 16,1 km/h (3 Bft) 100,00 %
07.05.2019 10:10 9,7 C 11,7 C 23,3 C 59 % 1019,4 hPa 0,0 l/m 9,9 km/h (2 Bft) N 5 2 min 0,000 mm 2,2 UV-I 715 W/m 2,1 C 7,3 C 14,5 km/h (3 Bft) 100,00 %
07.05.2019 10:12 9,7 C 11,7 C 22,8 C 61 % 1019,4 hPa 0,0 l/m 7,6 km/h (2 Bft) N-NW 336 2 min 0,000 mm 2,2 UV-I 731 W/m 2,5 C 8,8 C 12,9 km/h (3 Bft) 100,00 %
07.05.2019 10:14 9,6 C 11,7 C 23,9 C 61 % 1019,4 hPa 0,0 l/m 7,5 km/h (2 Bft) NW 309 2 min 0,000 mm 2,3 UV-I 776 W/m 2,5 C 8,8 C 12,9 km/h (3 Bft) 100,00 %
07.05.2019 10:16 9,8 C 11,7 C 23,9 C 64 % 1019,3 hPa 0,0 l/m 8,7 km/h (2 Bft) NW 324 2 min 0,000 mm 2,3 UV-I 809 W/m 3,3 C 8,2 C 14,5 km/h (3 Bft) 100,00 %
07.05.2019 10:18 10,1 C 11,7 C 23,9 C 62 % 1019,3 hPa 0,0 l/m 7,7 km/h (2 Bft) N-NW 340 2 min 0,000 mm 2,0 UV-I 810 W/m 3,2 C 9,2 C 16,1 km/h (3 Bft) 98,11 %
07.05.2019 10:20 10,0 C 11,7 C 22,2 C 59 % 1019,3 hPa 0,0 l/m 8,4 km/h (2 Bft) N-NW 341 2 min 0,000 mm 1,8 UV-I 805 W/m 2,4 C 8,6 C 12,9 km/h (3 Bft) 100,00 %
07.05.2019 10:22 9,8 C 11,7 C 18,9 C 60 % 1019,3 hPa 0,0 l/m 9,7 km/h (2 Bft) W-SW 257 0 min 0,000 mm 1,4 UV-I 258 W/m 2,4 C 7,6 C 12,9 km/h (3 Bft) 100,00 %
07.05.2019 10:24 9,7 C 11,7 C 16,7 C 59 % 1019,3 hPa 0,0 l/m 13,2 km/h (3 Bft) W 265 0 min 0,000 mm 1,5 UV-I 229 W/m 2,1 C 5,6 C 19,3 km/h (3 Bft) 98,11 %
07.05.2019 10:26 9,4 C 11,7 C 16,7 C 57 % 1019,3 hPa 0,0 l/m 8,0 km/h (2 Bft) W-SW 239 0 min 0,000 mm 2,0 UV-I 300 W/m 1,3 C 8,2 C 14,5 km/h (3 Bft) 98,11 %
07.05.2019 10:28 9,5 C 11,7 C 17,8 C 58 % 1019,2 hPa 0,0 l/m 8,1 km/h (2 Bft) SW 235 0 min 0,000 mm 2,2 UV-I 367 W/m 1,7 C 8,3 C 12,9 km/h (3 Bft) 95,12 %
07.05.2019 10:30 9,5 C 11,7 C 17,2 C 57 % 1019,2 hPa 0,0 l/m 13,1 km/h (3 Bft) SW 236 0 min 0,000 mm 1,9 UV-I 367 W/m 1,4 C 5,4 C 19,3 km/h (3 Bft) 98,00 %
07.05.2019 10:32 9,6 C 11,7 C 18,3 C 57 % 1019,2 hPa 0,0 l/m 8,5 km/h (2 Bft) SW 223 0 min 0,000 mm 2,2 UV-I 367 W/m 1,5 C 8,1 C 17,7 km/h (3 Bft) 95,45 %
07.05.2019 10:34 9,7 C 11,7 C 19,4 C 58 % 1019,2 hPa 0,0 l/m 5,9 km/h (2 Bft) W 272 0 min 0,000 mm 2,2 UV-I 377 W/m 1,8 C 9,7 C 12,9 km/h (3 Bft) 96,00 %
07.05.2019 10:36 9,7 C 11,7 C 18,9 C 57 % 1019,2 hPa 0,0 l/m 8,6 km/h (2 Bft) W-SW 250 2 min 0,000 mm 2,1 UV-I 785 W/m 1,6 C 8,1 C 14,5 km/h (3 Bft) 97,56 %
07.05.2019 10:38 9,7 C 11,7 C 18,9 C 58 % 1019,2 hPa 0,0 l/m 5,6 km/h (1 Bft) W 279 2 min 0,000 mm 2,0 UV-I 777 W/m 1,8 C 9,7 C 11,3 km/h (2 Bft) 97,87 %
07.05.2019 10:40 9,8 C 11,7 C 21,1 C 59 % 1019,2 hPa 0,0 l/m 3,1 km/h (1 Bft) N-NO 16 2 min 0,000 mm 2,5 UV-I 783 W/m 2,2 C 9,8 C 4,8 km/h (1 Bft) 96,00 %
07.05.2019 10:42 10,2 C 11,7 C 22,8 C 58 % 1019,2 hPa 0,0 l/m 6,0 km/h (2 Bft) W 264 2 min 0,000 mm 2,8 UV-I 820 W/m 2,3 C 10,2 C 11,3 km/h (2 Bft) 98,00 %
07.05.2019 10:44 10,5 C 11,7 C 24,4 C 59 % 1019,2 hPa 0,0 l/m 3,7 km/h (1 Bft) W 273 2 min 0,000 mm 2,9 UV-I 851 W/m 2,8 C 10,5 C 9,7 km/h (2 Bft) 98,00 %
07.05.2019 10:46 10,7 C 11,7 C 25,6 C 56 % 1019,1 hPa 0,0 l/m 5,0 km/h (1 Bft) W 261 2 min 0,000 mm 2,9 UV-I 862 W/m 2,3 C 10,7 C 12,9 km/h (3 Bft) 97,87 %
07.05.2019 10:48 10,8 C 11,7 C 25,6 C 55 % 1019,2 hPa 0,0 l/m 5,3 km/h (1 Bft) W-NW 297 2 min 0,000 mm 2,8 UV-I 873 W/m 2,1 C 10,8 C 11,3 km/h (2 Bft) 100,00 %
07.05.2019 10:50 10,6 C 11,7 C 22,2 C 53 % 1019,2 hPa 0,0 l/m 7,6 km/h (2 Bft) W-SW 250 0 min 0,000 mm 1,9 UV-I 398 W/m 1,4 C 9,8 C 17,7 km/h (3 Bft) 100,00 %
07.05.2019 10:52 10,5 C 11,7 C 22,8 C 54 % 1019,1 hPa 0,0 l/m 11,3 km/h (2 Bft) W-SW 253 2 min 0,000 mm 2,8 UV-I 610 W/m 1,6 C 7,4 C 16,1 km/h (3 Bft) 98,21 %
07.05.2019 10:54 10,7 C 11,7 C 23,9 C 54 % 1019,1 hPa 0,0 l/m 10,1 km/h (2 Bft) W-SW 252 2 min 0,000 mm 2,8 UV-I 989 W/m 1,8 C 8,3 C 22,5 km/h (4 Bft) 100,00 %
07.05.2019 10:56 10,7 C 11,7 C 22,2 C 52 % 1019,1 hPa 0,0 l/m 8,8 km/h (2 Bft) W 265 2 min 0,000 mm 2,1 UV-I 990 W/m 1,3 C 9,1 C 12,9 km/h (3 Bft) 97,37 %
07.05.2019 10:58 10,6 C 11,7 C 21,1 C 52 % 1019,1 hPa 0,0 l/m 13,0 km/h (3 Bft) W 263 2 min 0,000 mm 2,7 UV-I 691 W/m 1,2 C 6,7 C 29,0 km/h (5 Bft) 97,87 %
07.05.2019 11:00 10,4 C 11,7 C 18,9 C 53 % 1019,1 hPa 0,0 l/m 8,3 km/h (2 Bft) N-NW 336 2 min 0,330 mm 2,0 UV-I 450 W/m 1,2 C 9,1 C 19,3 km/h (3 Bft) 100,00 %
07.05.2019 11:02 10,3 C 11,7 C 18,3 C 57 % 1019,0 hPa 0,0 l/m 5,9 km/h (2 Bft) W-NW 303 0 min 0,000 mm 2,1 UV-I 322 W/m 2,2 C 10,3 C 14,5 km/h (3 Bft) 98,21 %
07.05.2019 11:04 10,4 C 11,7 C 19,4 C 56 % 1019,0 hPa 0,0 l/m 6,4 km/h (2 Bft) NW 319 2 min 0,000 mm 2,6 UV-I 869 W/m 2,0 C 10,4 C 12,9 km/h (3 Bft) 100,00 %
07.05.2019 11:06 10,3 C 11,7 C 19,4 C 54 % 1019,1 hPa 0,0 l/m 4,9 km/h (1 Bft) W 264 2 min 0,000 mm 2,4 UV-I 914 W/m 1,4 C 10,3 C 8,0 km/h (2 Bft) 100,00 %
07.05.2019 11:08 10,3 C 11,7 C 18,9 C 54 % 1019,1 hPa 0,0 l/m 9,8 km/h (2 Bft) W-SW 238 2 min 0,000 mm 2,3 UV-I 914 W/m 1,4 C 8,0 C 16,1 km/h (3 Bft) 98,00 %
07.05.2019 11:10 10,2 C 11,7 C 17,8 C 54 % 1019,0 hPa 0,0 l/m 11,2 km/h (2 Bft) W-NW 284 0 min 0,000 mm 2,2 UV-I 385 W/m 1,3 C 7,2 C 16,1 km/h (3 Bft) 100,00 %
07.05.2019 11:12 10,2 C 11,7 C 20,0 C 55 % 1019,0 hPa 0,0 l/m 11,6 km/h (2 Bft) W-SW 254 2 min 0,000 mm 3,3 UV-I 710 W/m 1,6 C 6,9 C 17,7 km/h (3 Bft) 98,11 %
07.05.2019 11:14 10,4 C 11,7 C 22,2 C 54 % 1019,0 hPa 0,0 l/m 12,8 km/h (3 Bft) SW 227 2 min 0,000 mm 3,3 UV-I 900 W/m 1,5 C 6,6 C 20,9 km/h (4 Bft) 97,87 %
07.05.2019 11:16 10,6 C 11,7 C 23,9 C 53 % 1019,0 hPa 0,0 l/m 11,0 km/h (2 Bft) W-SW 243 2 min 0,000 mm 3,4 UV-I 952 W/m 1,4 C 7,7 C 16,1 km/h (3 Bft) 97,73 %
07.05.2019 11:18 10,7 C 11,7 C 24,4 C 51 % 1018,9 hPa 0,0 l/m 7,9 km/h (2 Bft) W-NW 299 2 min 0,000 mm 3,2 UV-I 978 W/m 1,0 C 9,7 C 16,1 km/h (3 Bft) 98,00 %
07.05.2019 11:20 10,6 C 11,7 C 23,9 C 52 % 1019,0 hPa 0,0 l/m 4,6 km/h (1 Bft) S 186 2 min 0,000 mm 2,5 UV-I 984 W/m 1,2 C 10,6 C 6,4 km/h (2 Bft) 98,00 %
07.05.2019 11:22 10,4 C 11,7 C 21,7 C 52 % 1018,9 hPa 0,0 l/m 3,5 km/h (1 Bft) W-SW 247 2 min 0,000 mm 2,1 UV-I 984 W/m 1,0 C 10,4 C 8,0 km/h (2 Bft) 97,56 %
07.05.2019 11:24 10,4 C 11,7 C 20,0 C 52 % 1018,9 hPa 0,0 l/m 5,2 km/h (1 Bft) SW 221 2 min 0,000 mm 1,9 UV-I 512 W/m 1,0 C 10,4 C 11,3 km/h (2 Bft) 98,00 %
07.05.2019 11:26 10,6 C 11,7 C 18,9 C 56 % 1018,9 hPa 0,0 l/m 5,7 km/h (1 Bft) NW 304 0 min 0,000 mm 1,9 UV-I 380 W/m 2,2 C 10,6 C 12,9 km/h (3 Bft) 95,74 %
07.05.2019 11:28 10,7 C 11,7 C 18,3 C 53 % 1018,9 hPa 0,0 l/m 5,6 km/h (1 Bft) W-NW 284 0 min 0,000 mm 1,9 UV-I 390 W/m 1,5 C 10,7 C 11,3 km/h (2 Bft) 95,74 %
07.05.2019 11:30 10,6 C 11,7 C 17,8 C 53 % 1018,9 hPa 0,0 l/m 5,0 km/h (1 Bft) W-NW 290 0 min 0,000 mm 1,6 UV-I 350 W/m 1,4 C 10,6 C 12,9 km/h (3 Bft) 100,00 %
07.05.2019 11:32 10,4 C 11,7 C 16,7 C 54 % 1018,9 hPa 0,0 l/m 5,0 km/h (1 Bft) NW 306 0 min 0,000 mm 1,4 UV-I 276 W/m 1,5 C 10,4 C 9,7 km/h (2 Bft) 96,43 %
07.05.2019 11:34 10,3 C 11,7 C 16,1 C 53 % 1018,9 hPa 0,0 l/m 5,2 km/h (1 Bft) NW 325 0 min 0,000 mm 1,4 UV-I 265 W/m 1,1 C 10,3 C 8,0 km/h (2 Bft) 94,00 %
07.05.2019 11:36 10,2 C 11,7 C 15,6 C 56 % 1018,9 hPa 0,0 l/m 4,0 km/h (1 Bft) N-NW 347 0 min 0,000 mm 1,5 UV-I 278 W/m 1,8 C 10,2 C 6,4 km/h (2 Bft) 97,73 %
07.05.2019 11:38 10,2 C 11,7 C 15,6 C 55 % 1018,8 hPa 0,0 l/m 3,0 km/h (1 Bft) N 355 0 min 0,000 mm 1,7 UV-I 307 W/m 1,6 C 10,2 C 6,4 km/h (2 Bft) 98,00 %
07.05.2019 11:40 10,3 C 11,7 C 15,6 C 57 % 1018,9 hPa 0,0 l/m 5,8 km/h (2 Bft) W-SW 250 0 min 0,000 mm 1,8 UV-I 345 W/m 2,2 C 10,3 C 11,3 km/h (2 Bft) 97,14 %
07.05.2019 11:42 10,3 C 12,2 C 16,1 C 52 % 1018,8 hPa 0,0 l/m 7,7 km/h (2 Bft) W-SW 258 0 min 0,000 mm 2,0 UV-I 399 W/m 0,9 C 9,4 C 12,9 km/h (3 Bft) 96,00 %
07.05.2019 11:44 10,4 C 12,2 C 17,8 C 57 % 1018,8 hPa 0,0 l/m 4,0 km/h (1 Bft) N 11 2 min 0,000 mm 2,3 UV-I 449 W/m 2,3 C 10,4 C 6,4 km/h (2 Bft) 97,87 %
07.05.2019 11:46 10,6 C 12,2 C 18,3 C 55 % 1018,8 hPa 0,0 l/m 3,3 km/h (1 Bft) N-NW 340 0 min 0,000 mm 2,2 UV-I 441 W/m 1,9 C 10,6 C 6,4 km/h (2 Bft) 98,00 %
07.05.2019 11:48 10,7 C 11,7 C 18,3 C 55 % 1018,8 hPa 0,0 l/m 3,0 km/h (1 Bft) SW 230 0 min 0,000 mm 1,6 UV-I 349 W/m 2,0 C 10,7 C 6,4 km/h (2 Bft) 97,87 %
07.05.2019 11:50 10,7 C 11,7 C 18,3 C 55 % 1018,8 hPa 0,0 l/m 4,3 km/h (1 Bft) W-SW 242 0 min 0,000 mm 1,5 UV-I 321 W/m 2,0 C 10,7 C 6,4 km/h (2 Bft) 93,62 %
07.05.2019 11:52 10,8 C 12,2 C 17,8 C 53 % 1018,8 hPa 0,0 l/m 3,1 km/h (1 Bft) W 261 0 min 0,000 mm 1,5 UV-I 336 W/m 1,6 C 10,8 C 6,4 km/h (2 Bft) 95,74 %
07.05.2019 11:54 10,5 C 11,7 C 16,7 C 50 % 1018,8 hPa 0,0 l/m 4,0 km/h (1 Bft) W 274 0 min 0,000 mm 1,5 UV-I 316 W/m 0,5 C 10,5 C 6,4 km/h (2 Bft) 93,62 %
07.05.2019 11:56 10,3 C 11,7 C 16,7 C 52 % 1018,8 hPa 0,0 l/m 5,8 km/h (2 Bft) W 266 0 min 0,000 mm 1,5 UV-I 318 W/m 0,9 C 10,3 C 11,3 km/h (2 Bft) 97,56 %
07.05.2019 11:58 10,3 C 12,2 C 17,2 C 53 % 1018,8 hPa 0,0 l/m 3,5 km/h (1 Bft) N-NO 22 0 min 0,000 mm 1,6 UV-I 346 W/m 1,1 C 10,3 C 9,7 km/h (2 Bft) 95,24 %
07.05.2019 12:00 10,5 C 12,2 C 16,7 C 58 % 1018,8 hPa 0,0 l/m 5,2 km/h (1 Bft) N 355 0 min 0,254 mm 1,5 UV-I 324 W/m 2,6 C 10,5 C 8,0 km/h (2 Bft) 94,23 %
07.05.2019 12:02 10,5 C 11,7 C 16,1 C 55 % 1018,8 hPa 0,0 l/m 7,2 km/h (2 Bft) N-NW 333 0 min 0,000 mm 1,5 UV-I 291 W/m 1,8 C 9,9 C 12,9 km/h (3 Bft) 92,45 %
07.05.2019 12:04 10,4 C 11,7 C 15,6 C 55 % 1018,8 hPa 0,0 l/m 4,4 km/h (1 Bft) N-NO 22 0 min 0,000 mm 1,5 UV-I 288 W/m 1,8 C 10,4 C 8,0 km/h (2 Bft) 94,87 %
07.05.2019 12:06 10,3 C 12,2 C 15,6 C 58 % 1018,8 hPa 0,0 l/m 4,7 km/h (1 Bft) N-NO 19 0 min 0,000 mm 1,5 UV-I 287 W/m 2,4 C 10,3 C 8,0 km/h (2 Bft) 94,34 %
07.05.2019 12:08 10,4 C 12,2 C 15,6 C 59 % 1018,8 hPa 0,0 l/m 4,0 km/h (1 Bft) N-NW 333 0 min 0,000 mm 1,5 UV-I 287 W/m 2,7 C 10,4 C 6,4 km/h (2 Bft) 97,87 %
07.05.2019 12:10 10,3 C 12,2 C 15,0 C 54 % 1018,8 hPa 0,0 l/m 4,1 km/h (1 Bft) N-NW 348 0 min 0,000 mm 1,5 UV-I 285 W/m 1,4 C 10,3 C 6,4 km/h (2 Bft) 97,87 %
07.05.2019 12:12 10,3 C 12,2 C 15,0 C 55 % 1018,7 hPa 0,0 l/m 3,7 km/h (1 Bft) N-NW 329 0 min 0,000 mm 1,5 UV-I 278 W/m 1,7 C 10,3 C 6,4 km/h (2 Bft) 95,12 %
07.05.2019 12:14 10,3 C 12,2 C 15,0 C 55 % 1018,7 hPa 0,0 l/m 4,5 km/h (1 Bft) N 5 0 min 0,000 mm 1,4 UV-I 267 W/m 1,7 C 10,3 C 8,0 km/h (2 Bft) 97,87 %
07.05.2019 12:16 10,2 C 12,2 C 15,0 C 54 % 1018,7 hPa 0,0 l/m 2,3 km/h (1 Bft) N-NO 15 0 min 0,000 mm 1,3 UV-I 259 W/m 1,3 C 10,2 C 4,8 km/h (1 Bft) 97,87 %
07.05.2019 12:18 10,2 C 12,2 C 15,0 C 54 % 1018,7 hPa 0,0 l/m 2,3 km/h (1 Bft) N 350 0 min 0,000 mm 1,3 UV-I 255 W/m 1,3 C 10,2 C 4,8 km/h (1 Bft) 94,34 %
07.05.2019 12:20 10,1 C 12,2 C 14,4 C 53 % 1018,7 hPa 0,0 l/m 1,9 km/h (1 Bft) N-NO 16 0 min 0,000 mm 1,3 UV-I 255 W/m 1,0 C 10,1 C 4,8 km/h (1 Bft) 98,00 %
07.05.2019 12:22 10,2 C 12,2 C 14,4 C 55 % 1018,7 hPa 0,0 l/m 2,8 km/h (1 Bft) N-NO 26 0 min 0,000 mm 1,3 UV-I 258 W/m 1,6 C 10,2 C 4,8 km/h (1 Bft) 97,56 %
07.05.2019 12:24 10,3 C 12,2 C 15,0 C 56 % 1018,6 hPa 0,0 l/m 2,8 km/h (1 Bft) N 355 0 min 0,000 mm 1,3 UV-I 267 W/m 1,9 C 10,3 C 6,4 km/h (2 Bft) 96,23 %
07.05.2019 12:26 10,2 C 12,2 C 15,0 C 52 % 1018,7 hPa 0,0 l/m 1,4 km/h (1 Bft) N 355 0 min 0,000 mm 1,4 UV-I 284 W/m 0,8 C 10,2 C 3,2 km/h (1 Bft) 97,37 %
07.05.2019 12:28 10,3 C 12,2 C 15,0 C 56 % 1018,6 hPa 0,0 l/m 4,3 km/h (1 Bft) N-NO 17 0 min 0,000 mm 1,4 UV-I 294 W/m 1,9 C 10,3 C 6,4 km/h (2 Bft) 98,11 %
07.05.2019 12:30 10,3 C 12,2 C 15,6 C 52 % 1018,6 hPa 0,0 l/m 2,7 km/h (1 Bft) W 271 0 min 0,000 mm 1,4 UV-I 295 W/m 0,9 C 10,3 C 4,8 km/h (1 Bft) 97,37 %
07.05.2019 12:32 10,2 C 12,2 C 15,6 C 53 % 1018,6 hPa 0,0 l/m 1,8 km/h (1 Bft) W 271 0 min 0,000 mm 1,4 UV-I 294 W/m 1,1 C 10,2 C 3,2 km/h (1 Bft) 98,00 %
07.05.2019 12:34 10,2 C 12,2 C 15,6 C 51 % 1018,6 hPa 0,0 l/m 2,4 km/h (1 Bft) N-NW 327 0 min 0,000 mm 1,4 UV-I 290 W/m 0,5 C 10,2 C 6,4 km/h (2 Bft) 97,87 %
07.05.2019 12:36 10,3 C 12,2 C 15,6 C 52 % 1018,5 hPa 0,0 l/m 2,0 km/h (1 Bft) N-NW 327 0 min 0,000 mm 1,3 UV-I 282 W/m 0,9 C 10,3 C 3,2 km/h (1 Bft) 97,87 %
07.05.2019 12:38 10,3 C 12,2 C 15,6 C 54 % 1018,5 hPa 0,0 l/m 2,8 km/h (1 Bft) N 355 0 min 0,000 mm 1,3 UV-I 279 W/m 1,4 C 10,3 C 4,8 km/h (1 Bft) 97,92 %
07.05.2019 12:40 10,4 C 12,2 C 15,6 C 57 % 1018,5 hPa 0,0 l/m 2,6 km/h (1 Bft) NW 311 0 min 0,000 mm 1,3 UV-I 276 W/m 2,3 C 10,4 C 4,8 km/h (1 Bft) 96,15 %
07.05.2019 12:42 10,5 C 12,2 C 15,6 C 55 % 1018,5 hPa 0,0 l/m 4,3 km/h (1 Bft) NW 306 0 min 0,000 mm 1,3 UV-I 275 W/m 1,8 C 10,5 C 6,4 km/h (2 Bft) 100,00 %
07.05.2019 12:44 10,5 C 12,2 C 15,6 C 51 % 1018,5 hPa 0,0 l/m 5,3 km/h (1 Bft) NW 317 0 min 0,000 mm 1,3 UV-I 282 W/m 0,8 C 10,5 C 11,3 km/h (2 Bft) 94,00 %
07.05.2019 12:46 10,4 C 12,2 C 15,6 C 53 % 1018,5 hPa 0,0 l/m 3,9 km/h (1 Bft) W 274 0 min 0,000 mm 1,3 UV-I 286 W/m 1,2 C 10,4 C 6,4 km/h (2 Bft) 95,74 %
07.05.2019 12:48 10,4 C 12,2 C 15,6 C 52 % 1018,5 hPa 0,0 l/m 3,0 km/h (1 Bft) W 269 0 min 0,000 mm 1,4 UV-I 294 W/m 1,0 C 10,4 C 9,7 km/h (2 Bft) 98,21 %
07.05.2019 12:50 10,4 C 12,2 C 15,6 C 51 % 1018,5 hPa 0,0 l/m 6,0 km/h (2 Bft) W 278 0 min 0,000 mm 1,5 UV-I 312 W/m 0,7 C 10,4 C 9,7 km/h (2 Bft) 97,87 %
07.05.2019 12:52 10,3 C 12,2 C 16,1 C 50 % 1018,5 hPa 0,0 l/m 2,9 km/h (1 Bft) W 271 0 min 0,000 mm 1,6 UV-I 325 W/m 0,3 C 10,3 C 6,4 km/h (2 Bft) 97,37 %
07.05.2019 12:54 10,4 C 12,2 C 16,1 C 53 % 1018,5 hPa 0,0 l/m 3,4 km/h (1 Bft) W-SW 257 0 min 0,000 mm 1,6 UV-I 350 W/m 1,2 C 10,4 C 6,4 km/h (2 Bft) 98,00 %
07.05.2019 12:56 10,6 C 12,2 C 16,7 C 52 % 1018,5 hPa 0,0 l/m 4,7 km/h (1 Bft) W 265 0 min 0,000 mm 1,8 UV-I 384 W/m 1,2 C 10,6 C 8,0 km/h (2 Bft) 97,87 %
07.05.2019 12:58 10,7 C 12,2 C 17,2 C 52 % 1018,5 hPa 0,0 l/m 2,0 km/h (1 Bft) W-NW 294 0 min 0,000 mm 2,0 UV-I 423 W/m 1,3 C 10,7 C 3,2 km/h (1 Bft) 97,56 %
07.05.2019 13:00 10,8 C 12,2 C 17,8 C 52 % 1018,5 hPa 0,0 l/m 3,1 km/h (1 Bft) NO 47 0 min 0,000 mm 2,1 UV-I 442 W/m 1,3 C 10,8 C 6,4 km/h (2 Bft) 100,00 %
07.05.2019 13:02 10,8 C 12,2 C 18,3 C 56 % 1018,4 hPa 0,0 l/m 8,1 km/h (2 Bft) N 11 2 min 0,153 mm 2,2 UV-I 470 W/m 2,4 C 9,6 C 12,9 km/h (3 Bft) 97,37 %
07.05.2019 13:04 10,8 C 12,2 C 18,3 C 56 % 1018,4 hPa 0,0 l/m 6,2 km/h (2 Bft) N 10 0 min 0,000 mm 2,1 UV-I 447 W/m 2,4 C 10,8 C 11,3 km/h (2 Bft) 94,34 %
07.05.2019 13:06 10,8 C 12,2 C 18,3 C 56 % 1018,4 hPa 0,0 l/m 3,7 km/h (1 Bft) N-NO 15 0 min 0,000 mm 2,1 UV-I 428 W/m 2,4 C 10,8 C 6,4 km/h (2 Bft) 94,00 %
07.05.2019 13:08 10,9 C 12,2 C 18,3 C 61 % 1018,3 hPa 0,0 l/m 6,2 km/h (2 Bft) N-NO 15 0 min 0,000 mm 2,1 UV-I 430 W/m 3,7 C 10,9 C 11,3 km/h (2 Bft) 91,49 %
07.05.2019 13:10 10,9 C 12,2 C 18,3 C 58 % 1018,4 hPa 0,0 l/m 4,7 km/h (1 Bft) N 11 0 min 0,000 mm 2,0 UV-I 421 W/m 3,0 C 10,9 C 8,0 km/h (2 Bft) 92,11 %
07.05.2019 13:12 10,9 C 12,2 C 18,3 C 57 % 1018,4 hPa 0,0 l/m 7,1 km/h (2 Bft) N 5 0 min 0,000 mm 2,0 UV-I 410 W/m 2,7 C 10,4 C 12,9 km/h (3 Bft) 91,53 %
07.05.2019 13:14 10,8 C 12,2 C 17,8 C 55 % 1018,4 hPa 0,0 l/m 4,6 km/h (1 Bft) N 350 0 min 0,000 mm 2,1 UV-I 430 W/m 2,1 C 10,8 C 9,7 km/h (2 Bft) 89,47 %
07.05.2019 13:16 10,8 C 12,2 C 18,3 C 56 % 1018,4 hPa 0,0 l/m 3,9 km/h (1 Bft) NO 55 0 min 0,000 mm 2,2 UV-I 460 W/m 2,4 C 10,8 C 9,7 km/h (2 Bft) 94,00 %
07.05.2019 13:18 10,9 C 12,2 C 18,9 C 58 % 1018,3 hPa 0,0 l/m 6,9 km/h (2 Bft) NO 36 2 min 0,000 mm 2,3 UV-I 495 W/m 3,0 C 10,6 C 8,0 km/h (2 Bft) 94,12 %
07.05.2019 13:20 11,1 C 12,2 C 19,4 C 60 % 1018,3 hPa 0,0 l/m 4,8 km/h (1 Bft) N-NO 17 2 min 0,000 mm 2,5 UV-I 494 W/m 3,6 C 11,1 C 8,0 km/h (2 Bft) 92,00 %
07.05.2019 13:22 11,1 C 12,2 C 19,4 C 54 % 1018,3 hPa 0,0 l/m 3,3 km/h (1 Bft) N-NO 19 2 min 0,000 mm 2,3 UV-I 477 W/m 2,2 C 11,1 C 4,8 km/h (1 Bft) 92,68 %
07.05.2019 13:24 11,2 C 12,2 C 19,4 C 56 % 1018,2 hPa 0,0 l/m 3,7 km/h (1 Bft) O-SO 103 2 min 0,000 mm 2,5 UV-I 518 W/m 2,8 C 11,2 C 9,7 km/h (2 Bft) 92,68 %
07.05.2019 13:26 11,3 C 12,2 C 21,1 C 57 % 1018,2 hPa 0,0 l/m 4,5 km/h (1 Bft) O-SO 107 2 min 0,000 mm 3,0 UV-I 556 W/m 3,1 C 11,3 C 9,7 km/h (2 Bft) 96,23 %
07.05.2019 13:28 11,4 C 12,2 C 22,8 C 55 % 1018,2 hPa 0,0 l/m 6,5 km/h (2 Bft) O 95 2 min 0,000 mm 3,3 UV-I 693 W/m 2,7 C 11,4 C 11,3 km/h (2 Bft) 97,87 %
07.05.2019 13:30 11,6 C 12,2 C 24,4 C 57 % 1018,2 hPa 0,0 l/m 7,3 km/h (2 Bft) NO 55 2 min 0,000 mm 3,2 UV-I 812 W/m 3,4 C 11,0 C 12,9 km/h (3 Bft) 95,12 %
07.05.2019 13:32 11,7 C 12,2 C 27,2 C 52 % 1018,2 hPa 0,0 l/m 3,8 km/h (1 Bft) SO 132 2 min 0,000 mm 3,9 UV-I 996 W/m 2,2 C 11,7 C 8,0 km/h (2 Bft) 96,00 %
07.05.2019 13:34 11,8 C 12,2 C 28,9 C 54 % 1018,1 hPa 0,0 l/m 5,8 km/h (2 Bft) O-SO 102 2 min 0,000 mm 3,8 UV-I 991 W/m 2,8 C 11,8 C 9,7 km/h (2 Bft) 100,00 %
07.05.2019 13:36 11,9 C 12,2 C 28,3 C 51 % 1018,1 hPa 0,0 l/m 3,5 km/h (1 Bft) O-SO 109 2 min 0,000 mm 3,1 UV-I 780 W/m 2,1 C 11,9 C 9,7 km/h (2 Bft) 97,56 %
07.05.2019 13:38 11,8 C 12,2 C 29,4 C 50 % 1018,1 hPa 0,0 l/m 2,8 km/h (1 Bft) O-SO 109 2 min 0,000 mm 3,6 UV-I 659 W/m 1,7 C 11,8 C 6,4 km/h (2 Bft) 97,56 %
07.05.2019 13:40 11,8 C 12,2 C 30,6 C 50 % 1018,0 hPa 0,0 l/m 2,2 km/h (1 Bft) O-SO 113 2 min 0,000 mm 3,5 UV-I 1043 W/m 1,7 C 11,8 C 6,4 km/h (2 Bft) 100,00 %
07.05.2019 13:42 11,8 C 12,2 C 30,0 C 49 % 1018,0 hPa 0,0 l/m 3,2 km/h (1 Bft) N 5 2 min 0,000 mm 3,5 UV-I 1003 W/m 1,4 C 11,8 C 4,8 km/h (1 Bft) 100,00 %
07.05.2019 13:44 11,7 C 12,2 C 27,2 C 50 % 1018,0 hPa 0,0 l/m 4,9 km/h (1 Bft) W 263 2 min 0,000 mm 2,1 UV-I 661 W/m 1,6 C 11,7 C 6,4 km/h (2 Bft) 100,00 %
07.05.2019 13:46 11,6 C 12,2 C 24,4 C 51 % 1018,0 hPa 0,0 l/m 2,5 km/h (1 Bft) W 259 0 min 0,000 mm 1,9 UV-I 373 W/m 1,8 C 11,6 C 4,8 km/h (1 Bft) 100,00 %
07.05.2019 13:48 11,6 C 12,2 C 22,8 C 53 % 1018,0 hPa 0,0 l/m 4,0 km/h (1 Bft) O-SO 119 0 min 0,000 mm 1,8 UV-I 326 W/m 2,4 C 11,6 C 6,4 km/h (2 Bft) 100,00 %
07.05.2019 13:50 11,4 C 12,2 C 21,1 C 54 % 1017,9 hPa 0,0 l/m 5,8 km/h (2 Bft) S-SO 153 0 min 0,000 mm 1,6 UV-I 316 W/m 2,4 C 11,4 C 8,0 km/h (2 Bft) 100,00 %
07.05.2019 13:52 11,3 C 12,2 C 20,6 C 53 % 1017,9 hPa 0,0 l/m 1,9 km/h (1 Bft) S-SO 153 0 min 0,000 mm 1,5 UV-I 298 W/m 2,1 C 11,3 C 4,8 km/h (1 Bft) 98,15 %
07.05.2019 13:54 11,2 C 12,2 C 18,9 C 57 % 1017,9 hPa 0,0 l/m 5,3 km/h (1 Bft) NO 36 0 min 0,000 mm 1,4 UV-I 288 W/m 3,0 C 11,2 C 8,0 km/h (2 Bft) 97,62 %
07.05.2019 13:56 11,2 C 12,2 C 17,8 C 55 % 1017,9 hPa 0,0 l/m 4,7 km/h (1 Bft) N-NO 25 0 min 0,000 mm 1,4 UV-I 290 W/m 2,5 C 11,2 C 8,0 km/h (2 Bft) 98,00 %
07.05.2019 13:58 11,1 C 12,2 C 17,2 C 50 % 1017,9 hPa 0,0 l/m 5,0 km/h (1 Bft) N 355 0 min 0,000 mm 1,4 UV-I 293 W/m 1,1 C 11,1 C 8,0 km/h (2 Bft) 94,23 %
07.05.2019 14:00 11,1 C 12,2 C 16,7 C 49 % 1017,9 hPa 0,0 l/m 3,8 km/h (1 Bft) N 5 0 min 0,279 mm 1,4 UV-I 295 W/m 0,8 C 11,1 C 6,4 km/h (2 Bft) 100,00 %
07.05.2019 14:02 10,9 C 12,2 C 16,1 C 48 % 1017,8 hPa 0,0 l/m 3,0 km/h (1 Bft) N-NO 12 0 min 0,000 mm 1,4 UV-I 296 W/m 0,3 C 10,9 C 4,8 km/h (1 Bft) 100,00 %
07.05.2019 14:04 11,0 C 12,2 C 16,1 C 50 % 1017,8 hPa 0,0 l/m 3,1 km/h (1 Bft) N-NO 18 0 min 0,000 mm 1,4 UV-I 300 W/m 1,0 C 11,0 C 4,8 km/h (1 Bft) 100,00 %
07.05.2019 14:06 11,1 C 12,2 C 16,1 C 50 % 1017,7 hPa 0,0 l/m 1,7 km/h (1 Bft) N-NO 18 0 min 0,000 mm 1,4 UV-I 311 W/m 1,1 C 11,1 C 4,8 km/h (1 Bft) 100,00 %
07.05.2019 14:08 11,1 C 12,2 C 16,7 C 53 % 1017,7 hPa 0,0 l/m 2,5 km/h (1 Bft) N-NO 20 0 min 0,000 mm 1,5 UV-I 321 W/m 1,9 C 11,1 C 4,8 km/h (1 Bft) 97,56 %
07.05.2019 14:10 11,1 C 12,2 C 16,7 C 49 % 1017,7 hPa 0,0 l/m 2,3 km/h (1 Bft) N-NO 32 0 min 0,000 mm 1,5 UV-I 326 W/m 0,8 C 11,1 C 4,8 km/h (1 Bft) 100,00 %
07.05.2019 14:12 11,1 C 12,2 C 17,2 C 53 % 1017,7 hPa 0,0 l/m 2,3 km/h (1 Bft) NO 34 0 min 0,000 mm 1,6 UV-I 332 W/m 1,9 C 11,1 C 3,2 km/h (1 Bft) 100,00 %
07.05.2019 14:14 11,2 C 12,2 C 17,2 C 55 % 1017,7 hPa 0,0 l/m 3,3 km/h (1 Bft) O-NO 74 0 min 0,000 mm 1,7 UV-I 344 W/m 2,5 C 11,2 C 6,4 km/h (2 Bft) 100,00 %
07.05.2019 14:16 11,2 C 12,2 C 17,8 C 55 % 1017,7 hPa 0,0 l/m 4,4 km/h (1 Bft) O-NO 76 0 min 0,000 mm 1,7 UV-I 361 W/m 2,5 C 11,2 C 8,0 km/h (2 Bft) 100,00 %
07.05.2019 14:18 11,3 C 12,2 C 17,8 C 52 % 1017,7 hPa 0,0 l/m 4,4 km/h (1 Bft) O-NO 74 0 min 0,000 mm 1,8 UV-I 381 W/m 1,8 C 11,3 C 6,4 km/h (2 Bft) 100,00 %
07.05.2019 14:20 11,2 C 12,2 C 18,3 C 52 % 1017,7 hPa 0,0 l/m 3,9 km/h (1 Bft) O 101 0 min 0,000 mm 2,0 UV-I 408 W/m 1,7 C 11,2 C 6,4 km/h (2 Bft) 100,00 %
07.05.2019 14:22 11,3 C 12,2 C 20,0 C 50 % 1017,6 hPa 0,0 l/m 2,2 km/h (1 Bft) O 84 0 min 0,000 mm 2,3 UV-I 429 W/m 1,3 C 11,3 C 4,8 km/h (1 Bft) 100,00 %
07.05.2019 14:24 11,4 C 12,2 C 20,6 C 55 % 1017,6 hPa 0,0 l/m 2,7 km/h (1 Bft) O 84 2 min 0,000 mm 2,2 UV-I 456 W/m 2,7 C 11,4 C 6,4 km/h (2 Bft) 97,87 %
07.05.2019 14:26 11,7 C 12,2 C 20,6 C 52 % 1017,6 hPa 0,0 l/m 3,4 km/h (1 Bft) O 84 0 min 0,000 mm 2,4 UV-I 426 W/m 2,2 C 11,7 C 6,4 km/h (2 Bft) 100,00 %
07.05.2019 14:28 11,7 C 12,2 C 21,1 C 51 % 1017,6 hPa 0,0 l/m 3,6 km/h (1 Bft) O 83 2 min 0,000 mm 2,5 UV-I 470 W/m 1,9 C 11,7 C 6,4 km/h (2 Bft) 96,23 %
07.05.2019 14:30 11,7 C 12,2 C 21,7 C 51 % 1017,6 hPa 0,0 l/m 1,6 km/h (1 Bft) O 83 2 min 0,000 mm 2,6 UV-I 471 W/m 1,9 C 11,7 C 4,8 km/h (1 Bft) 97,87 %
07.05.2019 14:32 11,6 C 12,2 C 22,8 C 48 % 1017,5 hPa 0,0 l/m 2,6 km/h (1 Bft) SO 141 2 min 0,000 mm 2,9 UV-I 452 W/m 1,0 C 11,6 C 4,8 km/h (1 Bft) 98,11 %
07.05.2019 14:34 11,7 C 12,2 C 25,0 C 52 % 1017,5 hPa 0,0 l/m 3,3 km/h (1 Bft) N 355 2 min 0,000 mm 3,3 UV-I 902 W/m 2,2 C 11,7 C 4,8 km/h (1 Bft) 97,62 %
07.05.2019 14:36 11,8 C 12,2 C 26,7 C 50 % 1017,5 hPa 0,0 l/m 2,3 km/h (1 Bft) NW 309 2 min 0,000 mm 3,3 UV-I 894 W/m 1,7 C 11,8 C 4,8 km/h (1 Bft) 94,74 %
07.05.2019 14:38 11,9 C 12,2 C 27,8 C 49 % 1017,5 hPa 0,0 l/m 1,2 km/h (1 Bft) NW 312 2 min 0,000 mm 3,4 UV-I 866 W/m 1,5 C 11,9 C 3,2 km/h (1 Bft) 98,00 %
07.05.2019 14:40 12,1 C 12,2 C 28,9 C 50 % 1017,4 hPa 0,0 l/m 6,3 km/h (2 Bft) O-SO 123 2 min 0,000 mm 3,4 UV-I 868 W/m 2,0 C 12,1 C 11,3 km/h (2 Bft) 98,00 %
07.05.2019 14:42 12,2 C 12,2 C 28,9 C 49 % 1017,4 hPa 0,0 l/m 7,2 km/h (2 Bft) S-SW 213 2 min 0,000 mm 3,3 UV-I 871 W/m 1,8 C 11,7 C 17,7 km/h (3 Bft) 98,00 %
07.05.2019 14:44 11,9 C 12,2 C 26,1 C 46 % 1017,3 hPa 0,0 l/m 3,2 km/h (1 Bft) S-SW 201 2 min 0,000 mm 2,6 UV-I 874 W/m 0,7 C 11,9 C 8,0 km/h (2 Bft) 97,14 %
07.05.2019 14:46 11,9 C 12,2 C 27,2 C 46 % 1017,4 hPa 0,0 l/m 1,6 km/h (1 Bft) O-NO 59 2 min 0,000 mm 3,1 UV-I 869 W/m 0,7 C 11,9 C 3,2 km/h (1 Bft) 94,34 %
07.05.2019 14:48 12,1 C 12,2 C 28,3 C 47 % 1017,4 hPa 0,0 l/m 4,4 km/h (1 Bft) S-SW 211 2 min 0,000 mm 3,2 UV-I 857 W/m 1,1 C 12,1 C 8,0 km/h (2 Bft) 96,23 %
07.05.2019 14:50 12,5 C 12,8 C 29,4 C 47 % 1017,3 hPa 0,0 l/m 5,2 km/h (1 Bft) SW 226 2 min 0,000 mm 3,2 UV-I 856 W/m 1,5 C 12,5 C 8,0 km/h (2 Bft) 100,00 %
07.05.2019 14:52 12,7 C 12,8 C 30,0 C 46 % 1017,3 hPa 0,0 l/m 2,4 km/h (1 Bft) SW 234 2 min 0,000 mm 3,2 UV-I 866 W/m 1,4 C 12,7 C 6,4 km/h (2 Bft) 97,87 %
07.05.2019 14:54 12,8 C 12,8 C 30,6 C 44 % 1017,3 hPa 0,0 l/m 3,6 km/h (1 Bft) W-SW 248 2 min 0,000 mm 3,2 UV-I 880 W/m 0,9 C 12,8 C 6,4 km/h (2 Bft) 100,00 %
07.05.2019 14:56 12,6 C 12,8 C 30,6 C 43 % 1017,3 hPa 0,0 l/m 1,5 km/h (1 Bft) N 9 2 min 0,000 mm 3,2 UV-I 884 W/m 0,4 C 12,6 C 4,8 km/h (1 Bft) 97,87 %
07.05.2019 14:58 12,5 C 12,8 C 30,6 C 46 % 1017,3 hPa 0,0 l/m 4,2 km/h (1 Bft) O 91 2 min 0,000 mm 3,2 UV-I 899 W/m 1,2 C 12,5 C 6,4 km/h (2 Bft) 94,64 %
07.05.2019 15:00 12,6 C 12,8 C 31,1 C 44 % 1017,2 hPa 0,0 l/m 6,5 km/h (2 Bft) N-NO 25 2 min 0,000 mm 3,2 UV-I 894 W/m 0,7 C 12,6 C 11,3 km/h (2 Bft) 95,12 %
07.05.2019 15:02 12,8 C 12,8 C 30,0 C 53 % 1017,2 hPa 0,0 l/m 5,0 km/h (1 Bft) NO 49 2 min 0,305 mm 3,1 UV-I 885 W/m 3,5 C 12,8 C 8,0 km/h (2 Bft) 97,87 %
07.05.2019 15:04 13,1 C 12,8 C 30,6 C 46 % 1017,2 hPa 0,0 l/m 3,9 km/h (1 Bft) S-SW 192 2 min 0,000 mm 3,1 UV-I 872 W/m 1,7 C 13,1 C 9,7 km/h (2 Bft) 100,00 %
07.05.2019 15:06 13,3 C 12,8 C 30,6 C 48 % 1017,2 hPa 0,0 l/m 6,2 km/h (2 Bft) S-SW 206 2 min 0,000 mm 3,0 UV-I 875 W/m 2,5 C 13,3 C 12,9 km/h (3 Bft) 97,44 %
07.05.2019 15:08 13,3 C 12,8 C 28,9 C 43 % 1017,1 hPa 0,0 l/m 8,1 km/h (2 Bft) S 178 2 min 0,000 mm 2,7 UV-I 870 W/m 1,0 C 12,3 C 11,3 km/h (2 Bft) 98,00 %
07.05.2019 15:10 13,1 C 12,8 C 28,9 C 44 % 1017,1 hPa 0,0 l/m 8,3 km/h (2 Bft) SO 140 2 min 0,000 mm 2,7 UV-I 615 W/m 1,1 C 11,9 C 12,9 km/h (3 Bft) 97,87 %
07.05.2019 15:12 13,2 C 12,8 C 30,0 C 48 % 1017,1 hPa 0,0 l/m 6,9 km/h (2 Bft) O-SO 123 2 min 0,000 mm 2,8 UV-I 752 W/m 2,4 C 12,9 C 9,7 km/h (2 Bft) 98,00 %
07.05.2019 15:14 13,2 C 12,8 C 30,6 C 45 % 1017,1 hPa 0,0 l/m 4,8 km/h (1 Bft) SO 134 2 min 0,000 mm 2,8 UV-I 810 W/m 1,5 C 13,2 C 8,0 km/h (2 Bft) 93,62 %
07.05.2019 15:16 13,3 C 12,8 C 30,6 C 48 % 1017,1 hPa 0,0 l/m 4,2 km/h (1 Bft) W-SW 244 2 min 0,000 mm 2,8 UV-I 795 W/m 2,5 C 13,3 C 12,9 km/h (3 Bft) 98,00 %
07.05.2019 15:18 13,3 C 12,8 C 29,4 C 45 % 1017,1 hPa 0,0 l/m 11,7 km/h (2 Bft) W 259 2 min 0,000 mm 2,7 UV-I 787 W/m 1,6 C 10,4 C 16,1 km/h (3 Bft) 97,37 %
07.05.2019 15:20 13,3 C 12,8 C 28,9 C 44 % 1017,1 hPa 0,0 l/m 9,9 km/h (2 Bft) SW 234 2 min 0,000 mm 2,5 UV-I 755 W/m 1,3 C 11,3 C 12,9 km/h (3 Bft) 97,87 %
07.05.2019 15:22 13,2 C 12,8 C 28,3 C 41 % 1017,1 hPa 0,0 l/m 8,6 km/h (2 Bft) W 262 2 min 0,000 mm 2,5 UV-I 736 W/m 0,2 C 11,9 C 12,9 km/h (3 Bft) 98,11 %
07.05.2019 15:24 13,2 C 12,8 C 28,3 C 42 % 1017,1 hPa 0,0 l/m 6,3 km/h (2 Bft) W-SW 245 2 min 0,000 mm 2,4 UV-I 740 W/m 0,6 C 13,2 C 12,9 km/h (3 Bft) 94,74 %
07.05.2019 15:26 12,9 C 12,8 C 27,8 C 42 % 1017,1 hPa 0,0 l/m 2,1 km/h (1 Bft) W-SW 253 2 min 0,000 mm 2,3 UV-I 730 W/m 0,3 C 12,9 C 4,8 km/h (1 Bft) 98,11 %
07.05.2019 15:28 12,7 C 12,8 C 26,7 C 45 % 1017,1 hPa 0,0 l/m 3,8 km/h (1 Bft) W 269 2 min 0,000 mm 2,1 UV-I 481 W/m 1,1 C 12,7 C 9,7 km/h (2 Bft) 98,11 %
07.05.2019 15:30 12,8 C 12,8 C 26,7 C 45 % 1017,0 hPa 0,0 l/m 6,8 km/h (2 Bft) W 267 2 min 0,000 mm 2,3 UV-I 639 W/m 1,2 C 12,6 C 12,9 km/h (3 Bft) 100,00 %
07.05.2019 15:32 13,0 C 12,8 C 26,1 C 43 % 1017,0 hPa 0,0 l/m 9,7 km/h (2 Bft) W-NW 300 2 min 0,000 mm 2,3 UV-I 700 W/m 0,7 C 11,1 C 14,5 km/h (3 Bft) 98,00 %
07.05.2019 15:34 12,9 C 12,8 C 25,0 C 45 % 1017,0 hPa 0,0 l/m 12,1 km/h (2 Bft) W-SW 241 2 min 0,000 mm 2,3 UV-I 676 W/m 1,3 C 9,8 C 17,7 km/h (3 Bft) 97,56 %
07.05.2019 15:36 12,9 C 12,8 C 25,0 C 43 % 1017,1 hPa 0,0 l/m 8,1 km/h (2 Bft) SW 236 2 min 0,000 mm 2,2 UV-I 658 W/m 0,6 C 11,8 C 16,1 km/h (3 Bft) 100,00 %
07.05.2019 15:38 12,7 C 12,8 C 25,6 C 41 % 1017,0 hPa 0,0 l/m 6,7 km/h (2 Bft) NW 306 2 min 0,000 mm 2,2 UV-I 641 W/m -0,2 C 12,5 C 9,7 km/h (2 Bft) 100,00 %
07.05.2019 15:40 12,6 C 12,8 C 25,0 C 42 % 1017,0 hPa 0,0 l/m 5,8 km/h (2 Bft) W 279 2 min 0,000 mm 2,1 UV-I 573 W/m 0,0 C 12,6 C 9,7 km/h (2 Bft) 100,00 %
07.05.2019 15:42 12,6 C 12,8 C 24,4 C 45 % 1017,0 hPa 0,0 l/m 5,6 km/h (1 Bft) S-SW 209 2 min 0,000 mm 2,0 UV-I 554 W/m 1,0 C 12,6 C 9,7 km/h (2 Bft) 100,00 %
07.05.2019 15:44 12,5 C 12,8 C 25,0 C 43 % 1016,9 hPa 0,0 l/m 2,5 km/h (1 Bft) S-SW 210 2 min 0,000 mm 2,0 UV-I 577 W/m 0,3 C 12,5 C 6,4 km/h (2 Bft) 100,00 %
07.05.2019 15:46 12,6 C 12,8 C 25,0 C 47 % 1016,9 hPa 0,0 l/m 4,8 km/h (1 Bft) N 355 2 min 0,000 mm 2,0 UV-I 574 W/m 1,6 C 12,6 C 6,4 km/h (2 Bft) 100,00 %
07.05.2019 15:48 12,7 C 12,8 C 25,0 C 48 % 1016,9 hPa 0,0 l/m 6,2 km/h (2 Bft) N-NO 13 2 min 0,000 mm 2,0 UV-I 564 W/m 2,0 C 12,7 C 8,0 km/h (2 Bft) 100,00 %
07.05.2019 15:50 12,8 C 12,8 C 24,4 C 46 % 1016,9 hPa 0,0 l/m 6,5 km/h (2 Bft) N-NW 344 2 min 0,000 mm 2,0 UV-I 586 W/m 1,5 C 12,8 C 9,7 km/h (2 Bft) 97,87 %
07.05.2019 15:52 12,9 C 12,8 C 25,0 C 44 % 1016,8 hPa 0,0 l/m 2,0 km/h (1 Bft) W-NW 284 2 min 0,000 mm 2,0 UV-I 622 W/m 1,0 C 12,9 C 4,8 km/h (1 Bft) 97,87 %
07.05.2019 15:54 12,9 C 12,8 C 26,1 C 45 % 1016,8 hPa 0,0 l/m 3,0 km/h (1 Bft) W 269 2 min 0,000 mm 2,2 UV-I 658 W/m 1,3 C 12,9 C 6,4 km/h (2 Bft) 97,87 %
07.05.2019 15:56 13,2 C 12,8 C 27,8 C 47 % 1016,8 hPa 0,0 l/m 1,6 km/h (1 Bft) W 269 2 min 0,000 mm 2,2 UV-I 708 W/m 2,1 C 13,2 C 3,2 km/h (1 Bft) 97,87 %
07.05.2019 15:58 13,4 C 12,8 C 28,3 C 44 % 1016,8 hPa 0,0 l/m 3,3 km/h (1 Bft) S-SW 208 2 min 0,000 mm 2,3 UV-I 725 W/m 1,4 C 13,4 C 6,4 km/h (2 Bft) 97,87 %
07.05.2019 16:00 13,4 C 12,8 C 27,8 C 42 % 1016,7 hPa 0,0 l/m 5,5 km/h (1 Bft) W-SW 250 2 min 0,381 mm 2,2 UV-I 682 W/m 0,8 C 13,4 C 9,7 km/h (2 Bft) 97,87 %
07.05.2019 16:02 13,4 C 12,8 C 26,7 C 41 % 1016,7 hPa 0,0 l/m 8,2 km/h (2 Bft) W-SW 238 2 min 0,000 mm 2,1 UV-I 645 W/m 0,4 C 12,3 C 14,5 km/h (3 Bft) 97,37 %
07.05.2019 16:04 13,4 C 12,8 C 26,1 C 44 % 1016,7 hPa 0,0 l/m 12,1 km/h (2 Bft) W-SW 240 2 min 0,000 mm 2,0 UV-I 634 W/m 1,4 C 10,4 C 16,1 km/h (3 Bft) 98,00 %
07.05.2019 16:06 13,4 C 12,8 C 26,1 C 43 % 1016,7 hPa 0,0 l/m 9,2 km/h (2 Bft) W 281 2 min 0,000 mm 2,0 UV-I 625 W/m 1,1 C 11,8 C 14,5 km/h (3 Bft) 96,23 %
07.05.2019 16:08 13,3 C 12,8 C 26,1 C 40 % 1016,7 hPa 0,0 l/m 5,2 km/h (1 Bft) SW 232 2 min 0,000 mm 1,9 UV-I 590 W/m -0,0 C 13,3 C 9,7 km/h (2 Bft) 97,37 %
07.05.2019 16:10 13,2 C 12,8 C 26,1 C 44 % 1016,7 hPa 0,0 l/m 5,6 km/h (1 Bft) SW 231 2 min 0,000 mm 1,8 UV-I 536 W/m 1,2 C 13,2 C 8,0 km/h (2 Bft) 98,00 %
07.05.2019 16:12 13,1 C 12,8 C 25,6 C 42 % 1016,6 hPa 0,0 l/m 6,0 km/h (2 Bft) S 180 2 min 0,000 mm 1,7 UV-I 504 W/m 0,5 C 13,1 C 9,7 km/h (2 Bft) 97,87 %
07.05.2019 16:14 12,8 C 12,8 C 25,6 C 43 % 1016,7 hPa 0,0 l/m 2,3 km/h (1 Bft) S 180 2 min 0,000 mm 1,8 UV-I 553 W/m 0,5 C 12,8 C 6,4 km/h (2 Bft) 100,00 %
07.05.2019 16:16 12,9 C 12,8 C 26,7 C 46 % 1016,6 hPa 0,0 l/m 2,8 km/h (1 Bft) SW 228 2 min 0,000 mm 1,9 UV-I 631 W/m 1,6 C 12,9 C 6,4 km/h (2 Bft) 100,00 %
07.05.2019 16:18 13,3 C 12,8 C 27,8 C 47 % 1016,6 hPa 0,0 l/m 7,8 km/h (2 Bft) SW 234 2 min 0,000 mm 1,9 UV-I 636 W/m 2,2 C 12,4 C 16,1 km/h (3 Bft) 100,00 %
07.05.2019 16:20 13,4 C 12,8 C 27,2 C 43 % 1016,6 hPa 0,0 l/m 10,8 km/h (2 Bft) SW 229 2 min 0,000 mm 1,9 UV-I 653 W/m 1,1 C 11,0 C 14,5 km/h (3 Bft) 100,00 %
07.05.2019 16:22 13,3 C 12,8 C 26,1 C 41 % 1016,6 hPa 0,0 l/m 5,9 km/h (2 Bft) W-SW 238 2 min 0,000 mm 1,8 UV-I 615 W/m 0,3 C 13,3 C 14,5 km/h (3 Bft) 100,00 %
07.05.2019 16:24 13,5 C 12,8 C 27,2 C 43 % 1016,6 hPa 0,0 l/m 12,5 km/h (3 Bft) SW 214 2 min 0,000 mm 1,8 UV-I 601 W/m 1,2 C 10,3 C 17,7 km/h (3 Bft) 97,87 %
07.05.2019 16:26 13,3 C 12,8 C 26,7 C 42 % 1016,6 hPa 0,0 l/m 10,4 km/h (2 Bft) S-SO 162 2 min 0,000 mm 1,8 UV-I 634 W/m 0,7 C 11,0 C 16,1 km/h (3 Bft) 100,00 %
07.05.2019 16:28 13,2 C 12,8 C 27,2 C 41 % 1016,5 hPa 0,0 l/m 7,4 km/h (2 Bft) S-SW 195 2 min 0,000 mm 1,8 UV-I 620 W/m 0,2 C 12,6 C 9,7 km/h (2 Bft) 100,00 %
07.05.2019 16:30 13,1 C 12,8 C 27,2 C 42 % 1016,5 hPa 0,0 l/m 6,1 km/h (2 Bft) S 172 2 min 0,000 mm 1,7 UV-I 593 W/m 0,5 C 13,1 C 9,7 km/h (2 Bft) 100,00 %
07.05.2019 16:32 13,1 C 12,8 C 27,8 C 41 % 1016,4 hPa 0,0 l/m 6,1 km/h (2 Bft) W-NW 286 2 min 0,000 mm 1,7 UV-I 630 W/m 0,2 C 13,1 C 9,7 km/h (2 Bft) 98,00 %
07.05.2019 16:34 13,4 C 12,8 C 27,8 C 42 % 1016,4 hPa 0,0 l/m 8,8 km/h (2 Bft) W-NW 285 2 min 0,000 mm 1,7 UV-I 615 W/m 0,8 C 12,0 C 12,9 km/h (3 Bft) 100,00 %
07.05.2019 16:36 13,4 C 12,8 C 27,2 C 40 % 1016,4 hPa 0,0 l/m 5,8 km/h (2 Bft) W-SW 252 2 min 0,000 mm 1,7 UV-I 605 W/m 0,1 C 13,4 C 11,3 km/h (2 Bft) 100,00 %
07.05.2019 16:38 13,3 C 12,8 C 26,7 C 40 % 1016,4 hPa 0,0 l/m 3,6 km/h (1 Bft) SW 225 2 min 0,000 mm 1,6 UV-I 583 W/m -0,0 C 13,3 C 6,4 km/h (2 Bft) 100,00 %
07.05.2019 16:40 13,3 C 12,8 C 26,7 C 43 % 1016,4 hPa 0,0 l/m 7,7 km/h (2 Bft) W-SW 240 2 min 0,000 mm 1,6 UV-I 562 W/m 1,0 C 12,5 C 12,9 km/h (3 Bft) 97,87 %
07.05.2019 16:42 13,3 C 12,8 C 26,7 C 40 % 1016,3 hPa 0,0 l/m 7,6 km/h (2 Bft) S-SW 212 2 min 0,000 mm 1,6 UV-I 593 W/m -0,0 C 12,6 C 12,9 km/h (3 Bft) 97,87 %
07.05.2019 16:44 13,4 C 12,8 C 26,1 C 40 % 1016,3 hPa 0,0 l/m 6,7 km/h (2 Bft) W 265 2 min 0,000 mm 1,5 UV-I 583 W/m 0,1 C 13,2 C 11,3 km/h (2 Bft) 100,00 %
07.05.2019 16:46 13,4 C 12,8 C 26,7 C 41 % 1016,3 hPa 0,0 l/m 7,5 km/h (2 Bft) S 188 2 min 0,000 mm 1,4 UV-I 557 W/m 0,4 C 12,7 C 12,9 km/h (3 Bft) 100,00 %
07.05.2019 16:48 13,2 C 12,8 C 26,7 C 41 % 1016,3 hPa 0,0 l/m 6,7 km/h (2 Bft) S 191 2 min 0,000 mm 1,4 UV-I 539 W/m 0,2 C 13,0 C 11,3 km/h (2 Bft) 96,23 %
07.05.2019 16:50 13,3 C 12,8 C 27,2 C 43 % 1016,3 hPa 0,0 l/m 7,1 km/h (2 Bft) W 275 2 min 0,000 mm 1,4 UV-I 561 W/m 1,0 C 12,9 C 11,3 km/h (2 Bft) 97,56 %
07.05.2019 16:52 13,5 C 13,3 C 27,2 C 42 % 1016,2 hPa 0,0 l/m 8,5 km/h (2 Bft) S-SW 202 2 min 0,000 mm 1,4 UV-I 561 W/m 0,8 C 12,2 C 12,9 km/h (3 Bft) 97,87 %
07.05.2019 16:54 13,6 C 13,3 C 26,7 C 41 % 1016,2 hPa 0,0 l/m 10,1 km/h (2 Bft) SW 215 2 min 0,000 mm 1,3 UV-I 535 W/m 0,6 C 11,5 C 12,9 km/h (3 Bft) 97,73 %
07.05.2019 16:56 13,4 C 13,3 C 26,1 C 39 % 1016,2 hPa 0,0 l/m 6,3 km/h (2 Bft) S 183 2 min 0,000 mm 1,3 UV-I 490 W/m -0,3 C 13,4 C 8,0 km/h (2 Bft) 97,56 %
07.05.2019 16:58 13,2 C 13,3 C 26,7 C 41 % 1016,2 hPa 0,0 l/m 6,9 km/h (2 Bft) S 188 2 min 0,000 mm 1,2 UV-I 479 W/m 0,2 C 12,9 C 12,9 km/h (3 Bft) 96,23 %
07.05.2019 17:00 13,3 C 13,3 C 26,1 C 41 % 1016,2 hPa 0,0 l/m 6,7 km/h (2 Bft) W-SW 248 2 min 0,000 mm 1,2 UV-I 476 W/m 0,3 C 13,1 C 12,9 km/h (3 Bft) 96,00 %
07.05.2019 17:02 13,4 C 13,3 C 24,4 C 42 % 1016,2 hPa 0,0 l/m 8,8 km/h (2 Bft) SW 223 2 min 0,330 mm 1,1 UV-I 373 W/m 0,8 C 12,0 C 12,9 km/h (3 Bft) 100,00 %
07.05.2019 17:04 13,3 C 13,3 C 22,8 C 41 % 1016,2 hPa 0,0 l/m 10,4 km/h (2 Bft) SW 229 2 min 0,000 mm 0,9 UV-I 291 W/m 0,3 C 11,0 C 14,5 km/h (3 Bft) 96,77 %
07.05.2019 17:06 13,0 C 13,3 C 21,1 C 39 % 1016,2 hPa 0,0 l/m 6,7 km/h (2 Bft) W 263 0 min 0,000 mm 0,9 UV-I 268 W/m -0,6 C 12,8 C 9,7 km/h (2 Bft) 98,11 %
07.05.2019 17:08 12,7 C 13,3 C 19,4 C 42 % 1016,2 hPa 0,0 l/m 7,8 km/h (2 Bft) W-NW 296 0 min 0,000 mm 0,9 UV-I 273 W/m 0,1 C 11,8 C 12,9 km/h (3 Bft) 97,37 %
07.05.2019 17:10 12,6 C 13,3 C 18,3 C 43 % 1016,2 hPa 0,0 l/m 5,8 km/h (2 Bft) NW 313 0 min 0,000 mm 0,8 UV-I 235 W/m 0,4 C 12,6 C 8,0 km/h (2 Bft) 98,21 %
07.05.2019 17:12 12,6 C 13,3 C 17,8 C 44 % 1016,2 hPa 0,0 l/m 4,1 km/h (1 Bft) W-SW 240 0 min 0,000 mm 0,8 UV-I 209 W/m 0,7 C 12,6 C 9,7 km/h (2 Bft) 98,00 %
07.05.2019 17:14 12,5 C 13,3 C 17,2 C 42 % 1016,2 hPa 0,0 l/m 5,7 km/h (1 Bft) W-SW 251 0 min 0,000 mm 0,8 UV-I 219 W/m -0,1 C 12,5 C 9,7 km/h (2 Bft) 97,37 %
07.05.2019 17:16 12,4 C 13,3 C 16,7 C 42 % 1016,2 hPa 0,0 l/m 5,4 km/h (1 Bft) W-SW 242 0 min 0,000 mm 0,7 UV-I 220 W/m -0,1 C 12,4 C 9,7 km/h (2 Bft) 95,74 %
07.05.2019 17:19 12,4 C 13,3 C 16,1 C 41 % 1016,2 hPa 0,0 l/m 4,9 km/h (1 Bft) W-SW 249 0 min 0,000 mm 0,7 UV-I 203 W/m -0,5 C 12,4 C 9,7 km/h (2 Bft) 97,56 %
07.05.2019 17:20 12,4 C 13,3 C 16,1 C 42 % 1016,2 hPa 0,0 l/m 8,9 km/h (2 Bft) W-SW 258 0 min 0,000 mm 0,7 UV-I 199 W/m -0,1 C 10,8 C 11,3 km/h (2 Bft) 91,67 %
07.05.2019 17:22 12,3 C 13,3 C 15,6 C 42 % 1016,2 hPa 0,0 l/m 5,8 km/h (2 Bft) W 279 0 min 0,000 mm 0,7 UV-I 200 W/m -0,2 C 12,3 C 9,7 km/h (2 Bft) 96,00 %
07.05.2019 17:24 12,3 C 13,3 C 15,6 C 44 % 1016,2 hPa 0,0 l/m 5,1 km/h (1 Bft) W 280 0 min 0,000 mm 0,7 UV-I 204 W/m 0,4 C 12,3 C 8,0 km/h (2 Bft) 98,00 %
07.05.2019 17:26 12,3 C 13,3 C 15,6 C 44 % 1016,2 hPa 0,0 l/m 4,5 km/h (1 Bft) W-NW 300 0 min 0,000 mm 0,6 UV-I 206 W/m 0,4 C 12,3 C 6,4 km/h (2 Bft) 97,87 %
07.05.2019 17:28 12,3 C 13,3 C 16,1 C 43 % 1016,2 hPa 0,0 l/m 3,0 km/h (1 Bft) W-NW 300 0 min 0,000 mm 0,6 UV-I 214 W/m 0,1 C 12,3 C 4,8 km/h (1 Bft) 97,37 %
07.05.2019 17:30 12,3 C 13,3 C 16,1 C 43 % 1016,1 hPa 0,0 l/m 1,9 km/h (1 Bft) W-SW 254 0 min 0,000 mm 0,6 UV-I 229 W/m 0,1 C 12,3 C 3,2 km/h (1 Bft) 98,00 %
07.05.2019 17:32 12,3 C 13,3 C 16,1 C 42 % 1016,1 hPa 0,0 l/m 4,5 km/h (1 Bft) W-SW 255 0 min 0,000 mm 0,6 UV-I 240 W/m -0,2 C 12,3 C 6,4 km/h (2 Bft) 96,00 %
07.05.2019 17:34 12,2 C 13,3 C 16,1 C 42 % 1016,1 hPa 0,0 l/m 2,5 km/h (1 Bft) S-SW 202 2 min 0,000 mm 0,6 UV-I 246 W/m -0,3 C 12,2 C 4,8 km/h (1 Bft) 98,00 %
07.05.2019 17:36 12,2 C 13,3 C 16,1 C 43 % 1016,1 hPa 0,0 l/m 5,1 km/h (1 Bft) S-SW 199 2 min 0,000 mm 0,6 UV-I 250 W/m -0,0 C 12,2 C 6,4 km/h (2 Bft) 97,22 %
07.05.2019 17:38 12,3 C 13,3 C 16,7 C 43 % 1016,1 hPa 0,0 l/m 3,9 km/h (1 Bft) SW 229 2 min 0,000 mm 0,6 UV-I 268 W/m 0,1 C 12,3 C 6,4 km/h (2 Bft) 98,04 %
07.05.2019 17:40 12,4 C 13,3 C 17,2 C 41 % 1016,1 hPa 0,0 l/m 3,8 km/h (1 Bft) S-SW 209 2 min 0,000 mm 0,6 UV-I 284 W/m -0,5 C 12,4 C 4,8 km/h (1 Bft) 96,00 %
07.05.2019 17:42 12,5 C 13,3 C 17,8 C 43 % 1016,0 hPa 0,0 l/m 4,5 km/h (1 Bft) SW 229 2 min 0,000 mm 0,6 UV-I 302 W/m 0,3 C 12,5 C 8,0 km/h (2 Bft) 100,00 %
07.05.2019 17:44 12,7 C 13,3 C 18,3 C 43 % 1016,1 hPa 0,0 l/m 5,3 km/h (1 Bft) SW 229 2 min 0,000 mm 0,6 UV-I 274 W/m 0,5 C 12,7 C 6,4 km/h (2 Bft) 100,00 %
07.05.2019 17:46 12,7 C 13,3 C 18,3 C 42 % 1016,1 hPa 0,0 l/m 2,0 km/h (1 Bft) SW 230 2 min 0,000 mm 0,6 UV-I 264 W/m 0,1 C 12,7 C 4,8 km/h (1 Bft) 100,00 %
07.05.2019 17:49 12,6 C 13,3 C 18,9 C 42 % 1015,9 hPa 0,0 l/m 1,2 km/h (1 Bft) SW 231 3 min 0,000 mm 0,6 UV-I 279 W/m 0,0 C 12,6 C 3,2 km/h (1 Bft) 98,36 %
07.05.2019 17:50 12,6 C 13,3 C 18,9 C 42 % 1015,9 hPa 0,0 l/m 1,1 km/h (1 Bft) SW 231 1 min 0,000 mm 0,6 UV-I 283 W/m 0,0 C 12,6 C 1,6 km/h (1 Bft) 100,00 %
07.05.2019 17:52 12,6 C 13,3 C 18,3 C 44 % 1016,0 hPa 0,0 l/m 1,7 km/h (1 Bft) SW 231 2 min 0,000 mm 0,6 UV-I 272 W/m 0,7 C 12,6 C 3,2 km/h (1 Bft) 100,00 %
07.05.2019 17:54 12,5 C 13,3 C 18,3 C 47 % 1015,9 hPa 0,0 l/m 2,4 km/h (1 Bft) N-NO 16 2 min 0,000 mm 0,6 UV-I 251 W/m 1,5 C 12,5 C 3,2 km/h (1 Bft) 100,00 %
07.05.2019 17:56 12,4 C 13,3 C 18,3 C 44 % 1015,9 hPa 0,0 l/m 3,6 km/h (1 Bft) O-NO 67 2 min 0,000 mm 0,6 UV-I 250 W/m 0,5 C 12,4 C 6,4 km/h (2 Bft) 100,00 %
07.05.2019 17:59 12,4 C 13,3 C 17,8 C 41 % 1015,9 hPa 0,0 l/m 4,4 km/h (1 Bft) O 96 3 min 0,000 mm 0,5 UV-I 225 W/m -0,5 C 12,4 C 6,4 km/h (2 Bft) 100,00 %
07.05.2019 18:00 12,4 C 13,3 C 17,8 C 41 % 1015,9 hPa 0,0 l/m 5,2 km/h (1 Bft) O 96 1 min 0,000 mm 0,5 UV-I 216 W/m -0,5 C 12,4 C 6,4 km/h (2 Bft) 100,00 %
07.05.2019 18:02 12,3 C 13,3 C 17,2 C 42 % 1015,8 hPa 0,0 l/m 2,5 km/h (1 Bft) O 96 2 min 0,152 mm 0,5 UV-I 213 W/m -0,2 C 12,3 C 4,8 km/h (1 Bft) 98,00 %
07.05.2019 18:04 12,3 C 13,3 C 17,2 C 42 % 1015,9 hPa 0,0 l/m 0,0 km/h (0 Bft) O 96 2 min 0,000 mm 0,5 UV-I 214 W/m -0,2 C 12,3 C 0,0 km/h (0 Bft) 100,00 %
07.05.2019 18:06 12,3 C 13,3 C 17,8 C 42 % 1015,8 hPa 0,0 l/m 1,0 km/h (0 Bft) O 95 2 min 0,000 mm 0,5 UV-I 244 W/m -0,2 C 12,3 C 3,2 km/h (1 Bft) 100,00 %
07.05.2019 18:08 12,4 C 13,3 C 17,8 C 46 % 1015,9 hPa 0,0 l/m 2,3 km/h (1 Bft) O 95 2 min 0,000 mm 0,5 UV-I 243 W/m 1,1 C 12,4 C 3,2 km/h (1 Bft) 100,00 %
07.05.2019 18:10 12,5 C 13,3 C 18,3 C 42 % 1015,8 hPa 0,0 l/m 0,9 km/h (0 Bft) O 95 2 min 0,000 mm 0,5 UV-I 233 W/m -0,1 C 12,5 C 1,6 km/h (1 Bft) 100,00 %
07.05.2019 18:12 12,4 C 13,3 C 18,3 C 42 % 1015,9 hPa 0,0 l/m 0,9 km/h (0 Bft) O 95 2 min 0,000 mm 0,5 UV-I 250 W/m -0,1 C 12,4 C 1,6 km/h (1 Bft) 100,00 %
07.05.2019 18:14 12,4 C 13,3 C 18,3 C 45 % 1015,8 hPa 0,0 l/m 2,5 km/h (1 Bft) O 95 2 min 0,000 mm 0,2 UV-I 221 W/m 0,8 C 12,4 C 4,8 km/h (1 Bft) 100,00 %
07.05.2019 18:16 12,4 C 13,3 C 17,8 C 48 % 1015,8 hPa 0,0 l/m 3,8 km/h (1 Bft) O 95 2 min 0,000 mm 0,0 UV-I 192 W/m 1,7 C 12,4 C 6,4 km/h (2 Bft) 97,87 %
07.05.2019 18:18 12,4 C 13,3 C 16,7 C 46 % 1015,8 hPa 0,0 l/m 3,5 km/h (1 Bft) O 95 0 min 0,000 mm 0,0 UV-I 164 W/m 1,1 C 12,4 C 4,8 km/h (1 Bft) 100,00 %
07.05.2019 18:20 12,3 C 13,3 C 15,6 C 52 % 1015,8 hPa 0,0 l/m 3,9 km/h (1 Bft) NO 44 0 min 0,000 mm 0,0 UV-I 152 W/m 2,7 C 12,3 C 4,8 km/h (1 Bft) 100,00 %
07.05.2019 18:22 12,2 C 13,3 C 15,0 C 47 % 1015,8 hPa 0,0 l/m 2,2 km/h (1 Bft) NO 44 0 min 0,000 mm 0,0 UV-I 139 W/m 1,2 C 12,2 C 3,2 km/h (1 Bft) 100,00 %
07.05.2019 18:24 12,1 C 13,3 C 14,4 C 50 % 1015,8 hPa 0,0 l/m 3,1 km/h (1 Bft) NO 44 0 min 0,000 mm 0,0 UV-I 128 W/m 2,0 C 12,1 C 4,8 km/h (1 Bft) 100,00 %
07.05.2019 18:26 11,9 C 13,3 C 13,9 C 52 % 1015,8 hPa 0,0 l/m 4,2 km/h (1 Bft) O-NO 77 0 min 0,000 mm 0,0 UV-I 120 W/m 2,4 C 11,9 C 6,4 km/h (2 Bft) 97,87 %
07.05.2019 18:28 11,8 C 13,3 C 13,3 C 49 % 1015,8 hPa 0,0 l/m 4,8 km/h (1 Bft) O-NO 78 0 min 0,000 mm 0,0 UV-I 116 W/m 1,4 C 11,8 C 6,4 km/h (2 Bft) 100,00 %
07.05.2019 18:30 11,9 C 13,3 C 13,3 C 47 % 1015,8 hPa 0,0 l/m 3,6 km/h (1 Bft) O-NO 78 0 min 0,000 mm 0,0 UV-I 112 W/m 1,0 C 11,9 C 6,4 km/h (2 Bft) 100,00 %
07.05.2019 18:32 11,9 C 13,3 C 13,3 C 47 % 1015,8 hPa 0,0 l/m 3,4 km/h (1 Bft) O 84 0 min 0,000 mm 0,0 UV-I 107 W/m 1,0 C 11,9 C 4,8 km/h (1 Bft) 100,00 %
07.05.2019 18:34 11,8 C 13,3 C 13,3 C 46 % 1015,8 hPa 0,0 l/m 3,1 km/h (1 Bft) O 84 0 min 0,000 mm 0,0 UV-I 103 W/m 0,6 C 11,8 C 4,8 km/h (1 Bft) 100,00 %
07.05.2019 18:36 11,8 C 13,3 C 12,8 C 47 % 1015,8 hPa 0,0 l/m 3,0 km/h (1 Bft) O-NO 62 0 min 0,000 mm 0,0 UV-I 101 W/m 0,9 C 11,8 C 6,4 km/h (2 Bft) 100,00 %
07.05.2019 18:38 11,8 C 13,3 C 12,8 C 48 % 1015,9 hPa 0,0 l/m 4,2 km/h (1 Bft) O-NO 77 0 min 0,000 mm 0,0 UV-I 100 W/m 1,2 C 11,8 C 6,4 km/h (2 Bft) 100,00 %
07.05.2019 18:40 11,8 C 13,3 C 12,8 C 49 % 1015,9 hPa 0,0 l/m 3,8 km/h (1 Bft) O-NO 77 0 min 0,000 mm 0,0 UV-I 100 W/m 1,4 C 11,8 C 6,4 km/h (2 Bft) 100,00 %
07.05.2019 18:42 11,7 C 13,3 C 12,8 C 51 % 1015,9 hPa 0,0 l/m 3,8 km/h (1 Bft) O-NO 76 0 min 0,000 mm 0,0 UV-I 100 W/m 1,9 C 11,7 C 6,4 km/h (2 Bft) 96,23 %
07.05.2019 18:44 11,6 C 13,3 C 12,2 C 50 % 1015,8 hPa 0,0 l/m 3,5 km/h (1 Bft) O-NO 76 0 min 0,000 mm 0,0 UV-I 100 W/m 1,5 C 11,6 C 4,8 km/h (1 Bft) 98,00 %
07.05.2019 18:46 11,6 C 13,3 C 12,2 C 51 % 1015,9 hPa 0,0 l/m 2,7 km/h (1 Bft) O-NO 76 0 min 0,000 mm 0,0 UV-I 100 W/m 1,8 C 11,6 C 4,8 km/h (1 Bft) 95,74 %
07.05.2019 18:48 11,6 C 13,3 C 12,2 C 53 % 1015,8 hPa 0,0 l/m 3,5 km/h (1 Bft) O-NO 76 0 min 0,000 mm 0,0 UV-I 98 W/m 2,4 C 11,6 C 4,8 km/h (1 Bft) 93,62 %
07.05.2019 18:50 11,6 C 13,3 C 12,2 C 56 % 1015,8 hPa 0,0 l/m 2,8 km/h (1 Bft) O-NO 76 0 min 0,000 mm 0,0 UV-I 98 W/m 3,1 C 11,6 C 4,8 km/h (1 Bft) 94,29 %
07.05.2019 18:52 11,5 C 13,3 C 12,2 C 56 % 1015,8 hPa 0,0 l/m 3,1 km/h (1 Bft) O-NO 76 0 min 0,000 mm 0,0 UV-I 98 W/m 3,0 C 11,5 C 4,8 km/h (1 Bft) 98,00 %
07.05.2019 18:54 11,4 C 13,3 C 12,2 C 56 % 1015,8 hPa 0,0 l/m 3,2 km/h (1 Bft) NO 54 0 min 0,000 mm 0,0 UV-I 97 W/m 2,9 C 11,4 C 6,4 km/h (2 Bft) 95,83 %
07.05.2019 18:56 11,4 C 13,3 C 12,2 C 55 % 1015,7 hPa 0,0 l/m 3,9 km/h (1 Bft) O-NO 69 0 min 0,000 mm 0,0 UV-I 96 W/m 2,7 C 11,4 C 6,4 km/h (2 Bft) 95,45 %
07.05.2019 18:58 11,4 C 13,3 C 12,2 C 53 % 1015,8 hPa 0,0 l/m 4,5 km/h (1 Bft) O-NO 71 0 min 0,000 mm 0,0 UV-I 97 W/m 2,2 C 11,4 C 6,4 km/h (2 Bft) 95,74 %
07.05.2019 19:00 11,6 C 13,3 C 12,2 C 53 % 1015,7 hPa 0,0 l/m 4,9 km/h (1 Bft) O 82 0 min 0,000 mm 0,0 UV-I 95 W/m 2,4 C 11,6 C 6,4 km/h (2 Bft) 94,64 %
07.05.2019 19:02 11,6 C 13,3 C 12,2 C 52 % 1015,7 hPa 0,0 l/m 4,6 km/h (1 Bft) O 81 0 min 0,102 mm 0,0 UV-I 94 W/m 2,1 C 11,6 C 6,4 km/h (2 Bft) 93,62 %
07.05.2019 19:04 11,6 C 12,8 C 12,2 C 54 % 1015,7 hPa 0,0 l/m 4,2 km/h (1 Bft) O 81 0 min 0,000 mm 0,0 UV-I 93 W/m 2,6 C 11,6 C 6,4 km/h (2 Bft) 97,37 %
07.05.2019 19:06 11,6 C 13,3 C 12,2 C 54 % 1015,8 hPa 0,0 l/m 3,6 km/h (1 Bft) O 81 0 min 0,000 mm 0,0 UV-I 94 W/m 2,6 C 11,6 C 4,8 km/h (1 Bft) 96,23 %
07.05.2019 19:08 11,6 C 13,3 C 12,2 C 53 % 1015,8 hPa 0,0 l/m 3,4 km/h (1 Bft) O 82 0 min 0,000 mm 0,0 UV-I 92 W/m 2,4 C 11,6 C 4,8 km/h (1 Bft) 98,00 %
07.05.2019 19:10 11,6 C 13,3 C 12,2 C 52 % 1015,8 hPa 0,0 l/m 3,7 km/h (1 Bft) O 82 0 min 0,000 mm 0,0 UV-I 90 W/m 2,1 C 11,6 C 6,4 km/h (2 Bft) 97,56 %
07.05.2019 19:12 11,5 C 13,3 C 12,2 C 51 % 1015,8 hPa 0,0 l/m 3,0 km/h (1 Bft) O 82 0 min 0,000 mm 0,0 UV-I 90 W/m 1,7 C 11,5 C 4,8 km/h (1 Bft) 95,74 %
07.05.2019 19:14 11,5 C 12,8 C 12,2 C 52 % 1015,8 hPa 0,0 l/m 3,7 km/h (1 Bft) O 82 0 min 0,000 mm 0,0 UV-I 88 W/m 2,0 C 11,5 C 4,8 km/h (1 Bft) 98,00 %
07.05.2019 19:16 11,5 C 13,3 C 12,2 C 54 % 1015,8 hPa 0,0 l/m 3,6 km/h (1 Bft) O 82 0 min 0,000 mm 0,0 UV-I 90 W/m 2,5 C 11,5 C 4,8 km/h (1 Bft) 97,56 %
07.05.2019 19:18 11,5 C 13,3 C 12,2 C 53 % 1015,8 hPa 0,0 l/m 4,2 km/h (1 Bft) O 82 0 min 0,000 mm 0,0 UV-I 90 W/m 2,3 C 11,5 C 6,4 km/h (2 Bft) 94,34 %
07.05.2019 19:20 11,5 C 13,3 C 12,2 C 53 % 1015,8 hPa 0,0 l/m 4,6 km/h (1 Bft) O-NO 57 2 min 0,000 mm 0,0 UV-I 90 W/m 2,3 C 11,5 C 6,4 km/h (2 Bft) 100,00 %
07.05.2019 19:22 11,4 C 13,3 C 12,2 C 54 % 1015,8 hPa 0,0 l/m 3,8 km/h (1 Bft) O-NO 67 2 min 0,000 mm 0,0 UV-I 93 W/m 2,4 C 11,4 C 4,8 km/h (1 Bft) 98,00 %
07.05.2019 19:24 11,4 C 13,3 C 12,8 C 57 % 1015,8 hPa 0,0 l/m 2,9 km/h (1 Bft) O-NO 67 2 min 0,000 mm 0,0 UV-I 107 W/m 3,2 C 11,4 C 4,8 km/h (1 Bft) 100,00 %
07.05.2019 19:26 11,4 C 12,8 C 13,3 C 58 % 1015,8 hPa 0,0 l/m 3,3 km/h (1 Bft) O-NO 67 2 min 0,000 mm 0,0 UV-I 124 W/m 3,4 C 11,4 C 4,8 km/h (1 Bft) 100,00 %
07.05.2019 19:28 11,4 C 12,8 C 13,9 C 58 % 1015,8 hPa 0,0 l/m 3,3 km/h (1 Bft) O-NO 67 2 min 0,000 mm 0,0 UV-I 133 W/m 3,4 C 11,4 C 4,8 km/h (1 Bft) 97,56 %
07.05.2019 19:30 11,6 C 12,8 C 14,4 C 54 % 1015,8 hPa 0,0 l/m 5,0 km/h (1 Bft) O 81 2 min 0,000 mm 0,0 UV-I 140 W/m 2,6 C 11,6 C 6,4 km/h (2 Bft) 100,00 %
07.05.2019 19:32 11,7 C 12,8 C 14,4 C 53 % 1015,8 hPa 0,0 l/m 5,8 km/h (2 Bft) O 88 2 min 0,000 mm 0,0 UV-I 144 W/m 2,4 C 11,7 C 8,0 km/h (2 Bft) 100,00 %
07.05.2019 19:34 11,8 C 12,8 C 14,4 C 55 % 1015,8 hPa 0,0 l/m 4,2 km/h (1 Bft) O-NO 77 2 min 0,000 mm 0,0 UV-I 141 W/m 3,1 C 11,8 C 6,4 km/h (2 Bft) 100,00 %
07.05.2019 19:36 11,8 C 12,8 C 14,4 C 56 % 1015,8 hPa 0,0 l/m 4,7 km/h (1 Bft) O 83 2 min 0,000 mm 0,0 UV-I 136 W/m 3,3 C 11,8 C 6,4 km/h (2 Bft) 100,00 %
07.05.2019 19:38 11,8 C 12,8 C 14,4 C 55 % 1015,8 hPa 0,0 l/m 5,2 km/h (1 Bft) O-NO 71 2 min 0,000 mm 0,0 UV-I 127 W/m 3,1 C 11,8 C 6,4 km/h (2 Bft) 97,92 %
07.05.2019 19:40 11,8 C 12,8 C 14,4 C 54 % 1015,8 hPa 0,0 l/m 4,6 km/h (1 Bft) O-NO 74 2 min 0,000 mm 0,0 UV-I 107 W/m 2,8 C 11,8 C 6,4 km/h (2 Bft) 100,00 %
07.05.2019 19:42 11,7 C 12,8 C 13,9 C 55 % 1015,8 hPa 0,0 l/m 4,9 km/h (1 Bft) O 89 2 min 0,000 mm 0,0 UV-I 97 W/m 3,0 C 11,7 C 6,4 km/h (2 Bft) 98,11 %
07.05.2019 19:44 11,6 C 12,8 C 13,3 C 54 % 1015,9 hPa 0,0 l/m 3,9 km/h (1 Bft) O 89 2 min 0,000 mm 0,0 UV-I 83 W/m 2,6 C 11,6 C 6,4 km/h (2 Bft) 95,74 %
07.05.2019 19:46 11,6 C 12,8 C 12,8 C 54 % 1015,8 hPa 0,0 l/m 3,8 km/h (1 Bft) O 88 2 min 0,000 mm 0,0 UV-I 79 W/m 2,6 C 11,6 C 6,4 km/h (2 Bft) 97,56 %
07.05.2019 19:48 11,5 C 12,8 C 12,8 C 56 % 1015,8 hPa 0,0 l/m 4,3 km/h (1 Bft) O 90 2 min 0,000 mm 0,0 UV-I 78 W/m 3,0 C 11,5 C 6,4 km/h (2 Bft) 97,87 %
07.05.2019 19:50 11,4 C 12,8 C 12,2 C 56 % 1015,7 hPa 0,0 l/m 4,9 km/h (1 Bft) O 96 2 min 0,000 mm 0,0 UV-I 77 W/m 2,9 C 11,4 C 9,7 km/h (2 Bft) 95,74 %
07.05.2019 19:52 11,3 C 12,8 C 12,2 C 56 % 1015,7 hPa 0,0 l/m 5,3 km/h (1 Bft) O 81 2 min 0,000 mm 0,0 UV-I 77 W/m 2,8 C 11,3 C 11,3 km/h (2 Bft) 96,23 %
07.05.2019 19:54 11,2 C 12,8 C 11,7 C 56 % 1015,8 hPa 0,0 l/m 4,9 km/h (1 Bft) O-NO 72 2 min 0,000 mm 0,0 UV-I 78 W/m 2,8 C 11,2 C 8,0 km/h (2 Bft) 97,56 %
07.05.2019 19:56 11,2 C 12,8 C 11,7 C 56 % 1015,8 hPa 0,0 l/m 5,8 km/h (2 Bft) O-NO 71 2 min 0,000 mm 0,0 UV-I 77 W/m 2,8 C 11,2 C 8,0 km/h (2 Bft) 96,43 %
07.05.2019 19:58 11,2 C 12,8 C 11,7 C 55 % 1015,8 hPa 0,0 l/m 5,5 km/h (1 Bft) O 79 2 min 0,000 mm 0,0 UV-I 75 W/m 2,5 C 11,2 C 8,0 km/h (2 Bft) 95,74 %
07.05.2019 20:00 11,1 C 12,8 C 11,1 C 55 % 1015,8 hPa 0,0 l/m 5,3 km/h (1 Bft) O-NO 76 2 min 0,000 mm 0,0 UV-I 70 W/m 2,4 C 11,1 C 8,0 km/h (2 Bft) 100,00 %
07.05.2019 20:02 11,1 C 12,8 C 11,1 C 55 % 1015,8 hPa 0,0 l/m 5,3 km/h (1 Bft) O-NO 78 2 min 0,076 mm 0,0 UV-I 64 W/m 2,4 C 11,1 C 6,4 km/h (2 Bft) 97,87 %
07.05.2019 20:04 11,1 C 12,8 C 10,6 C 56 % 1015,8 hPa 0,0 l/m 4,8 km/h (1 Bft) O-NO 78 2 min 0,000 mm 0,0 UV-I 54 W/m 2,7 C 11,1 C 6,4 km/h (2 Bft) 98,00 %
07.05.2019 20:06 11,0 C 12,8 C 10,0 C 58 % 1015,8 hPa 0,0 l/m 5,1 km/h (1 Bft) O 83 2 min 0,000 mm 0,0 UV-I 47 W/m 3,1 C 11,0 C 6,4 km/h (2 Bft) 95,74 %
07.05.2019 20:08 10,9 C 12,8 C 10,0 C 58 % 1015,8 hPa 0,0 l/m 5,7 km/h (1 Bft) O-NO 60 2 min 0,000 mm 0,0 UV-I 39 W/m 3,0 C 10,9 C 8,0 km/h (2 Bft) 92,59 %
07.05.2019 20:10 10,8 C 12,8 C 9,4 C 59 % 1015,8 hPa 0,0 l/m 6,3 km/h (2 Bft) O-NO 78 2 min 0,000 mm 0,0 UV-I 30 W/m 3,1 C 10,8 C 8,0 km/h (2 Bft) 95,31 %
07.05.2019 20:12 10,7 C 12,8 C 8,9 C 58 % 1015,8 hPa 0,0 l/m 6,8 km/h (2 Bft) O-NO 76 2 min 0,000 mm 0,0 UV-I 25 W/m 2,8 C 10,4 C 11,3 km/h (2 Bft) 94,87 %
07.05.2019 20:14 10,6 C 12,8 C 8,9 C 59 % 1015,8 hPa 0,0 l/m 6,1 km/h (2 Bft) O 93 0 min 0,000 mm 0,0 UV-I 19 W/m 2,9 C 10,6 C 8,0 km/h (2 Bft) 96,00 %
07.05.2019 20:16 10,4 C 12,8 C 8,3 C 61 % 1015,8 hPa 0,0 l/m 8,6 km/h (2 Bft) O-SO 104 0 min 0,000 mm 0,0 UV-I 16 W/m 3,2 C 8,9 C 11,3 km/h (2 Bft) 96,00 %
07.05.2019 20:18 10,3 C 12,8 C 7,8 C 61 % 1015,7 hPa 0,0 l/m 5,6 km/h (1 Bft) O 101 0 min 0,000 mm 0,0 UV-I 13 W/m 3,1 C 10,3 C 9,7 km/h (2 Bft) 96,00 %
07.05.2019 20:20 10,1 C 12,8 C 7,8 C 63 % 1015,7 hPa 0,0 l/m 9,4 km/h (2 Bft) O-SO 115 0 min 0,000 mm 0,0 UV-I 11 W/m 3,4 C 8,1 C 11,3 km/h (2 Bft) 95,12 %
07.05.2019 20:22 10,1 C 12,8 C 7,2 C 60 % 1015,7 hPa 0,0 l/m 5,3 km/h (1 Bft) O-SO 105 0 min 0,000 mm 0,0 UV-I 10 W/m 2,7 C 10,1 C 9,7 km/h (2 Bft) 93,62 %
07.05.2019 20:24 10,0 C 12,8 C 7,2 C 60 % 1015,7 hPa 0,0 l/m 5,7 km/h (1 Bft) O 98 0 min 0,000 mm 0,0 UV-I 8 W/m 2,6 C 10,0 C 9,7 km/h (2 Bft) 93,62 %
07.05.2019 20:26 9,9 C 12,8 C 6,7 C 60 % 1015,7 hPa 0,0 l/m 4,2 km/h (1 Bft) O-SO 112 0 min 0,000 mm 0,0 UV-I 7 W/m 2,5 C 9,9 C 6,4 km/h (2 Bft) 94,34 %
07.05.2019 20:28 9,9 C 12,8 C 6,1 C 60 % 1015,7 hPa 0,0 l/m 4,5 km/h (1 Bft) O-SO 102 0 min 0,000 mm 0,0 UV-I 7 W/m 2,5 C 9,9 C 6,4 km/h (2 Bft) 96,00 %
07.05.2019 20:30 9,7 C 12,8 C 6,1 C 60 % 1015,8 hPa 0,0 l/m 4,0 km/h (1 Bft) O-SO 103 0 min 0,000 mm 0,0 UV-I 5 W/m 2,3 C 9,7 C 4,8 km/h (1 Bft) 97,87 %
07.05.2019 20:32 9,7 C 12,8 C 5,6 C 61 % 1015,8 hPa 0,0 l/m 4,9 km/h (1 Bft) O 88 0 min 0,000 mm 0,0 UV-I 5 W/m 2,5 C 9,7 C 6,4 km/h (2 Bft) 97,37 %
07.05.2019 20:34 9,6 C 12,8 C 5,6 C 61 % 1015,7 hPa 0,0 l/m 5,0 km/h (1 Bft) O-SO 107 0 min 0,000 mm 0,0 UV-I 5 W/m 2,5 C 9,6 C 6,4 km/h (2 Bft) 98,00 %
07.05.2019 20:36 9,5 C 12,8 C 5,6 C 61 % 1015,6 hPa 0,0 l/m 5,2 km/h (1 Bft) O-SO 107 0 min 0,000 mm 0,0 UV-I 5 W/m 2,4 C 9,5 C 9,7 km/h (2 Bft) 98,11 %
07.05.2019 20:38 9,4 C 12,8 C 5,6 C 61 % 1015,7 hPa 0,0 l/m 5,7 km/h (1 Bft) O-SO 109 0 min 0,000 mm 0,0 UV-I 3 W/m 2,3 C 9,4 C 9,7 km/h (2 Bft) 97,14 %
07.05.2019 20:40 9,4 C 12,8 C 5,0 C 62 % 1015,7 hPa 0,0 l/m 4,0 km/h (1 Bft) O-SO 120 0 min 0,000 mm 0,0 UV-I 0 W/m 2,5 C 9,4 C 6,4 km/h (2 Bft) 98,21 %
07.05.2019 20:42 9,4 C 12,8 C 5,6 C 61 % 1015,7 hPa 0,0 l/m 4,5 km/h (1 Bft) SO 124 0 min 0,000 mm 0,0 UV-I 0 W/m 2,3 C 9,4 C 6,4 km/h (2 Bft) 97,37 %
07.05.2019 20:44 9,4 C 12,8 C 5,0 C 61 % 1015,7 hPa 0,0 l/m 4,0 km/h (1 Bft) O-SO 104 0 min 0,000 mm 0,0 UV-I 0 W/m 2,3 C 9,4 C 6,4 km/h (2 Bft) 94,00 %
07.05.2019 20:46 9,3 C 12,8 C 5,0 C 62 % 1015,7 hPa 0,0 l/m 5,0 km/h (1 Bft) O-SO 109 0 min 0,000 mm 0,0 UV-I 0 W/m 2,4 C 9,3 C 6,4 km/h (2 Bft) 96,23 %
07.05.2019 20:48 9,3 C 12,8 C 4,4 C 61 % 1015,7 hPa 0,0 l/m 5,7 km/h (1 Bft) O-SO 122 0 min 0,000 mm 0,0 UV-I 0 W/m 2,2 C 9,3 C 9,7 km/h (2 Bft) 94,87 %
07.05.2019 20:50 9,3 C 12,8 C 4,4 C 61 % 1015,7 hPa 0,0 l/m 4,3 km/h (1 Bft) O-SO 117 0 min 0,000 mm 0,0 UV-I 0 W/m 2,2 C 9,3 C 6,4 km/h (2 Bft) 92,00 %
07.05.2019 20:52 9,3 C 12,8 C 5,0 C 61 % 1015,6 hPa 0,0 l/m 6,8 km/h (2 Bft) O-SO 113 0 min 0,000 mm 0,0 UV-I 0 W/m 2,2 C 9,0 C 11,3 km/h (2 Bft) 95,92 %
07.05.2019 20:54 9,3 C 12,8 C 4,4 C 61 % 1015,6 hPa 0,0 l/m 4,0 km/h (1 Bft) O-SO 112 0 min 0,000 mm 0,0 UV-I 0 W/m 2,2 C 9,3 C 4,8 km/h (1 Bft) 97,92 %
07.05.2019 20:56 9,2 C 12,8 C 4,4 C 61 % 1015,6 hPa 0,0 l/m 5,6 km/h (1 Bft) O-SO 113 0 min 0,000 mm 0,0 UV-I 0 W/m 2,1 C 9,2 C 9,7 km/h (2 Bft) 98,00 %
07.05.2019 20:58 9,2 C 12,8 C 5,0 C 61 % 1015,7 hPa 0,0 l/m 5,8 km/h (2 Bft) O-SO 105 0 min 0,000 mm 0,0 UV-I 0 W/m 2,1 C 9,2 C 9,7 km/h (2 Bft) 97,37 %
07.05.2019 21:00 9,1 C 12,8 C 4,4 C 62 % 1015,7 hPa 0,0 l/m 7,0 km/h (2 Bft) O-SO 111 0 min 0,026 mm 0,0 UV-I 0 W/m 2,2 C 8,7 C 9,7 km/h (2 Bft) 94,00 %
07.05.2019 21:02 9,1 C 12,8 C 4,4 C 62 % 1015,7 hPa 0,0 l/m 5,5 km/h (1 Bft) O-SO 115 0 min 0,000 mm 0,0 UV-I 0 W/m 2,2 C 9,1 C 9,7 km/h (2 Bft) 98,00 %
07.05.2019 21:04 9,1 C 12,8 C 4,4 C 62 % 1015,7 hPa 0,0 l/m 8,1 km/h (2 Bft) O-SO 103 0 min 0,000 mm 0,0 UV-I 0 W/m 2,2 C 7,8 C 11,3 km/h (2 Bft) 95,12 %
07.05.2019 21:06 9,1 C 12,8 C 4,4 C 62 % 1015,7 hPa 0,0 l/m 6,2 km/h (2 Bft) O-SO 109 0 min 0,000 mm 0,0 UV-I 0 W/m 2,2 C 9,1 C 11,3 km/h (2 Bft) 97,87 %
07.05.2019 21:08 8,9 C 12,8 C 4,4 C 62 % 1015,7 hPa 0,0 l/m 6,0 km/h (2 Bft) O-SO 107 0 min 0,000 mm 0,0 UV-I 0 W/m 2,0 C 8,9 C 9,7 km/h (2 Bft) 95,12 %
07.05.2019 21:10 8,9 C 12,8 C 4,4 C 62 % 1015,7 hPa 0,0 l/m 6,3 km/h (2 Bft) O 100 0 min 0,000 mm 0,0 UV-I 0 W/m 2,0 C 8,9 C 11,3 km/h (2 Bft) 98,11 %
07.05.2019 21:12 9,0 C 12,8 C 4,4 C 62 % 1015,7 hPa 0,0 l/m 4,7 km/h (1 Bft) O-SO 109 0 min 0,000 mm 0,0 UV-I 0 W/m 2,1 C 9,0 C 6,4 km/h (2 Bft) 97,87 %
07.05.2019 21:14 8,9 C 12,8 C 4,4 C 63 % 1015,7 hPa 0,0 l/m 4,4 km/h (1 Bft) O-SO 109 0 min 0,000 mm 0,0 UV-I 0 W/m 2,2 C 8,9 C 6,4 km/h (2 Bft) 98,00 %
07.05.2019 21:16 8,9 C 12,8 C 3,9 C 64 % 1015,7 hPa 0,0 l/m 5,2 km/h (1 Bft) O 97 0 min 0,000 mm 0,0 UV-I 0 W/m 2,5 C 8,9 C 9,7 km/h (2 Bft) 97,87 %
07.05.2019 21:18 8,9 C 12,8 C 3,9 C 63 % 1015,8 hPa 0,0 l/m 4,8 km/h (1 Bft) O-SO 108 0 min 0,000 mm 0,0 UV-I 0 W/m 2,2 C 8,9 C 8,0 km/h (2 Bft) 93,62 %
07.05.2019 21:20 8,8 C 12,8 C 3,9 C 64 % 1015,8 hPa 0,0 l/m 5,1 km/h (1 Bft) O-SO 109 0 min 0,000 mm 0,0 UV-I 0 W/m 2,4 C 8,8 C 9,7 km/h (2 Bft) 98,00 %
07.05.2019 21:22 8,7 C 12,8 C 3,9 C 64 % 1015,8 hPa 0,0 l/m 4,7 km/h (1 Bft) O-SO 114 0 min 0,000 mm 0,0 UV-I 0 W/m 2,3 C 8,7 C 6,4 km/h (2 Bft) 100,00 %
07.05.2019 21:24 8,6 C 12,8 C 3,9 C 65 % 1015,7 hPa 0,0 l/m 5,1 km/h (1 Bft) O-SO 113 0 min 0,000 mm 0,0 UV-I 0 W/m 2,4 C 8,6 C 6,4 km/h (2 Bft) 94,00 %
07.05.2019 21:26 8,3 C 12,8 C 3,9 C 66 % 1015,7 hPa 0,0 l/m 4,5 km/h (1 Bft) O-SO 117 0 min 0,000 mm 0,0 UV-I 0 W/m 2,3 C 8,3 C 9,7 km/h (2 Bft) 98,11 %
07.05.2019 21:28 8,2 C 12,8 C 3,9 C 67 % 1015,7 hPa 0,0 l/m 6,7 km/h (2 Bft) O-SO 111 0 min 0,000 mm 0,0 UV-I 0 W/m 2,4 C 8,0 C 11,3 km/h (2 Bft) 97,22 %
07.05.2019 21:30 8,1 C 12,8 C 3,3 C 67 % 1015,7 hPa 0,0 l/m 5,3 km/h (1 Bft) O-SO 118 0 min 0,000 mm 0,0 UV-I 0 W/m 2,3 C 8,1 C 6,4 km/h (2 Bft) 96,55 %
07.05.2019 21:32 8,2 C 12,8 C 3,3 C 66 % 1015,7 hPa 0,0 l/m 4,5 km/h (1 Bft) O 91 0 min 0,000 mm 0,0 UV-I 0 W/m 2,2 C 8,2 C 9,7 km/h (2 Bft) 97,22 %
07.05.2019 21:34 8,4 C 12,8 C 3,3 C 65 % 1015,8 hPa 0,0 l/m 3,2 km/h (1 Bft) O 91 0 min 0,000 mm 0,0 UV-I 0 W/m 2,2 C 8,4 C 6,4 km/h (2 Bft) 95,74 %
07.05.2019 21:36 8,5 C 12,8 C 3,3 C 65 % 1015,7 hPa 0,0 l/m 4,1 km/h (1 Bft) O 98 0 min 0,000 mm 0,0 UV-I 0 W/m 2,3 C 8,5 C 4,8 km/h (1 Bft) 98,00 %
07.05.2019 21:38 8,4 C 12,8 C 3,3 C 66 % 1015,6 hPa 0,0 l/m 5,6 km/h (1 Bft) O-SO 116 0 min 0,000 mm 0,0 UV-I 0 W/m 2,4 C 8,4 C 9,7 km/h (2 Bft) 95,45 %
07.05.2019 21:40 8,3 C 12,8 C 3,3 C 66 % 1015,7 hPa 0,0 l/m 4,3 km/h (1 Bft) O-SO 109 0 min 0,000 mm 0,0 UV-I 0 W/m 2,3 C 8,3 C 9,7 km/h (2 Bft) 96,00 %
07.05.2019 21:42 8,2 C 12,8 C 3,3 C 67 % 1015,7 hPa 0,0 l/m 5,5 km/h (1 Bft) O 97 0 min 0,000 mm 0,0 UV-I 0 W/m 2,4 C 8,2 C 9,7 km/h (2 Bft) 95,74 %
07.05.2019 21:44 8,1 C 12,8 C 3,3 C 67 % 1015,6 hPa 0,0 l/m 4,7 km/h (1 Bft) O 99 0 min 0,000 mm 0,0 UV-I 0 W/m 2,3 C 8,1 C 6,4 km/h (2 Bft) 94,00 %
07.05.2019 21:46 8,2 C 12,8 C 3,3 C 66 % 1015,6 hPa 0,0 l/m 5,3 km/h (1 Bft) O-SO 110 0 min 0,000 mm 0,0 UV-I 0 W/m 2,2 C 8,2 C 9,7 km/h (2 Bft) 96,00 %
07.05.2019 21:48 8,3 C 12,8 C 3,3 C 65 % 1015,6 hPa 0,0 l/m 5,3 km/h (1 Bft) O 94 0 min 0,000 mm 0,0 UV-I 0 W/m 2,1 C 8,3 C 9,7 km/h (2 Bft) 100,00 %
07.05.2019 21:50 8,3 C 12,8 C 3,3 C 65 % 1015,6 hPa 0,0 l/m 5,9 km/h (2 Bft) O-SO 111 0 min 0,000 mm 0,0 UV-I 0 W/m 2,1 C 8,3 C 9,7 km/h (2 Bft) 98,00 %
07.05.2019 21:52 8,3 C 12,8 C 3,3 C 66 % 1015,7 hPa 0,0 l/m 5,1 km/h (1 Bft) O 99 0 min 0,000 mm 0,0 UV-I 0 W/m 2,3 C 8,3 C 6,4 km/h (2 Bft) 100,00 %
07.05.2019 21:54 8,3 C 12,8 C 3,9 C 66 % 1015,7 hPa 0,0 l/m 4,3 km/h (1 Bft) O 99 0 min 0,000 mm 0,0 UV-I 0 W/m 2,3 C 8,3 C 6,4 km/h (2 Bft) 97,73 %
07.05.2019 21:56 8,3 C 12,8 C 3,3 C 66 % 1015,6 hPa 0,0 l/m 5,1 km/h (1 Bft) O-SO 106 0 min 0,000 mm 0,0 UV-I 0 W/m 2,3 C 8,3 C 6,4 km/h (2 Bft) 95,74 %
07.05.2019 21:58 8,2 C 12,8 C 3,3 C 67 % 1015,6 hPa 0,0 l/m 5,1 km/h (1 Bft) O-SO 102 0 min 0,000 mm 0,0 UV-I 0 W/m 2,4 C 8,2 C 6,4 km/h (2 Bft) 100,00 %
07.05.2019 22:00 8,2 C 12,8 C 3,3 C 67 % 1015,6 hPa 0,0 l/m 4,1 km/h (1 Bft) O 94 0 min 0,000 mm 0,0 UV-I 0 W/m 2,4 C 8,2 C 4,8 km/h (1 Bft) 100,00 %
07.05.2019 22:02 8,1 C 12,8 C 3,3 C 67 % 1015,6 hPa 0,0 l/m 3,9 km/h (1 Bft) O 94 0 min 0,025 mm 0,0 UV-I 0 W/m 2,3 C 8,1 C 6,4 km/h (2 Bft) 97,87 %
07.05.2019 22:04 8,1 C 12,8 C 3,3 C 67 % 1015,5 hPa 0,0 l/m 4,1 km/h (1 Bft) O 94 0 min 0,000 mm 0,0 UV-I 0 W/m 2,3 C 8,1 C 6,4 km/h (2 Bft) 100,00 %
07.05.2019 22:06 7,9 C 12,8 C 3,3 C 68 % 1015,5 hPa 0,0 l/m 5,4 km/h (1 Bft) O-SO 108 0 min 0,000 mm 0,0 UV-I 0 W/m 2,4 C 7,9 C 9,7 km/h (2 Bft) 100,00 %
07.05.2019 22:08 7,9 C 12,8 C 2,8 C 69 % 1015,5 hPa 0,0 l/m 4,8 km/h (1 Bft) O-SO 112 0 min 0,000 mm 0,0 UV-I 0 W/m 2,6 C 7,9 C 11,3 km/h (2 Bft) 100,00 %
07.05.2019 22:10 7,8 C 12,8 C 2,8 C 69 % 1015,5 hPa 0,0 l/m 6,3 km/h (2 Bft) O-SO 107 0 min 0,000 mm 0,0 UV-I 0 W/m 2,5 C 7,8 C 11,3 km/h (2 Bft) 100,00 %
07.05.2019 22:12 7,8 C 12,8 C 3,3 C 69 % 1015,5 hPa 0,0 l/m 4,6 km/h (1 Bft) O-SO 104 0 min 0,000 mm 0,0 UV-I 0 W/m 2,5 C 7,8 C 6,4 km/h (2 Bft) 97,87 %
07.05.2019 22:14 7,8 C 12,8 C 3,3 C 69 % 1015,5 hPa 0,0 l/m 4,4 km/h (1 Bft) O 94 0 min 0,000 mm 0,0 UV-I 0 W/m 2,5 C 7,8 C 6,4 km/h (2 Bft) 100,00 %
07.05.2019 22:16 7,9 C 12,8 C 3,3 C 69 % 1015,5 hPa 0,0 l/m 5,6 km/h (1 Bft) O-SO 107 0 min 0,000 mm 0,0 UV-I 0 W/m 2,6 C 7,9 C 9,7 km/h (2 Bft) 100,00 %
07.05.2019 22:18 7,9 C 12,8 C 3,3 C 68 % 1015,5 hPa 0,0 l/m 5,3 km/h (1 Bft) O-SO 107 0 min 0,000 mm 0,0 UV-I 0 W/m 2,4 C 7,9 C 6,4 km/h (2 Bft) 100,00 %
07.05.2019 22:20 7,9 C 12,8 C 3,3 C 68 % 1015,5 hPa 0,0 l/m 5,6 km/h (1 Bft) O-SO 107 0 min 0,000 mm 0,0 UV-I 0 W/m 2,4 C 7,9 C 9,7 km/h (2 Bft) 97,87 %
07.05.2019 22:22 7,9 C 12,8 C 3,9 C 68 % 1015,5 hPa 0,0 l/m 6,0 km/h (2 Bft) O 94 0 min 0,000 mm 0,0 UV-I 0 W/m 2,4 C 7,9 C 9,7 km/h (2 Bft) 100,00 %
07.05.2019 22:24 7,9 C 12,8 C 3,9 C 69 % 1015,5 hPa 0,0 l/m 5,5 km/h (1 Bft) O-SO 105 0 min 0,000 mm 0,0 UV-I 0 W/m 2,6 C 7,9 C 9,7 km/h (2 Bft) 100,00 %
07.05.2019 22:26 7,8 C 12,8 C 3,3 C 69 % 1015,5 hPa 0,0 l/m 6,1 km/h (2 Bft) O-SO 110 0 min 0,000 mm 0,0 UV-I 0 W/m 2,5 C 7,8 C 11,3 km/h (2 Bft) 98,00 %
07.05.2019 22:28 7,7 C 12,8 C 3,3 C 69 % 1015,5 hPa 0,0 l/m 6,5 km/h (2 Bft) O-SO 113 0 min 0,000 mm 0,0 UV-I 0 W/m 2,4 C 7,6 C 11,3 km/h (2 Bft) 97,87 %
07.05.2019 22:30 7,6 C 12,8 C 3,9 C 70 % 1015,4 hPa 0,0 l/m 6,0 km/h (2 Bft) O-SO 115 0 min 0,000 mm 0,0 UV-I 0 W/m 2,5 C 7,6 C 11,3 km/h (2 Bft) 100,00 %
07.05.2019 22:32 7,6 C 12,8 C 3,9 C 70 % 1015,4 hPa 0,0 l/m 6,4 km/h (2 Bft) O-SO 120 0 min 0,000 mm 0,0 UV-I 0 W/m 2,5 C 7,6 C 11,3 km/h (2 Bft) 100,00 %
07.05.2019 22:34 7,6 C 12,8 C 3,9 C 70 % 1015,4 hPa 0,0 l/m 5,8 km/h (2 Bft) O 101 0 min 0,000 mm 0,0 UV-I 0 W/m 2,5 C 7,6 C 9,7 km/h (2 Bft) 100,00 %
07.05.2019 22:36 7,5 C 12,8 C 3,3 C 70 % 1015,4 hPa 0,0 l/m 6,1 km/h (2 Bft) O-SO 117 0 min 0,000 mm 0,0 UV-I 0 W/m 2,4 C 7,5 C 9,7 km/h (2 Bft) 95,12 %
07.05.2019 22:39 7,4 C 12,8 C 3,3 C 71 % 1015,4 hPa 0,0 l/m 5,5 km/h (1 Bft) O-SO 105 0 min 0,000 mm 0,0 UV-I 0 W/m 2,5 C 7,4 C 9,7 km/h (2 Bft) 100,00 %
07.05.2019 22:40 7,4 C 12,8 C 3,3 C 71 % 1015,4 hPa 0,0 l/m 7,2 km/h (2 Bft) O-SO 104 0 min 0,000 mm 0,0 UV-I 0 W/m 2,5 C 6,8 C 11,3 km/h (2 Bft) 100,00 %
07.05.2019 22:42 7,4 C 12,8 C 3,3 C 71 % 1015,4 hPa 0,0 l/m 6,8 km/h (2 Bft) O-SO 123 0 min 0,000 mm 0,0 UV-I 0 W/m 2,5 C 7,1 C 11,3 km/h (2 Bft) 97,87 %
07.05.2019 22:44 7,4 C 12,8 C 3,3 C 70 % 1015,4 hPa 0,0 l/m 5,9 km/h (2 Bft) O 99 0 min 0,000 mm 0,0 UV-I 0 W/m 2,3 C 7,4 C 9,7 km/h (2 Bft) 95,74 %
07.05.2019 22:46 7,6 C 12,8 C 3,3 C 70 % 1015,4 hPa 0,0 l/m 8,6 km/h (2 Bft) O-SO 102 0 min 0,000 mm 0,0 UV-I 0 W/m 2,5 C 5,9 C 12,9 km/h (3 Bft) 97,87 %
07.05.2019 22:48 7,7 C 12,8 C 3,9 C 69 % 1015,4 hPa 0,0 l/m 7,7 km/h (2 Bft) O 94 0 min 0,000 mm 0,0 UV-I 0 W/m 2,4 C 6,7 C 11,3 km/h (2 Bft) 96,23 %
07.05.2019 22:50 7,7 C 12,8 C 3,9 C 69 % 1015,4 hPa 0,0 l/m 7,4 km/h (2 Bft) O-SO 111 0 min 0,000 mm 0,0 UV-I 0 W/m 2,4 C 6,9 C 12,9 km/h (3 Bft) 97,37 %
07.05.2019 22:52 7,7 C 12,8 C 3,9 C 69 % 1015,4 hPa 0,0 l/m 6,6 km/h (2 Bft) O-SO 113 0 min 0,000 mm 0,0 UV-I 0 W/m 2,4 C 7,6 C 11,3 km/h (2 Bft) 96,43 %
07.05.2019 22:54 7,8 C 12,8 C 3,9 C 68 % 1015,4 hPa 0,0 l/m 8,3 km/h (2 Bft) O 98 0 min 0,000 mm 0,0 UV-I 0 W/m 2,3 C 6,3 C 12,9 km/h (3 Bft) 97,37 %
07.05.2019 22:56 7,9 C 12,8 C 3,9 C 67 % 1015,4 hPa 0,0 l/m 6,5 km/h (2 Bft) O-SO 108 0 min 0,000 mm 0,0 UV-I 0 W/m 2,2 C 7,8 C 12,9 km/h (3 Bft) 93,62 %
07.05.2019 22:58 7,9 C 12,8 C 3,9 C 67 % 1015,4 hPa 0,0 l/m 6,2 km/h (2 Bft) O 92 0 min 0,000 mm 0,0 UV-I 0 W/m 2,2 C 7,9 C 9,7 km/h (2 Bft) 96,23 %
07.05.2019 23:00 7,9 C 12,8 C 3,9 C 67 % 1015,4 hPa 0,0 l/m 6,6 km/h (2 Bft) O-SO 104 0 min 0,000 mm 0,0 UV-I 0 W/m 2,2 C 7,8 C 9,7 km/h (2 Bft) 91,30 %
07.05.2019 23:02 7,8 C 12,8 C 3,9 C 68 % 1015,4 hPa 0,0 l/m 6,2 km/h (2 Bft) O-SO 109 0 min 0,025 mm 0,0 UV-I 0 W/m 2,3 C 7,8 C 9,7 km/h (2 Bft) 95,95 %
07.05.2019 23:04 7,6 C 12,8 C 3,9 C 69 % 1015,4 hPa 0,0 l/m 6,8 km/h (2 Bft) O-SO 109 0 min 0,000 mm 0,0 UV-I 0 W/m 2,3 C 7,3 C 11,3 km/h (2 Bft) 97,37 %
07.05.2019 23:06 7,5 C 12,8 C 3,9 C 69 % 1015,4 hPa 0,0 l/m 7,4 km/h (2 Bft) O-SO 109 0 min 0,000 mm 0,0 UV-I 0 W/m 2,2 C 6,7 C 14,5 km/h (3 Bft) 91,49 %
07.05.2019 23:08 7,6 C 12,8 C 3,9 C 69 % 1015,3 hPa 0,0 l/m 9,1 km/h (2 Bft) O-SO 111 0 min 0,000 mm 0,0 UV-I 0 W/m 2,3 C 5,5 C 14,5 km/h (3 Bft) 98,00 %
07.05.2019 23:10 7,6 C 12,8 C 3,9 C 69 % 1015,3 hPa 0,0 l/m 8,8 km/h (2 Bft) O-SO 112 0 min 0,000 mm 0,0 UV-I 0 W/m 2,3 C 5,7 C 12,9 km/h (3 Bft) 94,00 %
07.05.2019 23:12 7,7 C 12,8 C 3,9 C 68 % 1015,3 hPa 0,0 l/m 9,1 km/h (2 Bft) O 92 0 min 0,000 mm 0,0 UV-I 0 W/m 2,2 C 5,6 C 12,9 km/h (3 Bft) 95,74 %
07.05.2019 23:14 7,7 C 12,8 C 3,9 C 68 % 1015,3 hPa 0,0 l/m 9,1 km/h (2 Bft) O-SO 106 0 min 0,000 mm 0,0 UV-I 0 W/m 2,2 C 5,6 C 11,3 km/h (2 Bft) 94,74 %
07.05.2019 23:16 7,6 C 12,8 C 3,9 C 69 % 1015,3 hPa 0,0 l/m 7,9 km/h (2 Bft) O-SO 103 0 min 0,000 mm 0,0 UV-I 0 W/m 2,3 C 6,4 C 12,9 km/h (3 Bft) 95,74 %
07.05.2019 23:18 7,6 C 12,8 C 3,9 C 68 % 1015,3 hPa 0,0 l/m 7,3 km/h (2 Bft) O 92 0 min 0,000 mm 0,0 UV-I 0 W/m 2,1 C 6,9 C 11,3 km/h (2 Bft) 96,00 %
07.05.2019 23:20 7,6 C 12,8 C 3,9 C 69 % 1015,3 hPa 0,0 l/m 6,0 km/h (2 Bft) O-SO 106 0 min 0,000 mm 0,0 UV-I 0 W/m 2,3 C 7,6 C 9,7 km/h (2 Bft) 94,34 %
07.05.2019 23:22 7,6 C 12,8 C 3,9 C 69 % 1015,3 hPa 0,0 l/m 6,2 km/h (2 Bft) O 87 0 min 0,000 mm 0,0 UV-I 0 W/m 2,3 C 7,6 C 11,3 km/h (2 Bft) 95,24 %
07.05.2019 23:24 7,6 C 12,8 C 3,9 C 69 % 1015,3 hPa 0,0 l/m 7,3 km/h (2 Bft) O-SO 107 0 min 0,000 mm 0,0 UV-I 0 W/m 2,3 C 6,9 C 11,3 km/h (2 Bft) 95,74 %
07.05.2019 23:26 7,5 C 12,8 C 3,9 C 69 % 1015,3 hPa 0,0 l/m 5,8 km/h (2 Bft) O 94 0 min 0,000 mm 0,0 UV-I 0 W/m 2,2 C 7,5 C 9,7 km/h (2 Bft) 95,74 %
07.05.2019 23:28 7,4 C 12,8 C 3,9 C 69 % 1015,3 hPa 0,0 l/m 6,1 km/h (2 Bft) O 93 0 min 0,000 mm 0,0 UV-I 0 W/m 2,1 C 7,4 C 9,7 km/h (2 Bft) 94,00 %
07.05.2019 23:30 7,4 C 12,8 C 3,9 C 69 % 1015,3 hPa 0,0 l/m 5,5 km/h (1 Bft) O 92 0 min 0,000 mm 0,0 UV-I 0 W/m 2,1 C 7,4 C 9,7 km/h (2 Bft) 93,62 %
07.05.2019 23:32 7,3 C 12,8 C 3,9 C 70 % 1015,3 hPa 0,0 l/m 5,0 km/h (1 Bft) O 98 0 min 0,000 mm 0,0 UV-I 0 W/m 2,2 C 7,3 C 6,4 km/h (2 Bft) 100,00 %
07.05.2019 23:34 7,3 C 12,8 C 3,3 C 70 % 1015,3 hPa 0,0 l/m 5,4 km/h (1 Bft) O 84 0 min 0,000 mm 0,0 UV-I 0 W/m 2,2 C 7,3 C 9,7 km/h (2 Bft) 96,23 %
07.05.2019 23:36 7,3 C 12,8 C 3,3 C 70 % 1015,3 hPa 0,0 l/m 4,1 km/h (1 Bft) O-SO 111 0 min 0,000 mm 0,0 UV-I 0 W/m 2,2 C 7,3 C 6,4 km/h (2 Bft) 97,73 %
07.05.2019 23:38 7,3 C 12,8 C 3,9 C 70 % 1015,3 hPa 0,0 l/m 3,3 km/h (1 Bft) O 91 0 min 0,000 mm 0,0 UV-I 0 W/m 2,2 C 7,3 C 4,8 km/h (1 Bft) 95,74 %
07.05.2019 23:40 7,1 C 12,8 C 3,3 C 71 % 1015,2 hPa 0,0 l/m 4,6 km/h (1 Bft) O 89 0 min 0,000 mm 0,0 UV-I 0 W/m 2,2 C 7,1 C 6,4 km/h (2 Bft) 97,73 %
07.05.2019 23:42 6,8 C 12,8 C 2,8 C 72 % 1015,2 hPa 0,0 l/m 4,0 km/h (1 Bft) O 89 0 min 0,000 mm 0,0 UV-I 0 W/m 2,1 C 6,8 C 4,8 km/h (1 Bft) 97,14 %
07.05.2019 23:44 6,6 C 12,8 C 2,8 C 73 % 1015,2 hPa 0,0 l/m 4,3 km/h (1 Bft) O 87 0 min 0,000 mm 0,0 UV-I 0 W/m 2,1 C 6,6 C 6,4 km/h (2 Bft) 98,39 %
07.05.2019 23:46 6,6 C 12,8 C 2,8 C 73 % 1015,2 hPa 0,0 l/m 5,7 km/h (1 Bft) O 85 0 min 0,000 mm 0,0 UV-I 0 W/m 2,1 C 6,6 C 6,4 km/h (2 Bft) 97,37 %
07.05.2019 23:49 6,6 C 12,8 C 2,8 C 74 % 1015,1 hPa 0,0 l/m 5,3 km/h (1 Bft) O 94 0 min 0,000 mm 0,0 UV-I 0 W/m 2,3 C 6,6 C 8,0 km/h (2 Bft) 97,67 %
07.05.2019 23:50 6,5 C 12,8 C 2,8 C 74 % 1015,1 hPa 0,0 l/m 5,1 km/h (1 Bft) O 86 0 min 0,000 mm 0,0 UV-I 0 W/m 2,2 C 6,5 C 9,7 km/h (2 Bft) 100,00 %
07.05.2019 23:52 6,4 C 12,8 C 2,8 C 75 % 1015,2 hPa 0,0 l/m 5,0 km/h (1 Bft) O 96 0 min 0,000 mm 0,0 UV-I 0 W/m 2,3 C 6,4 C 6,4 km/h (2 Bft) 98,00 %
07.05.2019 23:54 6,3 C 12,8 C 2,8 C 75 % 1015,2 hPa 0,0 l/m 5,3 km/h (1 Bft) O 97 0 min 0,000 mm 0,0 UV-I 0 W/m 2,2 C 6,3 C 6,4 km/h (2 Bft) 92,45 %
07.05.2019 23:56 6,3 C 12,8 C 2,8 C 76 % 1015,1 hPa 0,0 l/m 5,9 km/h (2 Bft) O 101 0 min 0,000 mm 0,0 UV-I 0 W/m 2,4 C 6,3 C 9,7 km/h (2 Bft) 92,68 %
07.05.2019 23:58 6,3 C 12,8 C 2,8 C 76 % 1015,1 hPa 0,0 l/m 5,3 km/h (1 Bft) O 94 0 min 0,000 mm 0,0 UV-I 0 W/m 2,4 C 6,3 C 9,7 km/h (2 Bft) 96,23 %
_ Min-Zeit 06:16 00:00 05:45 16:56 23:49 - 18:04 - - - - - - 17:06 00:50 18:04 00:02
Minimum _ 4,2 C 11,7 C 2,2 C 39 % 1015,1 hPa - 0,0 km/h (0 Bft) - - - - - - -0,6 C -0,5 C 0,0 km/h (0 Bft) 9,09 %
_ Max-Zeit 16:54 16:52 15:00 06:10 08:30 00:00 00:50 - - 06:16 16:00 13:32 13:40 13:08 15:58 10:58 00:00
Maximum _ 13,6 C 13,3 C 31,1 C 84 % 1019,7 hPa 0,0 l/m 16,5 km/h
SW (3 Bft)
- - 6 min 0,381 mm 3,9 UV-I 1043 W/m 3,7 C 13,4 C 29,0 km/h
W-SW (5 Bft)
100,00 %
Durchschnitt _ 8,7 C 12,2 C 11,7 C 64 % 1017,9 hPa #0,0 l/m 7,0 km/h (2 Bft) W-SW - #10:01 h #3,200 mm 1,7 UV-I 368 W/m 1,9 C 7,6 C 11,1 km/h (2 Bft) 97,36 %